GFSSGP_sfc_30mbdewp_000.txt.gz
Dewpoint
51 38 39 39 30 31 24 29 37 34 33 31 31 31 30 30 28 30 54 58 58 58 59 68 70 68 68 68 66 64 64 62 60 59 57 57 58 58 59 61 61 58 56 57 58 58 59 61 61
45 34 39 37 22 21 20 33 36 36 31 30 31 32 30 29 33 41 49 57 59 58 59 63 70 68 69 68 66 65 64 62 60 59 57 57 60 57 59 58 59 59 59 59 58 58 57 59 59
40 33 31 28 28 20 24 34 29 28 30 31 32 29 28 30 33 41 53 58 60 59 60 63 71 69 69 67 67 66 65 63 62 59 60 61 62 60 59 58 58 59 58 58 58 57 58 59 59
40 36 30 23 15 21 29 30 25 30 32 33 31 30 30 37 39 49 55 58 58 59 61 67 71 69 69 68 68 66 65 64 63 61 60 61 62 63 61 61 60 58 59 58 58 58 57 58 59
40 34 30 28 29 23 22 25 25 30 31 32 34 33 32 41 50 52 56 58 57 59 61 63 70 69 69 68 67 66 65 64 63 61 61 62 62 65 62 62 61 59 59 59 58 59 59 58 58
38 35 28 28 30 30 31 29 29 30 31 33 32 30 34 44 48 53 58 58 59 60 63 62 68 70 69 68 67 66 66 65 64 61 60 61 63 65 64 63 61 60 60 59 56 59 60 60 60
39 35 30 30 29 30 30 27 28 30 31 32 32 31 32 38 50 54 58 58 61 61 63 62 63 67 70 68 68 67 66 65 64 63 61 62 63 63 63 63 62 62 61 61 59 59 60 61 61
40 36 32 31 28 30 32 27 36 33 31 34 32 30 31 41 46 53 57 59 60 63 63 63 63 64 64 65 67 67 66 65 64 64 63 63 62 61 62 62 62 62 62 62 60 59 58 59 61
40 35 31 31 32 30 30 33 37 38 36 33 33 32 35 44 48 51 52 56 59 61 63 64 63 64 64 64 64 66 66 65 64 63 63 62 57 58 58 59 61 62 62 61 61 60 59 61 61
40 35 33 34 34 33 34 37 38 38 34 33 30 33 34 35 39 43 45 48 53 56 60 62 63 63 64 64 64 63 62 62 60 60 59 56 56 57 60 60 62 62 62 63 62 61 60 61 56
41 36 35 37 36 36 37 38 39 39 36 33 32 31 33 34 34 36 39 46 48 51 55 61 63 64 64 64 63 62 62 61 61 60 59 58 57 57 57 58 58 58 59 58 57 57 56 55 55
39 40 38 38 39 40 39 39 39 40 40 39 38 38 35 33 32 32 35 43 48 51 52 56 60 63 64 64 64 62 62 61 60 60 60 59 58 58 58 57 58 58 57 57 58 57 57 57 56
41 38 40 40 40 40 41 40 40 40 40 40 39 36 34 32 32 34 45 48 50 51 52 53 56 60 62 64 63 63 61 61 60 61 60 60 59 59 59 59 59 59 59 58 58 58 57 57 57
42 41 40 39 41 41 40 39 39 38 38 36 34 34 33 34 37 41 45 47 48 48 48 49 53 56 59 62 62 62 61 61 61 60 60 60 60 60 60 60 59 59 59 59 58 58 58 58 58
42 41 41 40 41 40 41 37 35 36 30 30 31 31 37 40 41 42 44 44 44 44 46 47 48 51 57 60 61 61 61 61 60 60 60 60 60 60 60 60 59 59 59 59 59 58 58 58 58
43 42 37 38 40 40 37 32 34 31 30 29 30 34 38 40 40 42 43 44 44 45 47 49 50 51 55 58 59 59 59 59 59 59 59 59 59 59 59 59 59 59 59 58 57 57 56 56 56
43 37 37 35 40 38 36 32 29 30 30 30 30 34 37 39 40 41 42 42 43 45 48 49 51 53 55 57 57 57 57 57 58 58 59 59 59 59 59 57 55 53 54 54 54 53 53 54 53
37 36 35 35 35 34 32 33 32 31 30 30 30 35 36 37 39 41 41 42 44 46 50 52 54 55 56 56 57 58 58 57 54 50 49 48 45 46 46 44 42 43 43 42 42 43 43 44 46
34 35 35 34 34 33 34 34 31 33 31 30 31 34 36 37 39 40 41 41 42 44 47 51 55 55 55 56 55 52 48 45 44 43 41 39 38 38 39 38 38 38 38 38 38 39 38 38 39
36 34 34 33 34 33 34 35 35 33 30 30 31 34 35 37 37 39 40 41 41 42 43 47 51 54 56 56 51 47 45 44 43 42 40 39 36 36 35 36 35 36 36 36 37 37 37 36 36
36 34 32 32 35 35 32 31 31 27 27 28 31 34 36 36 36 38 39 40 41 42 43 44 46 46 45 45 45 45 45 43 41 39 37 36 34 31 31 32 31 31 32 32 32 31 32 32 32
34 37 36 37 38 33 32 28 29 27 27 29 33 35 36 37 38 39 39 40 42 43 44 44 43 44 44 44 43 41 39 38 37 35 35 32 31 25 24 25 26 25 26 27 27 26 29 31 29
35 39 38 38 37 35 33 28 27 26 24 28 33 34 36 38 38 39 40 41 42 44 44 43 42 41 41 40 39 37 36 35 34 31 29 27 26 22 19 19 21 21 21 23 24 24 27 28 27
39 37 36 34 34 31 30 28 25 23 23 26 32 35 37 38 39 39 41 41 42 44 43 41 39 39 39 37 36 35 33 29 28 25 21 18 16 17 17 17 18 19 20 19 20 22 27 27 23
38 37 34 32 31 28 26 25 24 25 24 27 31 35 36 38 39 39 40 40 41 42 42 40 38 36 35 34 32 30 29 25 21 17 14 12 10 13 14 16 16 16 16 15 17 19 25 23 22
37 35 29 25 25 25 26 24 21 25 27 27 30 34 36 38 38 39 40 41 42 42 40 38 36 35 32 29 26 23 22 19 14 13 11 9 10 11 14 14 14 14 13 13 14 15 17 17 17
39 36 32 27 27 24 25 27 28 28 28 28 29 34 37 38 38 39 40 41 41 39 38 37 36 33 29 25 21 17 14 12 11 10 10 10 10 9 11 12 12 13 12 12 12 11 12 13 14
39 38 32 30 25 23 24 25 23 24 25 28 29 33 36 38 38 39 39 40 39 37 36 34 33 30 26 21 16 13 9 8 8 8 8 9 9 10 11 10 10 10 10 9 10 11 11 10 13
35 37 36 31 27 23 20 21 25 25 26 27 28 32 36 38 37 38 39 40 37 35 34 31 30 27 22 17 12 9 7 6 5 5 6 7 9 9 9 9 9 8 7 8 8 8 8 11 13
35 33 33 30 27 25 24 22 26 26 27 28 29 32 36 37 38 38 39 39 35 32 31 29 28 25 20 13 8 7 7 6 5 5 6 7 7 8 9 9 8 6 7 8 7 7 9 12 13

GFSSGP_sfc_30mbdewp_003.txt.gz
Dewpoint
52 43 37 38 29 25 22 24 35 35 36 32 32 32 33 31 30 32 52 54 54 55 60 67 69 69 68 67 66 64 62 61 60 58 57 56 57 58 59 59 59 58 56 58 58 58 58 59 60
48 40 36 31 20 20 17 25 29 36 33 32 32 32 32 30 33 44 50 54 54 54 60 64 70 68 69 67 65 63 63 62 59 58 58 58 59 58 59 57 57 59 59 59 58 56 56 57 60
45 38 32 31 22 18 24 29 32 29 33 32 33 31 30 31 35 42 51 55 55 54 57 66 70 68 69 67 66 64 63 62 61 59 58 62 62 61 60 58 58 59 58 58 58 57 57 59 59
41 36 33 29 25 18 23 28 26 28 33 33 33 32 31 39 41 49 53 54 54 55 58 69 70 69 68 67 67 65 64 63 62 61 61 60 62 64 62 61 60 59 59 59 58 58 58 57 57
41 35 30 29 29 29 17 20 26 27 31 32 34 34 34 41 47 49 53 53 53 55 59 64 70 68 68 67 67 66 65 63 62 61 61 61 63 64 64 63 61 60 59 59 58 58 59 59 59
38 35 29 25 28 31 30 26 25 27 30 31 32 32 36 42 45 50 54 53 54 56 60 63 69 69 69 68 67 66 65 64 63 61 60 61 63 64 64 64 62 60 60 61 59 58 58 61 61
38 34 31 27 26 30 30 27 22 28 30 31 33 31 35 39 44 51 54 53 56 58 60 60 62 65 70 69 68 67 66 65 64 63 61 61 64 63 63 63 62 62 62 62 61 59 59 58 60
41 36 33 31 28 28 31 29 27 31 30 33 32 31 32 37 43 49 54 55 56 59 60 60 60 62 63 63 67 66 66 65 64 63 64 64 63 62 61 61 63 63 62 61 60 60 59 59 60
43 35 31 30 30 29 31 31 34 36 35 33 32 32 33 36 39 45 49 53 56 58 60 60 60 61 61 61 64 66 65 65 65 63 63 62 57 57 58 59 59 61 62 61 61 61 61 61 61
41 34 32 32 31 31 31 33 36 36 34 33 33 32 33 33 33 35 39 43 51 55 58 60 60 61 61 61 61 61 61 61 60 59 58 56 54 55 58 58 60 62 62 62 62 62 62 62 59
41 36 34 34 34 35 33 34 36 37 35 35 33 33 33 35 33 33 35 36 44 50 54 58 60 61 61 61 61 59 59 59 58 57 57 57 56 56 57 57 58 58 61 60 59 59 59 56 56
39 38 37 35 36 37 36 36 36 37 37 38 38 38 38 36 31 32 32 35 43 48 51 55 58 61 61 61 62 59 59 58 57 57 58 57 57 57 57 58 58 59 59 58 59 59 58 58 57
40 38 37 37 36 38 38 37 37 38 39 39 37 37 37 36 33 31 34 43 45 48 50 52 56 58 61 62 61 60 59 58 58 59 59 59 59 59 59 59 59 59 59 59 59 59 58 58 57
42 39 38 37 37 38 38 37 37 38 39 37 34 30 32 33 34 36 40 43 47 48 50 51 53 55 58 60 61 60 59 59 59 59 60 60 60 60 60 60 59 60 59 59 58 59 57 57 57
43 39 39 37 37 36 38 37 36 37 37 28 26 26 31 36 38 39 42 43 44 44 46 46 48 51 56 59 60 60 60 59 59 59 59 59 59 60 60 60 59 59 59 58 57 55 55 54 53
41 43 39 38 38 37 39 35 33 33 28 27 28 31 36 38 38 41 42 43 43 44 47 49 49 49 54 57 60 59 58 58 58 58 58 59 59 60 59 58 56 52 52 51 49 48 47 48 48
44 39 39 37 37 37 38 34 32 32 28 28 28 29 34 37 39 40 41 42 42 45 47 50 52 52 55 58 58 57 57 57 58 58 57 53 51 51 49 44 42 41 42 41 41 40 41 41 42
38 39 37 38 35 37 35 34 34 30 31 29 28 31 35 36 38 40 41 43 46 49 50 52 53 54 55 56 57 57 53 48 45 43 42 40 39 40 40 38 37 38 39 39 39 38 40 40 40
39 40 35 37 35 35 34 33 31 32 32 31 29 32 34 36 39 40 41 43 45 48 51 53 54 55 56 56 54 50 46 45 43 41 39 37 36 35 36 36 36 36 36 36 34 34 35 35 35
40 37 34 35 34 33 32 31 32 33 34 33 29 31 34 36 37 39 40 41 42 44 48 50 53 55 52 50 49 47 45 42 41 39 36 34 32 31 31 31 30 30 31 30 30 29 30 30 31
38 38 37 34 34 33 33 33 34 35 32 30 30 32 35 35 36 38 39 40 41 42 45 46 46 47 47 47 46 45 43 41 37 36 35 33 29 24 24 24 24 24 26 27 26 25 28 29 29
39 40 33 33 33 30 34 25 26 29 26 27 29 32 34 35 36 37 38 40 42 43 44 43 43 43 43 42 41 39 37 35 35 34 33 30 27 21 19 20 22 21 22 23 25 23 27 29 26
41 41 34 36 35 37 35 31 28 28 26 27 28 33 34 35 37 38 39 40 42 43 43 41 40 40 39 38 37 36 35 34 32 31 27 24 22 19 18 18 20 20 21 22 23 24 25 28 25
43 39 39 36 34 29 29 29 24 26 26 26 29 33 35 36 37 38 40 41 43 44 42 41 39 38 38 37 36 35 33 31 29 25 22 19 16 17 17 17 18 18 19 19 20 22 24 26 24
42 39 33 29 29 25 27 28 26 23 24 25 29 32 35 36 37 38 39 40 42 42 41 39 37 36 35 34 33 32 30 27 23 20 17 14 13 14 14 16 15 16 16 17 17 18 20 19 21
40 38 26 22 23 23 26 25 25 25 26 26 30 33 35 36 37 38 38 40 42 41 39 38 36 34 32 30 28 26 25 21 18 16 14 11 11 11 12 14 13 13 14 13 14 16 16 16 17
38 37 32 27 26 24 26 26 25 27 27 26 29 33 34 36 37 37 39 41 41 41 39 37 35 32 30 27 24 20 18 16 14 12 11 11 10 8 10 12 11 11 11 11 12 12 13 14 14
41 36 31 29 23 21 23 22 23 25 26 27 27 32 34 36 37 38 39 40 40 39 37 36 34 32 28 23 20 17 13 10 9 9 8 9 9 9 10 10 9 9 9 9 10 11 12 12 12
39 37 34 28 27 22 21 22 26 24 25 27 28 31 34 36 37 38 39 40 39 37 36 34 32 28 25 21 17 14 10 8 7 6 6 6 7 7 8 8 8 8 8 8 9 9 10 10 12
40 37 32 28 27 25 24 22 25 25 27 28 28 31 34 37 37 37 38 40 37 36 34 32 31 27 23 17 13 11 9 8 6 6 6 6 6 7 8 8 8 8 8 9 9 8 9 8 10

GFSSGP_sfc_30mbdewp_006.txt.gz
Dewpoint
57 49 40 40 33 29 27 22 33 34 35 32 32 31 31 33 32 39 53 53 55 61 66 69 70 69 68 68 66 63 62 60 60 57 56 56 58 56 59 59 58 56 56 58 58 57 58 59 61
57 50 40 37 26 23 20 23 31 32 31 33 33 32 32 32 42 49 53 53 54 61 65 66 70 69 69 68 66 64 63 61 60 58 60 59 59 59 58 57 57 59 59 58 58 57 57 58 59
53 44 35 35 29 18 21 29 29 27 30 33 33 33 31 35 44 49 54 54 54 56 63 68 70 69 68 67 65 64 63 62 60 59 59 61 62 62 60 58 57 59 58 58 58 58 57 57 58
45 40 36 30 29 29 18 24 25 26 30 33 33 33 38 44 46 50 54 53 54 56 67 69 69 69 69 67 66 65 64 63 62 60 61 61 63 64 64 60 60 59 59 59 59 59 59 59 59
43 40 33 30 30 30 27 18 26 26 28 32 32 33 38 44 47 51 53 53 54 57 68 70 70 69 69 68 67 65 64 62 61 61 61 61 64 65 64 62 61 60 59 59 59 57 58 60 61
40 38 33 30 28 29 30 29 25 25 26 31 32 31 39 45 49 53 53 52 54 58 63 69 69 68 69 68 67 66 65 64 63 61 60 61 63 64 64 64 62 61 60 61 60 59 58 59 61
41 37 35 32 29 28 31 29 23 23 30 30 33 30 39 41 48 52 53 53 55 59 61 64 67 68 69 68 68 66 66 65 64 62 61 63 63 63 63 63 62 62 62 62 62 61 60 58 59
43 40 35 34 32 31 30 32 29 26 30 35 33 31 33 39 46 50 54 54 55 59 60 61 64 65 67 66 67 66 66 66 64 64 63 63 62 62 62 61 62 63 62 61 60 60 61 61 60
45 40 36 34 33 33 31 31 32 34 35 34 34 33 34 35 43 47 50 55 55 58 59 60 61 63 63 63 66 66 65 65 65 63 63 62 59 58 60 60 60 61 61 61 61 61 62 62 62
44 40 38 35 33 31 32 31 32 34 36 34 34 34 33 33 34 34 41 48 54 57 58 60 60 61 61 61 65 64 63 64 63 62 62 61 58 57 57 57 57 60 61 62 62 62 63 63 62
44 41 39 35 34 33 33 34 34 35 35 37 34 36 38 37 37 34 34 37 47 54 57 59 60 61 61 61 62 62 62 61 60 59 58 57 56 57 58 59 59 60 61 61 61 63 63 62 60
42 42 40 39 37 36 35 36 36 35 36 39 39 39 38 38 37 33 33 34 42 50 54 57 59 61 61 62 61 60 59 59 58 58 57 57 58 58 58 58 59 60 60 60 60 60 59 59 59
41 41 39 38 38 37 37 37 37 37 38 39 39 39 38 37 37 35 32 43 44 48 51 54 57 61 62 61 62 60 59 59 58 59 59 59 60 60 60 60 60 60 60 60 59 58 58 58 57
43 42 42 40 37 37 36 36 37 38 38 38 39 37 31 31 35 36 36 42 46 49 51 52 54 58 61 62 61 61 60 59 59 60 60 60 60 60 60 60 60 59 59 58 58 56 54 54 54
43 43 42 41 39 36 37 36 36 38 38 37 37 27 29 34 38 38 42 43 44 46 46 46 48 54 59 60 61 60 60 60 60 59 59 59 60 60 60 59 56 55 54 51 46 46 46 46 47
43 43 41 41 39 38 37 34 37 38 37 35 27 28 35 38 38 40 42 43 43 45 48 50 48 49 56 60 60 60 59 59 58 59 59 57 57 56 48 45 41 42 43 43 41 41 41 42 42
41 37 40 41 41 37 36 35 37 38 33 29 28 28 35 38 39 41 42 42 43 47 50 51 50 51 56 59 58 58 57 54 48 45 43 42 41 42 42 40 39 39 41 41 39 38 40 38 39
35 39 37 39 40 38 36 35 37 37 33 29 29 28 35 37 39 40 41 44 47 50 52 54 55 56 58 57 57 49 46 44 43 40 38 37 37 37 38 38 37 37 37 37 33 32 32 33 34
36 36 39 38 40 37 36 35 37 36 35 32 31 31 35 37 40 41 43 47 50 52 53 55 55 56 57 57 49 47 45 43 41 38 35 33 32 34 32 32 32 31 33 31 29 29 29 30 31
36 37 39 38 38 38 36 35 35 35 34 33 32 30 35 38 39 40 42 44 48 51 53 55 54 51 51 50 48 46 43 42 39 37 34 29 26 26 26 26 27 26 29 27 27 27 30 31 31
34 36 39 38 37 37 34 33 32 32 32 34 34 31 36 37 38 40 41 43 46 47 47 48 48 49 48 47 45 44 43 40 38 37 33 28 23 21 23 24 24 24 27 26 26 26 27 30 29
31 36 39 40 38 34 33 28 31 32 33 34 31 32 35 36 38 39 40 42 44 46 46 46 46 46 46 46 44 40 37 36 36 33 32 27 23 20 21 22 23 23 25 24 25 25 25 28 28
32 35 39 40 40 37 32 30 29 31 33 28 28 32 35 36 38 39 41 43 44 45 43 42 40 40 39 38 38 37 36 34 33 29 25 23 22 20 20 21 21 21 22 22 22 22 22 26 26
35 35 38 43 39 34 36 31 28 28 28 27 28 34 35 36 38 40 42 44 44 44 42 40 39 39 38 37 36 36 34 32 27 24 21 19 20 21 18 19 18 19 19 19 20 19 21 21 23
37 35 31 31 30 29 31 32 25 26 27 27 28 34 35 37 38 40 41 43 44 42 41 39 38 36 35 34 32 31 28 24 21 19 17 14 15 16 16 17 16 16 16 17 17 17 18 18 18
36 36 32 27 29 25 27 26 27 25 25 28 31 34 36 37 38 39 41 42 43 42 39 37 35 33 31 29 27 25 23 20 18 15 15 13 13 12 14 15 14 14 14 14 14 15 16 15 17
37 33 35 37 24 25 26 26 25 26 25 28 32 34 36 37 38 39 40 43 43 40 38 36 33 31 28 25 21 19 17 15 13 12 13 13 12 10 12 13 12 12 12 12 12 12 13 14 14
40 38 34 37 22 23 26 25 23 26 26 28 32 34 36 37 38 39 40 42 41 40 38 35 32 29 26 22 18 14 11 10 10 10 9 9 9 10 10 10 10 10 10 10 10 12 13 12 12
40 38 40 39 28 23 22 23 27 26 27 26 31 34 36 37 38 39 40 41 40 38 37 34 31 26 23 19 16 12 10 9 8 8 8 7 8 8 9 9 9 9 10 10 10 11 11 10 11
41 39 39 28 27 26 26 23 25 27 27 28 28 34 36 37 38 39 40 40 38 37 35 32 29 25 21 16 13 11 10 9 8 7 8 8 7 8 9 10 10 10 11 11 11 11 11 11 10

GFSSGP_sfc_30mbdewp_009.txt.gz
Dewpoint
57 54 51 39 29 32 28 25 31 31 32 32 33 32 31 33 34 38 53 62 66 68 70 70 70 69 69 68 65 64 62 60 57 56 56 57 57 57 59 59 57 56 58 58 58 57 58 59 61
61 55 42 37 25 21 24 28 28 27 30 33 33 33 32 36 47 52 52 57 65 67 69 70 70 70 69 67 65 64 62 60 59 58 59 56 57 56 55 56 58 59 58 58 58 57 56 58 59
54 52 38 34 32 21 19 26 26 26 29 33 32 34 35 39 50 52 54 57 65 65 67 68 70 70 69 67 65 64 63 61 59 58 59 62 62 63 60 58 59 59 59 58 58 58 58 57 57
46 42 36 31 28 29 30 19 25 25 28 32 33 33 42 45 48 53 54 54 60 64 66 70 70 70 69 66 65 64 63 63 61 60 60 61 63 64 64 61 60 60 60 59 59 59 59 60 60
45 41 34 31 31 31 30 26 25 25 26 31 32 32 40 46 52 53 53 54 63 67 68 70 70 70 68 67 66 65 63 62 61 60 60 62 64 65 64 62 61 61 60 60 59 57 58 59 60
43 40 35 31 31 32 31 30 25 25 25 29 32 32 40 49 51 53 52 54 66 67 68 69 70 70 69 68 67 66 64 63 62 60 61 61 63 64 65 64 62 61 61 61 61 60 60 58 60
44 40 36 34 33 34 32 26 23 23 29 31 33 32 40 46 50 53 53 54 63 66 68 69 69 69 69 69 68 67 66 65 63 62 61 63 63 62 64 65 63 62 62 61 62 62 61 60 60
45 42 38 36 34 34 35 32 29 26 27 35 34 31 35 43 49 54 54 54 58 64 65 67 68 68 69 68 68 67 66 66 65 64 63 62 62 61 62 63 63 62 62 62 61 60 61 62 62
49 42 39 38 36 34 35 31 32 33 34 35 35 34 35 43 49 52 53 55 56 59 62 65 66 66 67 66 67 66 66 65 64 63 63 62 61 59 60 62 61 61 61 61 61 62 62 63 63
46 42 41 39 37 35 35 33 32 33 35 36 36 36 36 41 46 48 50 52 55 57 59 62 64 64 65 64 65 65 65 65 64 63 62 62 61 59 59 59 59 59 60 62 62 63 64 64 63
46 43 43 41 39 38 35 34 35 34 34 36 37 37 39 37 36 35 37 50 53 57 58 60 60 63 62 64 64 64 63 63 63 62 62 61 57 57 57 58 59 58 60 61 61 61 62 62 62
45 45 45 43 43 41 38 36 35 36 36 37 39 39 39 38 38 37 34 34 44 55 58 59 60 61 61 62 63 63 62 62 60 61 59 58 58 58 58 59 59 60 60 60 60 59 59 58 58
43 43 44 43 43 41 39 37 36 36 38 38 38 38 39 39 39 38 35 42 46 53 57 58 60 61 62 61 61 60 60 59 59 58 59 60 60 59 60 60 60 59 59 59 57 55 52 51 51
42 42 42 42 42 40 38 37 37 38 39 38 38 38 39 37 34 37 36 42 45 50 55 57 58 61 62 62 61 60 59 59 59 59 59 60 60 60 60 58 56 54 51 46 44 43 44 44 44
43 42 42 44 42 42 42 37 36 38 38 38 38 38 34 36 38 39 43 44 47 48 49 52 56 60 61 61 61 60 60 60 60 59 59 59 60 59 53 42 41 44 43 41 40 39 41 39 40
40 41 39 41 43 42 41 37 37 38 38 38 38 37 33 38 38 42 43 43 44 46 47 48 49 57 60 61 61 60 60 58 54 45 42 41 43 43 42 39 38 41 41 37 36 36 33 35 36
39 34 38 40 42 41 39 37 38 38 37 37 35 34 35 38 40 41 42 43 43 48 49 50 48 54 60 59 55 49 44 43 42 40 39 38 38 38 38 36 35 37 35 33 32 29 31 33 31
31 33 34 38 40 41 41 39 37 37 37 36 34 28 36 38 39 40 41 42 46 50 52 52 51 58 56 47 45 43 41 40 38 36 34 35 33 32 33 31 29 33 30 29 28 26 29 31 30
33 32 34 36 39 39 38 39 38 37 37 36 32 31 37 39 40 42 43 47 50 53 54 55 57 57 51 47 44 42 40 37 35 32 29 28 28 27 27 28 26 30 28 27 28 27 28 29 31
35 35 34 35 39 41 40 38 39 37 37 37 35 33 38 39 40 42 45 50 52 54 55 55 55 54 50 48 46 42 39 37 35 31 25 23 23 24 25 25 24 27 26 25 26 26 27 31 30
34 35 34 34 37 40 40 39 37 37 36 36 35 34 38 39 40 41 45 48 49 50 50 50 49 48 47 45 43 41 40 38 35 31 26 21 21 22 23 24 23 25 25 23 24 24 24 27 28
30 33 33 34 34 33 39 33 37 36 34 34 33 35 38 39 40 41 44 46 47 47 48 48 47 46 44 43 42 39 37 35 35 33 27 22 20 20 22 22 23 23 24 21 22 22 23 23 22
30 31 31 33 35 35 35 35 32 34 32 32 33 35 37 39 40 41 43 45 45 44 43 43 43 43 43 42 39 37 36 34 33 28 24 21 20 19 20 20 20 20 21 20 19 18 19 20 20
33 34 34 35 34 30 34 34 31 31 31 32 31 35 37 38 40 42 44 44 43 41 39 39 39 38 38 38 37 35 32 28 25 22 21 21 21 19 18 17 17 17 18 18 18 17 16 16 18
33 30 26 26 26 26 34 33 34 30 31 32 29 35 36 38 41 43 43 43 41 39 39 38 36 35 34 33 31 30 26 23 19 17 15 15 15 15 15 16 14 15 15 15 15 14 14 15 15
32 29 25 20 20 22 36 32 33 33 31 31 33 35 37 39 41 43 43 42 41 39 38 36 34 32 30 28 25 23 21 18 16 15 13 13 12 12 13 13 12 12 12 12 12 13 14 14 14
28 29 31 32 33 30 34 36 36 27 28 30 34 35 37 39 40 42 43 43 41 38 37 34 32 29 26 22 19 18 16 14 12 12 13 12 11 11 11 11 10 10 11 11 11 11 11 13 14
28 33 29 31 26 26 31 27 26 25 28 33 34 35 37 39 40 41 42 43 41 38 36 33 30 27 23 19 15 12 11 11 10 9 8 8 9 9 9 9 10 10 10 11 11 12 13 12 13
33 33 33 33 31 29 29 26 26 25 29 32 34 35 37 38 39 40 42 42 40 38 34 31 28 24 19 16 12 10 9 9 8 8 7 7 8 8 9 9 10 11 11 12 12 12 12 12 12
36 36 31 26 27 33 24 22 27 27 28 32 34 36 37 38 39 41 42 41 39 36 34 30 26 22 18 14 12 10 9 8 8 8 8 9 8 9 10 11 12 12 13 13 13 13 13 13 13

GFSSGP_sfc_30mbdewp_012.txt.gz
Dewpoint
63 57 52 38 25 31 28 27 29 28 31 32 33 32 32 35 34 34 54 61 66 69 71 70 70 70 69 68 65 64 62 58 57 58 59 58 56 57 59 58 57 58 58 57 57 58 59 59 61
64 54 43 37 26 21 23 27 26 27 28 31 33 32 33 41 50 52 58 65 67 69 70 70 70 70 69 67 65 63 62 60 57 56 54 56 55 59 57 56 58 59 58 57 58 57 56 58 59
52 52 38 33 31 25 20 25 25 25 29 33 32 36 38 43 52 52 55 65 67 69 69 70 71 70 69 67 65 64 62 61 58 59 60 62 61 59 57 54 59 59 59 58 58 58 58 58 57
48 43 37 32 29 30 29 30 24 24 25 31 33 35 43 46 48 53 60 65 66 67 68 70 71 70 69 67 65 64 63 61 59 59 60 62 64 64 62 60 60 60 60 59 59 59 59 60 60
45 41 35 32 31 31 32 31 25 25 26 30 32 33 41 48 53 54 59 64 63 65 67 70 71 71 69 66 65 64 63 63 60 59 60 62 64 65 64 63 62 61 60 60 60 59 58 58 59
43 40 35 31 30 32 33 33 28 25 25 29 32 35 41 48 53 53 54 62 65 65 68 70 71 70 68 67 66 65 63 62 61 60 61 62 63 64 64 63 62 61 61 60 61 61 61 61 59
44 40 35 35 33 34 34 35 26 23 29 32 34 35 40 46 52 53 53 62 66 67 68 69 70 69 69 68 67 66 64 63 62 60 60 62 63 63 64 65 63 63 62 61 61 62 60 61 61
45 42 38 37 35 34 36 34 30 26 25 33 34 35 37 41 50 53 54 63 66 67 68 68 69 69 69 69 68 67 67 65 64 63 62 63 62 61 63 65 64 62 62 63 62 60 61 62 62
49 43 39 37 36 35 36 35 34 33 32 34 35 34 34 40 51 53 53 59 63 65 67 68 67 68 67 67 68 67 67 66 65 64 63 62 61 59 60 62 62 62 63 61 62 62 63 64 64
47 44 41 41 39 36 37 35 34 33 35 36 36 37 38 46 51 52 53 53 58 61 63 66 66 66 67 67 67 67 66 65 64 63 62 62 61 58 57 59 61 62 61 62 63 63 64 64 63
47 44 43 42 41 40 39 38 37 34 33 35 35 37 37 43 47 49 51 54 54 58 61 64 65 64 65 63 64 65 64 64 64 63 62 62 61 58 59 59 58 59 58 60 60 60 60 61 61
42 45 45 45 44 44 42 40 39 36 35 36 38 39 39 38 37 39 41 48 52 56 59 61 63 63 64 64 64 64 63 63 62 62 62 61 58 57 58 58 60 60 60 60 58 52 49 47 48
42 42 44 46 46 45 44 42 40 38 38 38 39 38 38 38 39 40 39 35 37 53 58 59 61 62 62 63 63 63 62 62 61 60 59 59 59 59 60 60 58 54 49 46 43 43 43 41 41
40 39 41 43 43 43 43 42 40 39 38 38 39 38 38 39 39 38 37 40 46 51 57 58 60 61 62 62 62 61 61 60 59 59 60 60 60 60 52 45 46 44 42 41 39 38 37 37 37
42 39 41 41 42 43 42 41 41 41 38 38 38 38 38 38 36 35 37 42 45 51 56 58 60 61 61 61 61 60 59 60 59 53 52 55 54 43 41 41 41 41 38 36 33 31 34 33 33
40 39 37 39 41 43 42 39 40 40 38 37 38 38 38 37 37 41 43 44 47 49 53 55 58 61 62 61 60 60 58 50 43 42 41 41 41 40 38 37 37 36 33 32 28 30 31 29 30
38 34 34 36 38 42 41 38 39 40 38 37 37 37 37 36 39 42 43 43 45 47 48 48 54 60 61 58 50 46 44 41 39 38 38 37 37 36 33 32 34 32 29 28 27 27 30 28 28
31 31 33 32 39 40 39 40 41 39 39 38 37 37 34 37 39 41 42 43 45 49 49 49 51 59 50 46 43 40 38 37 35 34 33 32 31 30 29 28 30 28 27 27 26 25 28 29 29
35 33 31 33 35 35 35 39 39 41 40 37 37 36 32 37 40 40 42 44 49 51 52 51 57 49 47 44 42 39 36 33 31 29 28 26 26 26 26 26 28 28 26 26 26 26 26 29 29
33 32 33 34 34 34 37 39 41 39 40 39 37 35 34 38 40 42 45 49 52 53 55 56 53 48 47 45 42 38 35 33 29 25 23 23 24 24 24 24 26 26 24 23 24 24 23 29 29
33 32 30 30 34 34 33 30 35 41 40 39 38 36 36 39 40 42 48 50 52 53 54 54 50 48 46 42 39 37 35 33 28 24 22 21 22 23 24 23 24 24 23 20 22 22 21 20 25
30 33 34 33 33 29 34 27 33 37 39 38 38 35 37 39 41 44 49 50 51 51 51 50 48 46 43 41 38 34 33 31 32 27 22 20 20 21 22 22 22 21 21 19 20 20 20 20 17
31 32 31 31 31 31 31 30 31 37 36 38 37 35 37 39 41 44 48 49 48 48 48 47 46 44 43 41 38 37 35 34 32 25 20 19 19 20 19 19 19 19 20 18 17 17 16 18 17
34 33 32 31 31 26 27 29 27 33 34 36 36 35 37 39 41 45 46 46 45 44 44 44 43 42 41 39 37 36 33 29 26 23 21 20 19 18 17 16 16 16 16 16 17 16 15 14 16
30 28 22 23 23 21 25 28 28 32 33 33 35 34 38 39 42 44 44 43 41 41 41 41 40 39 38 37 35 32 29 24 20 19 19 16 14 14 14 15 13 13 13 14 14 13 13 14 13
30 28 21 17 20 18 29 27 30 35 35 36 37 35 38 40 42 44 43 41 39 39 38 37 36 35 33 31 28 24 21 19 17 15 14 13 12 13 13 12 11 11 11 12 12 13 13 13 13
29 27 27 25 26 25 29 35 37 37 36 32 32 36 38 40 42 43 42 40 39 38 36 34 32 29 27 24 21 18 17 15 13 13 12 11 12 11 10 10 10 10 11 11 12 12 12 13 14
29 30 26 26 19 19 26 32 30 34 31 32 34 36 38 41 42 42 41 40 39 37 35 32 29 26 22 19 16 14 13 12 11 10 8 8 9 9 9 9 10 11 12 12 12 13 14 13 13
30 27 27 24 25 26 22 28 33 33 31 33 35 36 38 40 42 42 41 40 39 36 33 30 26 22 18 14 11 10 10 9 8 7 7 8 8 9 9 10 11 12 12 13 13 13 14 13 14
31 28 27 24 19 25 29 25 28 32 31 34 35 37 39 40 41 42 42 40 38 35 31 28 24 19 15 12 10 9 9 8 8 8 8 9 9 10 10 12 12 13 13 14 14 14 14 14 13

GFSSGP_sfc_30mbdewp_015.txt.gz
Dewpoint
63 59 47 37 28 30 28 27 28 28 31 32 32 32 32 36 33 33 56 62 65 67 71 71 71 71 69 67 65 63 61 59 59 61 64 58 56 55 58 58 57 57 57 56 57 58 59 60 61
59 53 41 36 29 20 21 27 27 27 28 31 33 34 34 40 50 52 57 63 67 70 71 70 71 71 69 67 65 64 61 58 58 58 58 57 56 57 56 57 57 58 58 57 57 57 56 57 58
53 46 37 33 30 26 21 26 29 27 26 32 32 38 39 46 52 53 55 65 69 69 70 70 71 70 69 67 65 64 62 59 57 57 58 57 56 56 56 56 59 59 59 58 58 58 59 59 59
48 42 37 32 29 30 24 30 30 25 25 32 33 35 43 46 50 53 62 66 68 68 69 70 71 70 69 67 65 64 62 61 59 60 61 62 63 62 60 59 60 60 60 59 59 58 58 59 60
44 41 34 33 32 32 31 32 30 30 26 29 30 34 41 48 53 58 64 66 65 67 68 70 71 70 69 67 65 64 63 62 60 59 61 63 64 64 64 63 62 61 60 60 60 60 60 59 59
43 40 34 29 30 32 33 33 32 28 25 29 32 37 41 48 53 57 63 64 64 66 67 70 71 71 70 67 66 65 64 63 60 59 60 62 63 64 64 63 62 62 61 61 61 61 61 61 61
43 39 34 33 31 32 33 35 34 30 27 31 33 35 40 46 52 54 60 63 64 65 67 70 71 71 69 67 67 66 64 63 62 60 61 62 63 63 65 64 63 63 62 61 62 62 61 60 61
46 42 38 36 33 32 35 35 33 25 25 33 35 34 37 41 48 53 55 64 65 67 68 69 70 69 68 68 67 67 65 65 64 62 62 63 63 61 63 65 65 63 62 62 62 61 61 62 63
47 42 37 36 36 34 36 35 35 34 31 34 34 37 35 40 52 53 57 63 65 66 67 68 69 69 68 68 68 67 67 66 65 64 63 62 61 60 60 62 62 62 63 63 62 63 63 64 63
47 43 39 41 38 36 36 36 36 35 35 35 36 37 42 48 52 52 54 58 62 65 66 67 67 67 67 67 67 67 67 66 65 64 62 62 60 58 57 59 60 62 63 63 63 63 63 61 62
46 42 42 43 42 41 40 38 39 37 35 34 35 37 39 47 52 52 52 55 60 63 64 66 66 66 66 66 66 66 65 65 64 63 62 61 61 59 59 58 58 59 58 59 60 58 54 48 48
40 44 45 45 45 45 43 42 40 38 36 37 37 39 38 41 46 50 51 52 54 58 62 64 65 65 65 65 64 65 64 64 63 63 62 61 60 57 57 58 60 60 60 50 45 45 42 40 40
42 42 43 43 46 46 46 44 44 42 41 40 39 38 39 39 38 39 43 44 48 53 58 62 63 63 64 63 63 63 63 62 62 62 62 61 58 59 60 53 47 45 43 41 40 38 36 35 35
40 40 40 41 42 43 43 43 43 42 41 40 39 38 39 39 39 39 39 39 39 39 54 60 62 63 63 63 63 63 62 62 61 60 59 60 60 52 45 44 42 40 39 36 33 33 33 30 31
42 39 40 40 40 40 43 40 41 43 43 41 40 39 39 39 39 38 37 37 39 42 49 58 60 62 62 63 63 62 61 60 58 56 58 55 43 42 42 41 38 36 34 29 28 30 29 26 28
40 39 36 37 37 41 41 34 40 42 42 41 40 39 38 38 38 38 38 39 43 47 53 58 60 61 61 61 61 60 55 47 45 43 43 42 40 39 38 36 33 30 29 27 26 29 27 25 25
37 32 35 35 38 40 41 37 39 40 40 39 39 38 38 38 38 38 41 44 46 48 52 57 60 61 61 59 52 47 43 42 40 39 39 37 35 34 33 32 30 28 26 26 25 25 29 24 23
30 33 34 33 36 38 38 37 38 40 41 40 39 39 39 37 37 38 42 43 45 48 50 53 59 60 51 45 42 40 39 37 36 35 33 32 30 28 29 29 27 26 25 24 23 23 26 29 25
34 34 33 33 34 34 34 35 36 39 41 41 40 39 38 36 37 40 42 43 46 49 49 50 57 51 47 44 42 40 36 33 30 28 27 26 26 26 26 27 26 25 24 24 23 24 22 26 27
32 32 32 33 33 33 32 32 34 36 36 41 40 40 39 36 37 40 41 44 48 50 51 53 52 48 47 44 41 38 33 30 27 25 24 24 24 24 24 25 25 23 20 21 21 22 19 22 27
32 31 30 30 30 31 30 24 22 27 33 38 41 40 40 38 37 39 42 47 51 52 54 53 49 47 45 40 37 33 29 26 23 22 22 22 23 24 23 23 23 21 21 19 20 21 18 17 19
28 33 33 32 30 25 30 16 22 27 29 33 38 40 39 38 38 41 45 49 52 53 54 50 48 45 41 40 36 33 30 26 25 23 21 21 21 21 22 21 20 20 20 18 18 19 18 19 15
29 31 31 32 32 31 29 27 26 29 30 34 39 39 38 38 39 41 46 49 52 51 51 48 46 43 40 39 36 34 32 31 27 21 18 18 19 19 19 18 18 18 18 17 16 16 14 17 16
34 32 32 32 30 24 25 26 19 20 29 33 36 39 38 38 40 44 48 49 49 49 48 46 45 42 40 38 36 34 32 28 22 20 18 18 18 17 16 15 15 15 15 15 15 14 14 13 14
29 30 23 22 23 19 23 24 23 25 28 32 33 36 37 38 41 45 48 48 47 47 46 45 44 41 39 38 35 33 31 26 22 20 20 17 14 14 14 14 12 12 12 13 13 13 13 14 13
29 27 22 15 17 18 21 21 23 29 28 28 30 35 36 39 42 45 47 47 45 45 44 43 42 40 37 35 33 29 26 24 22 20 17 14 13 13 13 11 10 10 11 12 12 13 13 14 14
32 28 29 23 23 24 25 28 34 33 36 35 35 35 36 39 42 45 45 44 43 42 40 40 39 35 33 30 26 23 20 18 16 14 13 13 12 11 10 10 10 11 12 12 13 13 13 14 14
30 29 26 28 18 16 18 27 24 31 31 32 35 33 36 39 43 44 42 41 40 38 36 35 34 31 27 22 20 17 15 14 13 12 10 10 9 9 9 10 11 12 13 13 13 14 15 14 14
29 28 27 26 23 16 14 14 32 31 31 33 33 34 37 40 43 42 41 39 38 35 33 30 27 24 20 17 14 13 11 10 9 8 8 8 8 9 10 11 12 13 13 14 14 14 14 14 15
29 27 27 25 20 20 22 22 30 33 31 33 34 38 40 42 42 41 40 38 36 33 30 27 22 19 16 13 11 10 9 8 8 8 8 9 8 10 11 12 13 13 14 15 14 13 14 15 15

GFSSGP_sfc_30mbdewp_018.txt.gz
Dewpoint
61 55 43 36 29 28 27 26 28 28 31 32 31 32 32 35 36 33 56 61 64 64 68 71 70 70 68 66 65 63 61 61 60 63 64 60 58 55 58 58 58 57 57 56 58 59 60 60 61
59 51 40 35 29 24 22 27 27 28 28 29 33 36 35 38 50 52 57 62 66 67 71 71 71 70 69 67 66 63 61 59 59 62 61 57 56 56 55 56 57 58 58 57 57 57 56 56 57
51 42 36 32 29 26 22 25 28 30 27 30 33 38 39 45 51 52 57 64 68 70 71 70 71 70 69 67 65 64 61 59 59 57 58 57 56 58 57 56 58 59 59 58 57 58 59 59 60
47 41 37 31 28 30 26 25 31 30 29 31 34 34 42 46 50 53 61 67 68 69 70 71 71 70 69 67 66 64 62 60 58 60 61 61 60 58 58 57 60 60 60 59 59 58 58 58 60
44 41 33 32 31 31 31 32 32 32 29 27 31 32 40 47 54 59 64 67 66 68 69 71 71 70 69 67 66 64 63 61 59 60 61 62 63 63 62 61 61 61 60 60 59 60 60 60 60
43 39 32 29 30 32 33 33 33 30 28 26 32 37 39 47 53 62 64 65 66 67 68 70 71 71 69 68 66 65 63 62 60 59 61 62 63 64 64 64 63 62 61 61 61 61 61 62 61
42 38 33 32 30 31 32 35 33 33 28 28 33 33 39 45 53 60 63 64 65 66 68 70 71 71 70 69 67 66 64 64 61 60 61 62 63 63 65 64 63 62 62 62 62 62 62 61 62
45 40 37 35 32 31 34 35 34 26 26 31 35 33 34 41 52 56 61 63 64 65 67 69 70 70 70 68 67 67 66 65 63 62 62 63 63 61 63 66 64 64 63 63 63 62 63 63 64
46 42 37 36 35 34 36 35 36 35 33 35 35 37 36 42 53 54 58 63 64 65 66 68 69 69 68 67 67 67 66 65 65 63 62 62 61 60 60 62 62 62 63 63 63 64 64 63 62
47 42 38 40 38 36 36 36 37 36 36 36 36 37 42 47 52 52 54 57 62 64 66 67 68 68 68 68 67 67 67 66 65 64 62 62 60 58 57 58 60 61 62 61 62 62 58 52 50
46 41 42 42 43 43 41 40 39 38 38 37 35 36 39 47 51 52 53 56 60 63 65 66 67 67 67 67 66 66 66 65 65 63 62 61 60 59 59 58 58 59 59 59 52 45 44 41 41
40 43 45 45 45 45 44 44 44 40 38 37 40 38 39 39 49 51 52 53 56 61 63 65 66 66 66 66 65 65 65 64 64 63 62 60 60 57 57 58 59 54 45 44 42 39 36 35 35
41 42 43 43 43 43 45 44 45 44 44 43 43 42 40 39 39 45 50 51 52 54 59 63 65 65 65 65 64 64 64 63 63 62 62 61 59 58 57 46 44 42 40 37 34 33 30 29 29
40 40 40 41 40 42 41 41 42 42 44 43 42 41 41 40 39 39 39 39 40 44 50 60 64 64 64 64 63 63 63 63 62 61 61 60 60 52 45 42 40 37 34 31 31 28 26 25 26
42 39 40 40 40 39 41 38 39 41 42 43 43 42 42 41 40 39 39 39 39 39 39 55 62 63 63 63 63 62 62 62 61 60 60 57 47 44 43 38 34 32 29 26 27 28 25 22 22
38 38 34 36 38 39 39 31 36 38 39 41 42 42 42 42 41 40 39 38 38 39 46 54 60 62 62 63 63 61 60 54 51 50 46 43 41 40 37 33 30 28 26 25 25 27 24 21 21
35 31 32 33 36 37 40 36 39 40 40 40 41 41 41 40 40 39 39 39 41 44 48 55 59 61 62 62 58 50 49 45 44 42 40 37 35 35 32 29 27 26 24 23 23 23 28 22 20
29 31 33 32 34 35 35 36 38 38 38 38 40 40 40 40 39 40 39 41 44 47 50 56 60 61 56 49 45 42 41 39 38 36 33 30 30 30 28 26 25 24 22 20 20 20 23 28 24
33 33 32 33 35 34 33 33 33 35 36 37 38 40 41 41 40 38 39 42 44 48 50 57 59 53 49 46 45 42 39 35 31 29 28 27 26 27 26 25 23 23 21 20 20 21 18 21 26
32 30 30 30 32 32 31 30 31 31 33 36 39 40 41 41 39 39 40 42 45 48 49 57 55 50 49 47 44 41 35 30 28 27 25 25 24 25 25 23 21 20 19 18 19 17 15 18 24
31 30 29 28 29 30 29 23 19 20 24 28 31 33 36 41 40 39 39 42 46 48 50 54 51 48 45 41 38 31 27 25 23 23 24 24 23 23 23 22 20 20 20 18 18 18 16 14 17
28 30 31 31 30 24 26 16 19 22 24 21 24 30 37 41 40 39 39 43 46 49 52 51 49 46 42 39 38 34 31 25 23 22 22 22 22 22 21 20 19 19 18 16 17 17 17 17 14
28 30 31 32 31 30 28 26 23 25 25 26 30 34 35 40 39 39 40 42 48 52 52 49 47 44 41 39 38 35 31 27 23 21 19 18 19 19 18 17 17 17 17 16 14 14 13 16 15
32 31 31 31 30 23 24 25 18 18 19 21 23 28 35 39 39 40 42 48 50 51 50 47 45 42 40 39 36 35 29 22 20 19 18 17 18 17 16 15 15 14 15 14 14 14 13 13 14
32 31 23 22 22 18 22 23 21 20 22 24 25 29 35 39 39 41 45 48 50 50 48 46 44 41 39 37 36 33 26 21 19 19 18 16 15 14 13 12 11 12 13 13 13 13 13 14 13
30 28 23 16 16 18 23 20 21 26 26 26 25 29 35 37 39 43 46 48 49 49 47 46 44 40 38 36 34 29 25 23 21 21 18 15 13 13 12 11 10 11 12 12 13 14 14 14 15
31 27 28 25 25 23 21 24 25 29 28 31 30 29 30 35 40 43 47 49 48 48 46 44 42 39 37 33 29 26 24 22 20 17 14 14 12 11 10 10 10 12 13 13 13 14 14 15 15
32 33 26 26 17 15 17 17 18 23 29 31 32 33 35 36 40 44 47 46 46 45 42 41 39 36 31 27 24 22 19 17 14 13 12 10 9 9 9 11 12 12 13 14 14 14 15 15 15
30 29 30 28 27 17 12 11 22 29 32 32 34 33 35 38 41 45 45 43 40 39 38 35 32 29 24 21 17 15 14 12 10 9 9 8 9 9 11 12 12 13 14 14 13 13 14 15 16
28 27 27 21 19 23 19 15 28 33 31 33 37 36 37 39 43 43 41 39 38 36 33 31 26 23 19 15 13 12 10 9 8 8 8 9 9 11 12 13 13 13 14 14 13 13 15 16 17

GFSSGP_sfc_30mbdewp_021.txt.gz
Dewpoint
59 55 42 37 31 29 25 25 30 28 30 32 31 32 33 35 37 35 58 62 62 64 68 69 70 70 68 66 65 63 62 62 61 63 64 61 58 55 57 58 57 57 56 57 59 59 60 61 61
56 48 40 36 28 25 25 26 27 29 30 28 33 37 35 38 49 51 57 61 64 66 68 68 71 70 68 66 66 63 61 61 60 65 63 58 57 54 55 57 58 58 58 57 57 57 57 57 57
50 41 36 32 30 26 25 25 27 31 31 27 33 38 38 42 51 52 57 63 66 66 69 69 72 70 68 67 66 63 61 60 60 62 59 57 57 57 56 57 59 59 58 58 58 58 59 60 60
46 42 37 31 28 30 27 24 31 32 32 30 33 35 42 46 51 54 61 66 67 68 70 70 71 70 69 68 66 64 61 59 59 58 59 57 57 59 58 58 60 60 59 59 59 59 58 59 59
44 40 33 32 30 31 32 31 32 32 31 28 30 32 39 47 55 58 64 67 66 69 69 70 71 71 69 67 66 64 62 60 59 61 60 61 62 62 63 62 62 61 60 60 60 61 61 61 62
42 39 32 29 30 33 33 34 33 31 30 28 31 36 39 47 55 62 65 66 67 68 69 70 71 70 69 68 66 64 63 61 59 61 61 62 63 64 63 63 62 62 61 61 61 62 62 62 62
41 37 33 32 30 31 32 34 32 31 32 28 34 33 38 44 54 63 64 65 67 68 68 69 69 70 69 68 67 66 64 63 61 60 61 62 63 63 65 64 63 63 62 62 62 63 63 63 63
44 39 36 34 31 30 33 35 35 31 27 31 36 33 34 41 55 62 63 63 65 67 68 68 70 70 69 68 67 67 66 65 62 62 62 63 63 61 64 65 64 64 63 63 63 64 64 64 64
46 41 37 34 34 32 36 35 37 37 34 37 36 35 38 47 54 59 61 63 63 64 66 68 69 69 69 68 67 67 66 65 64 62 62 63 62 60 60 62 62 62 63 64 63 63 61 58 53
45 41 39 40 38 36 37 37 37 37 36 37 37 37 40 48 53 54 57 59 62 63 64 67 69 69 69 67 67 66 66 65 64 63 62 61 60 58 57 58 59 60 61 61 60 52 47 46 44
45 40 41 42 42 44 43 42 40 39 38 38 37 38 39 42 50 52 54 55 59 63 64 66 68 69 68 67 66 66 66 65 65 64 62 62 60 59 59 59 59 60 58 49 44 41 40 39 39
40 43 45 44 44 44 44 45 44 42 41 40 38 42 41 42 40 50 52 54 57 61 64 66 67 68 68 67 66 66 65 65 64 64 62 61 60 58 58 60 55 46 45 40 39 36 33 31 32
42 42 43 43 42 42 43 43 43 43 45 45 45 45 44 43 41 41 47 52 53 56 61 64 66 67 67 67 66 65 65 64 64 63 62 61 59 58 53 46 43 40 37 36 33 29 26 25 26
39 40 41 41 40 40 40 40 42 40 43 44 45 44 43 42 42 41 41 40 45 51 54 61 65 66 66 66 65 65 64 64 63 63 62 61 60 53 45 41 38 34 32 32 29 25 23 22 21
42 39 38 39 39 39 40 37 39 40 41 40 41 42 42 42 43 42 42 41 40 41 42 51 61 65 65 65 64 64 64 63 62 62 61 60 52 45 41 37 34 31 28 27 28 26 23 21 20
38 38 32 35 38 39 38 29 34 36 39 40 41 41 42 41 42 42 42 41 41 40 40 41 55 63 64 64 64 63 63 62 60 59 54 48 45 42 37 32 29 28 27 25 24 26 25 21 20
36 30 34 33 36 37 39 36 38 41 39 39 40 41 42 43 43 42 42 41 40 40 41 46 56 62 63 63 62 61 59 55 52 47 43 42 40 36 32 29 28 25 24 24 22 22 26 20 19
28 31 32 30 33 35 34 34 35 35 36 36 36 38 40 40 41 41 41 41 40 42 46 50 57 61 62 59 54 51 47 44 43 40 37 36 34 30 28 27 25 23 22 20 21 19 23 22 21
33 32 32 33 34 32 31 31 31 32 33 33 34 35 36 39 41 41 42 41 41 45 49 54 59 61 56 53 51 48 45 39 35 32 31 30 29 28 27 25 24 23 20 20 18 21 18 20 22
33 32 31 31 31 30 30 29 29 30 30 30 31 32 35 37 40 41 41 41 42 45 49 57 59 55 54 53 51 48 42 35 31 29 27 28 28 27 25 23 22 21 20 20 18 18 17 18 23
31 30 29 28 30 30 29 25 20 21 25 28 29 30 31 34 36 39 40 41 43 46 49 57 54 52 51 47 41 37 32 28 26 25 25 25 26 24 23 22 21 21 22 20 20 19 18 15 19
29 31 30 30 28 23 27 18 18 19 19 21 21 22 27 31 32 36 40 40 42 45 50 55 51 49 45 44 42 41 39 33 26 25 25 24 23 22 22 21 20 20 20 19 18 17 19 17 15
29 30 29 29 30 28 26 25 22 24 23 22 26 26 25 27 33 36 39 41 42 48 50 52 49 46 44 45 44 45 37 27 24 23 22 21 21 21 20 19 20 19 19 17 17 17 16 17 15
33 32 30 31 30 23 23 24 19 19 19 19 21 22 28 33 34 39 40 42 45 50 51 50 48 45 43 44 44 39 30 25 22 21 19 19 19 19 18 18 18 17 17 17 17 17 17 16 16
31 30 23 21 22 18 21 24 21 21 23 24 23 24 25 30 35 40 41 44 48 50 50 48 47 43 42 43 38 34 27 24 21 20 19 18 16 16 15 15 14 15 17 17 17 17 17 16 16
30 29 21 15 16 16 23 21 21 25 25 25 26 26 27 31 36 39 42 45 48 50 49 47 45 43 40 38 36 31 26 23 21 21 19 17 16 15 14 13 13 13 15 15 16 17 16 17 17
31 27 28 25 23 22 20 21 24 24 26 31 32 33 34 31 33 37 44 47 49 50 48 46 44 41 39 36 30 26 24 23 22 19 18 16 14 12 12 13 13 14 15 15 15 14 14 16 16
33 32 25 27 17 15 18 21 19 20 21 31 32 35 36 36 34 39 45 48 49 49 47 45 42 40 35 32 29 25 23 21 18 16 15 13 12 11 12 13 14 14 15 15 15 14 16 15 17
31 29 30 29 26 18 14 12 17 16 22 32 33 36 39 38 37 40 46 48 48 45 44 41 38 33 30 26 22 20 18 16 14 13 11 11 10 12 12 13 14 14 14 14 13 13 15 17 18
30 27 28 24 19 24 22 18 28 31 33 31 34 38 41 41 41 45 44 43 43 41 39 37 32 28 24 20 18 16 13 12 11 10 10 10 11 13 13 13 14 13 13 12 11 14 17 18 19

GFSSGP_sfc_30mbdewp_024.txt.gz
Dewpoint
54 49 44 40 31 29 25 19 27 29 31 33 31 33 34 35 38 35 57 60 60 62 66 68 71 70 68 66 65 64 63 62 61 62 64 62 57 56 60 58 57 58 57 58 60 60 60 61 61
52 44 42 35 27 24 22 25 24 30 31 31 31 34 34 35 44 51 54 60 60 62 66 66 70 70 68 66 65 63 63 61 63 65 62 58 56 55 56 57 59 59 57 57 57 58 57 57 57
49 42 35 31 28 24 23 26 23 31 31 27 33 38 36 40 49 50 56 60 61 63 65 66 71 70 68 67 65 63 62 60 64 65 59 58 57 56 56 58 59 59 58 57 58 58 59 60 60
44 40 36 29 25 27 28 25 31 31 31 31 31 34 40 46 49 53 57 62 61 63 65 70 71 70 69 67 65 63 61 60 63 60 58 58 58 58 58 58 61 60 59 59 59 60 59 60 60
44 38 29 28 26 27 30 31 31 31 31 30 29 32 36 47 52 55 60 62 60 63 64 68 71 70 69 67 66 63 61 60 59 60 59 61 62 62 61 61 62 61 60 60 60 62 61 62 62
38 35 26 23 24 29 30 31 31 30 30 30 28 30 35 48 53 58 61 61 62 63 65 65 70 70 69 68 66 64 62 60 61 61 61 62 63 65 63 63 62 62 61 61 62 62 63 62 62
34 31 23 24 24 26 30 31 31 29 29 30 32 30 36 44 56 60 61 61 62 62 64 64 68 69 69 68 67 65 63 62 61 62 61 63 62 66 65 64 63 62 62 63 63 63 63 64 65
39 33 26 28 24 25 30 32 32 32 29 33 34 30 33 41 57 60 60 61 62 63 64 64 66 67 66 67 67 66 65 64 62 62 62 64 61 61 65 64 64 64 64 64 64 65 65 63 59
46 32 27 27 27 26 34 31 34 37 35 36 35 35 39 45 56 58 59 60 61 62 63 64 63 64 66 65 66 66 66 65 63 61 63 62 59 58 59 62 62 62 63 63 63 60 58 55 53
40 33 29 31 32 31 32 35 35 35 34 34 36 37 40 47 52 55 56 56 58 60 61 63 64 64 65 65 64 63 62 62 59 58 58 56 56 55 56 58 59 61 61 59 54 50 46 46 47
39 35 33 38 38 39 38 39 39 35 33 34 34 36 40 41 44 48 52 53 56 58 60 63 64 65 65 65 64 63 62 61 60 60 59 57 55 55 56 58 58 60 57 52 44 44 43 42 41
38 38 39 38 41 43 40 40 40 38 34 34 40 40 42 42 42 42 47 50 52 57 60 62 65 66 66 65 64 62 61 61 60 60 57 55 56 57 57 58 57 52 46 42 42 40 37 33 31
38 35 39 39 42 40 39 38 38 37 38 40 41 42 43 42 42 43 42 46 51 54 57 62 64 66 66 65 64 62 61 62 61 60 58 57 57 57 58 53 48 42 40 39 38 35 30 26 24
37 39 39 39 38 38 37 35 35 36 37 36 37 37 37 39 40 41 42 42 42 49 52 58 63 65 66 65 64 63 61 61 61 59 59 59 58 57 50 45 39 35 34 32 30 26 23 21 20
41 38 36 36 36 36 37 34 34 35 36 34 34 34 36 37 37 41 42 42 42 41 43 50 58 62 64 64 64 63 61 62 61 59 60 60 59 49 45 40 35 31 29 27 27 24 22 21 20
36 36 32 33 36 37 36 26 29 33 34 35 35 35 34 35 36 35 38 40 42 42 42 42 46 56 61 63 64 63 61 62 61 60 60 60 51 45 41 37 32 28 27 25 25 25 24 22 21
33 27 30 31 33 33 35 31 34 39 37 37 36 36 37 38 40 39 37 38 41 41 42 42 44 47 55 60 63 62 61 62 61 60 57 52 45 41 36 32 28 26 26 25 21 23 22 20 20
25 29 28 27 29 33 31 31 32 34 33 33 34 35 36 37 39 40 40 40 40 40 42 42 44 49 55 59 62 62 62 61 57 52 48 44 40 35 31 29 25 25 25 23 22 20 21 20 19
30 29 29 29 31 31 29 28 28 29 30 30 30 30 31 33 35 37 40 41 42 42 43 44 46 51 57 59 62 60 56 54 51 44 42 40 34 30 29 27 25 25 24 21 18 19 19 20 19
30 29 28 29 29 30 28 26 27 28 27 27 26 26 25 26 30 31 36 39 40 41 43 45 49 54 57 59 58 58 56 51 47 39 34 35 30 28 27 27 25 24 23 21 19 19 19 18 19
29 28 28 28 29 29 28 24 20 20 21 23 25 26 26 26 26 27 30 36 39 41 43 47 52 56 57 56 58 53 45 39 36 34 29 29 28 26 26 26 24 24 23 22 21 20 18 17 19
27 28 28 28 27 23 26 20 20 20 21 21 21 22 23 24 26 26 27 31 35 40 45 49 55 56 56 57 50 47 47 44 40 32 29 29 27 25 24 24 23 22 21 21 19 18 17 15 16
28 29 28 28 27 26 25 25 19 22 21 22 22 22 22 24 25 26 29 30 32 40 46 51 55 55 54 52 51 51 49 45 33 28 25 25 24 23 22 22 21 20 19 19 18 18 16 16 13
32 30 29 28 28 24 23 25 18 18 18 19 20 21 21 21 26 28 29 32 34 40 49 52 54 53 52 52 51 52 47 36 28 24 23 23 23 22 21 20 20 19 18 18 18 18 18 16 15
32 30 21 21 22 16 18 21 20 18 20 20 19 19 23 25 25 28 32 35 39 41 49 51 52 52 51 52 51 50 42 34 30 24 22 21 21 20 19 18 17 17 19 18 18 18 18 17 16
29 27 20 13 11 11 20 18 16 18 21 21 24 26 33 34 36 31 32 38 41 45 49 50 50 50 50 51 48 42 38 34 30 25 24 22 21 20 18 16 15 15 15 16 17 17 17 17 16
30 28 28 25 22 20 16 16 18 18 19 21 23 31 34 36 38 36 33 37 41 46 48 49 49 48 49 48 40 32 31 29 27 25 23 22 20 17 15 15 14 15 15 15 15 14 14 15 16
31 30 25 27 16 13 12 12 13 15 17 22 26 29 34 37 37 37 35 37 42 46 49 49 48 47 47 43 34 29 28 27 25 21 20 19 16 14 15 14 14 14 14 15 15 14 14 14 15
31 29 30 27 26 15 11 9 13 15 16 19 26 32 36 38 38 40 37 42 46 48 49 48 47 45 42 37 31 29 26 22 21 19 18 17 14 14 14 13 13 13 13 13 12 12 14 15 17
25 26 27 24 22 26 24 21 18 21 27 31 28 32 36 39 40 42 43 46 48 48 48 46 44 41 38 32 28 23 21 19 19 16 15 14 13 13 12 12 12 13 12 11 10 12 15 17 18

GFSSGP_sfc_30mbdewp_027.txt.gz
Dewpoint
57 46 42 39 31 29 24 24 21 25 25 28 31 31 32 35 36 36 55 58 57 62 68 69 71 70 68 66 64 64 63 62 61 64 65 61 60 60 60 58 58 57 56 59 60 60 60 61 61
50 42 40 34 29 24 24 24 22 20 29 31 30 30 32 34 41 52 54 58 57 63 66 67 71 70 68 66 65 64 62 62 63 64 62 59 56 57 58 59 59 57 57 57 59 59 58 58 59
50 41 35 32 28 23 22 25 24 26 30 30 30 34 35 38 46 50 55 58 58 62 64 66 71 69 68 66 65 64 62 63 65 63 59 57 56 57 58 59 60 58 58 58 58 59 59 60 60
43 39 33 29 26 25 24 25 25 27 28 31 32 32 38 45 47 51 56 57 57 61 63 70 70 69 68 67 65 63 61 61 66 61 59 58 57 57 58 60 61 59 59 59 60 61 61 61 61
43 35 30 26 24 23 26 27 28 27 28 30 31 31 36 47 51 55 57 56 57 60 65 68 70 70 69 67 65 63 61 61 62 60 59 60 60 60 60 60 62 60 60 60 61 62 62 62 62
37 33 27 22 23 24 24 28 28 28 27 28 30 31 36 49 51 56 58 56 57 60 63 67 70 69 69 67 66 63 61 60 61 61 61 63 63 64 63 63 62 61 61 62 62 63 63 63 63
36 31 25 23 21 21 23 29 28 28 27 27 29 30 37 44 54 56 57 57 57 60 61 65 68 69 69 68 67 65 63 62 62 61 61 64 63 65 64 63 63 62 62 63 64 64 64 65 64
37 32 27 25 21 20 23 27 29 28 28 31 31 28 32 43 55 56 56 57 57 59 60 62 66 68 67 66 67 66 65 63 63 63 64 63 60 65 65 64 63 64 64 64 64 65 64 61 57
43 34 27 27 22 23 24 27 30 31 30 31 31 32 39 44 55 55 56 57 57 58 59 59 63 65 65 65 65 66 65 64 63 62 63 62 59 60 62 62 63 63 64 63 61 59 58 55 52
40 32 27 25 24 25 27 30 30 31 31 29 33 36 39 44 50 53 54 55 56 58 59 60 60 62 64 64 65 63 62 61 57 56 60 58 56 57 56 59 60 62 62 58 54 49 47 49 48
37 33 28 27 34 35 32 30 34 33 31 29 30 34 37 40 45 48 51 51 54 56 58 60 61 61 64 63 64 61 61 60 57 55 54 53 54 55 56 58 58 60 59 53 49 47 45 44 42
34 34 33 32 35 38 36 35 33 34 34 32 32 36 38 39 40 41 44 48 50 53 57 59 61 62 63 64 63 60 58 58 58 57 56 53 52 53 53 55 58 55 51 47 46 44 40 38 33
35 35 32 35 37 38 39 36 35 35 37 36 36 37 40 40 39 40 41 43 47 50 55 58 60 63 63 63 62 60 58 58 58 58 55 52 52 54 54 56 53 49 45 44 43 40 36 30 25
35 35 34 36 35 36 35 34 33 33 34 34 35 35 36 37 39 39 41 41 42 48 51 56 59 63 63 62 61 60 59 58 60 58 56 54 55 55 56 53 47 41 38 37 36 31 27 24 24
39 37 36 36 36 36 36 34 33 34 33 31 31 31 32 33 34 35 38 40 41 41 46 50 57 60 62 62 62 60 60 59 61 59 56 56 57 56 52 46 39 35 33 33 31 27 27 26 24
36 35 32 31 33 33 34 28 26 30 31 32 32 32 31 31 31 33 35 38 41 42 41 42 51 57 61 61 62 61 60 59 61 59 57 57 58 53 48 44 37 32 30 30 28 28 27 25 23
34 29 29 29 32 32 34 31 30 34 35 31 31 32 33 32 33 32 33 35 37 41 42 42 43 49 54 58 60 60 60 60 61 59 58 59 55 50 45 39 33 30 30 29 25 26 24 23 23
27 28 28 26 27 30 30 29 30 30 32 33 33 33 33 34 35 36 36 37 35 36 40 42 43 44 47 54 58 59 60 61 61 60 60 57 49 42 38 34 32 31 30 27 26 24 24 23 22
28 27 26 27 28 28 27 27 27 28 27 28 29 30 31 31 33 35 36 39 38 37 39 40 41 44 46 51 56 59 60 62 61 60 55 50 44 39 34 32 31 30 29 27 24 24 24 24 22
29 28 27 27 27 27 26 25 26 26 26 26 26 27 28 29 29 29 32 35 38 39 40 41 41 44 48 54 58 60 62 60 59 54 49 43 40 35 33 32 30 29 28 25 24 25 24 23 22
29 28 26 26 26 26 26 23 20 21 22 23 26 27 27 26 25 25 26 29 35 38 39 41 42 45 51 55 59 60 53 49 47 47 43 39 35 32 31 31 29 29 29 28 26 26 23 22 22
27 27 27 26 26 23 25 20 19 18 18 20 21 21 22 24 25 25 26 26 29 35 41 43 44 47 54 57 58 57 51 48 45 42 39 34 30 29 29 29 29 28 27 26 24 23 22 19 21
27 29 28 27 26 26 24 24 20 19 19 20 21 21 22 23 24 24 24 27 29 31 40 45 46 50 55 57 58 57 50 51 44 40 35 29 29 28 28 28 27 26 26 23 22 22 20 18 16
32 28 28 27 26 22 20 18 15 14 13 14 18 21 21 19 20 22 27 27 29 32 39 47 48 53 55 56 56 52 52 48 39 35 31 28 29 28 27 26 26 24 24 23 22 21 21 18 17
30 28 21 22 23 17 16 18 17 15 17 18 19 19 20 22 28 30 26 28 30 33 36 47 50 53 55 56 52 52 53 44 39 34 31 29 26 26 26 25 23 23 24 22 21 21 20 19 18
29 27 19 13 12 13 16 14 16 16 17 19 20 20 21 22 32 37 38 32 31 36 38 46 50 53 53 53 53 54 47 43 37 33 30 29 27 26 26 23 21 21 20 19 20 20 19 19 19
28 27 27 23 21 18 15 15 16 16 16 16 16 20 22 28 34 36 39 37 31 37 41 46 50 52 52 53 53 52 45 38 34 30 27 25 26 25 22 20 19 18 18 17 17 16 16 16 17
29 30 25 27 17 13 13 12 13 13 13 14 16 17 23 30 34 37 39 37 33 37 42 47 49 50 51 52 52 45 38 33 30 29 28 26 23 21 20 19 18 17 16 16 16 16 16 15 16
29 28 28 24 28 17 15 14 15 16 18 16 19 26 29 34 35 37 40 38 38 38 44 46 48 49 50 48 42 37 32 31 29 25 24 22 19 19 18 18 17 15 15 14 14 13 14 15 17
24 27 26 25 20 25 25 21 21 19 20 21 21 26 30 31 34 36 41 43 44 44 47 47 48 48 48 39 34 32 31 26 25 22 20 19 18 17 16 15 14 14 13 12 11 12 14 16 17

GFSSGP_sfc_30mbdewp_030.txt.gz
Dewpoint
61 53 46 42 36 32 29 28 24 24 24 26 31 30 29 32 41 46 57 57 66 68 70 70 70 69 68 65 64 64 63 63 63 66 66 64 62 61 59 59 58 57 59 61 60 60 60 60 60
58 50 42 39 33 29 27 29 24 21 25 31 30 30 29 34 51 53 57 57 64 68 69 70 70 69 67 65 65 64 62 62 64 64 60 58 58 58 59 59 57 57 58 59 60 59 60 60 60
56 49 38 35 32 28 26 26 25 24 29 29 28 29 30 42 49 53 57 57 64 67 67 70 71 69 67 66 65 63 63 65 65 63 60 57 57 59 60 61 58 58 58 58 59 59 60 60 60
47 42 37 30 28 29 28 27 26 26 27 29 31 31 39 47 48 55 57 57 61 65 67 71 70 69 68 66 64 64 62 65 64 63 60 58 58 58 60 62 59 59 60 60 61 61 62 62 62
45 41 33 28 27 28 28 26 27 28 27 29 32 30 42 49 54 56 56 57 60 67 69 70 69 69 68 66 65 62 61 66 62 59 59 59 60 60 60 63 61 60 60 61 62 62 63 63 63
41 37 31 29 28 27 26 24 28 28 28 28 28 30 45 50 54 56 56 57 61 68 68 69 70 69 68 67 65 63 62 64 63 61 62 63 63 63 63 63 62 61 61 62 63 64 63 64 64
39 36 31 27 26 24 23 25 27 27 27 27 28 29 44 51 56 57 56 56 59 66 68 68 69 69 69 67 66 64 63 63 63 63 64 63 65 65 64 63 63 62 63 64 64 65 64 65 62
38 37 34 30 26 24 24 23 28 28 28 29 31 28 40 54 55 56 56 56 58 61 66 66 68 68 68 68 66 65 64 64 64 63 65 61 66 65 65 64 63 63 64 64 65 65 63 61 56
41 37 32 31 28 27 25 23 29 30 30 30 31 31 41 53 55 55 56 57 57 60 61 66 67 68 67 66 66 66 65 63 64 64 64 61 62 64 64 64 64 64 64 64 62 61 59 56 52
41 39 36 33 28 28 27 25 28 29 29 31 31 38 42 45 54 55 55 56 56 58 59 63 67 67 66 65 66 65 64 63 62 61 62 62 60 62 62 62 63 64 63 60 57 51 50 52 51
38 36 33 31 29 34 35 34 31 32 30 32 29 33 38 43 47 52 54 55 56 58 58 59 63 64 64 64 64 63 63 61 58 57 61 59 57 58 59 59 61 62 58 53 51 47 46 42 39
35 35 35 34 33 36 36 36 35 33 33 35 35 34 38 39 42 45 48 51 54 57 58 60 60 63 64 64 64 62 62 61 58 55 57 55 56 56 56 59 59 60 58 48 47 44 40 37 29
34 35 33 34 34 35 37 37 38 37 36 35 36 36 36 39 40 40 42 45 48 54 57 59 61 62 64 63 63 63 60 60 59 58 56 54 54 54 55 58 53 49 47 46 44 39 34 27 25
33 34 35 34 33 35 34 36 37 35 35 35 36 36 35 36 39 40 40 41 42 47 56 59 60 62 64 64 63 62 60 59 59 59 57 53 54 54 56 51 47 43 41 38 34 28 26 27 26
37 37 37 36 35 35 35 34 34 35 35 33 32 33 34 35 36 36 39 40 42 42 51 56 59 62 62 64 63 62 60 59 60 60 57 55 56 56 53 47 43 39 37 35 31 29 29 27 26
37 37 35 33 35 35 35 31 32 33 34 34 33 32 31 32 34 35 34 37 39 42 43 52 58 61 62 62 63 61 61 60 61 60 57 56 58 53 48 44 39 34 33 32 30 28 29 26 26
34 32 31 31 33 31 33 32 33 33 33 34 33 32 32 32 32 32 32 33 36 39 42 44 54 59 60 62 62 62 61 60 61 61 57 57 55 51 47 41 36 32 32 31 28 26 26 25 25
31 31 31 29 31 31 30 31 31 31 30 30 34 34 34 34 33 33 33 32 35 37 41 43 45 54 59 61 61 61 60 61 61 60 59 57 53 49 43 37 33 34 32 29 28 26 26 25 24
34 29 26 27 27 27 27 27 27 28 28 28 29 31 32 32 34 35 36 37 38 37 37 39 44 44 48 53 58 59 59 61 61 60 59 53 46 41 38 35 34 32 31 30 26 26 27 24 24
29 28 27 28 27 26 26 26 26 27 27 27 27 27 28 29 31 32 33 36 37 38 39 37 42 44 45 47 55 59 62 62 61 59 54 48 43 38 35 33 32 32 28 25 26 27 25 24 23
29 28 28 26 27 27 25 24 23 24 25 26 27 27 27 27 27 29 30 31 34 37 39 40 40 42 45 47 56 59 58 54 53 52 48 44 41 36 34 33 32 30 30 28 28 26 25 24 23
28 28 28 27 26 23 26 22 22 21 20 20 21 22 26 27 28 28 28 28 29 32 38 40 42 42 46 51 58 58 58 56 51 48 45 40 35 33 33 32 31 32 31 28 26 26 23 23 22
27 30 28 27 26 25 25 24 23 20 19 19 20 21 23 23 24 25 26 27 28 29 36 40 41 44 47 53 59 58 55 52 46 42 37 34 33 32 31 31 30 29 30 24 23 22 21 19 20
31 28 28 28 27 22 24 23 17 13 15 17 18 21 23 22 22 25 29 30 30 31 31 37 44 44 51 55 59 56 53 47 44 40 34 32 34 33 30 30 29 28 26 25 24 23 21 19 18
31 27 23 23 22 17 17 21 17 15 17 19 18 19 21 22 22 29 36 38 36 30 33 35 46 46 53 57 58 54 52 46 42 39 34 33 34 31 29 28 26 26 26 25 24 24 21 21 20
29 27 22 16 18 18 19 17 16 18 19 18 19 19 21 21 25 35 37 39 40 38 34 35 46 48 55 57 57 52 52 44 40 38 34 33 33 32 29 27 26 25 23 23 23 23 21 21 21
28 27 27 24 21 19 16 14 15 17 18 18 18 17 20 21 27 34 38 40 40 39 36 36 46 49 55 56 53 52 46 41 38 37 35 35 33 29 27 25 23 22 21 21 21 20 18 17 19
28 29 25 26 17 15 14 14 14 16 16 18 16 18 21 24 34 36 37 40 41 38 38 40 48 51 54 54 53 46 42 38 36 35 34 31 28 25 23 22 21 19 19 18 18 17 16 16 18
28 27 28 26 26 20 15 15 18 19 20 20 20 24 30 33 35 35 37 41 43 41 40 43 48 51 53 53 47 40 37 34 32 32 29 27 26 23 21 20 19 18 17 16 16 15 16 16 17
28 27 26 22 20 23 22 20 22 22 22 20 21 23 28 32 33 34 37 41 43 45 45 46 48 51 51 41 36 34 32 31 30 27 24 25 25 20 19 18 17 16 15 13 13 13 13 16 17

GFSSGP_sfc_30mbdewp_033.txt.gz
Dewpoint
61 58 53 46 35 35 31 31 34 26 24 30 30 29 28 35 39 42 58 66 69 70 71 70 70 69 67 66 65 64 63 65 66 66 65 64 62 60 58 57 57 61 62 62 62 62 62 61 60
60 54 45 39 34 31 30 31 30 27 30 29 29 27 28 47 52 56 62 68 69 70 70 70 70 69 66 65 64 64 63 63 67 66 63 61 60 59 57 57 57 58 61 61 60 60 61 61 60
59 54 41 37 33 30 30 29 28 27 29 29 28 30 30 47 53 56 60 68 69 69 70 70 70 68 66 65 64 62 62 66 64 62 60 59 59 61 60 58 58 58 59 59 59 60 60 60 61
51 44 39 32 30 31 29 27 28 26 27 29 30 30 44 52 53 57 59 68 68 68 70 71 70 68 67 66 64 65 65 66 64 62 60 60 61 62 62 59 60 60 61 61 61 62 62 62 62
49 43 35 31 28 29 30 30 28 27 27 28 31 30 46 54 56 57 60 67 67 68 70 70 70 69 68 67 65 64 66 65 63 61 59 59 59 60 63 61 60 61 61 62 63 63 63 63 63
42 40 34 32 31 30 28 28 27 28 28 28 29 30 47 54 55 56 57 65 67 68 69 70 70 69 68 66 65 64 66 64 63 62 61 61 62 61 63 62 61 61 62 63 64 64 64 64 65
40 36 32 31 30 29 30 30 27 28 27 27 28 29 48 53 56 56 57 67 67 68 68 69 69 69 68 67 65 64 66 65 63 64 64 64 64 64 64 63 61 62 63 64 64 64 65 64 62
39 38 35 33 29 28 28 26 27 28 28 30 31 34 50 54 56 56 56 67 67 67 68 68 69 68 68 67 65 64 65 65 65 65 64 63 66 66 65 64 63 63 64 65 65 65 63 60 56
40 36 34 35 34 32 31 28 28 30 29 31 32 41 50 55 56 56 55 59 65 67 67 68 68 68 67 66 65 65 64 64 64 65 62 64 65 65 65 64 65 65 65 64 63 63 61 55 51
38 37 37 36 34 32 31 34 31 28 29 29 32 41 49 54 55 55 55 56 60 64 66 67 67 67 67 66 66 65 64 64 64 64 62 60 64 64 64 64 64 65 64 62 59 56 55 53 50
38 38 39 39 36 34 36 35 36 32 29 29 29 39 43 51 54 55 56 56 58 60 65 67 67 67 66 65 65 64 64 62 62 62 62 61 60 62 62 62 64 63 60 58 54 49 46 39 36
36 37 37 36 36 35 35 38 37 37 34 37 35 36 37 42 51 54 55 56 56 59 59 66 67 67 65 65 64 63 63 61 59 59 61 59 58 60 59 59 61 60 57 51 48 46 39 30 27
36 36 36 36 35 35 36 36 37 37 38 38 37 37 36 37 42 46 49 52 56 57 58 60 65 65 64 64 63 63 62 62 58 56 58 57 57 57 57 58 59 57 53 47 45 37 29 26 24
33 35 36 36 36 36 34 34 35 37 38 36 34 34 35 36 37 40 40 41 46 56 58 60 61 64 64 64 63 62 62 62 60 57 56 55 56 55 56 55 53 47 43 38 33 28 27 27 25
37 35 37 37 37 36 36 34 34 35 36 35 35 34 33 34 35 36 39 40 41 44 57 60 61 64 63 63 62 62 62 61 60 58 57 54 54 55 52 49 46 42 39 33 28 29 28 27 25
35 36 34 35 34 36 35 30 34 35 36 35 35 35 34 33 33 35 35 36 37 40 50 59 60 63 63 63 63 62 62 60 61 59 57 54 56 53 49 46 43 39 36 32 30 30 28 26 25
35 32 33 34 34 34 35 33 34 35 34 33 34 35 34 34 33 33 34 35 35 37 40 56 59 62 63 64 64 63 62 60 61 59 57 57 54 50 47 44 40 34 33 31 28 26 26 24 23
31 32 32 31 31 32 32 33 33 33 32 31 31 32 34 33 33 33 33 34 34 34 38 42 57 60 62 62 63 63 62 60 60 60 57 57 53 49 46 41 36 33 32 29 27 25 26 24 23
34 33 30 29 29 26 27 27 27 28 28 28 28 29 30 32 35 35 35 34 33 33 35 39 48 59 61 62 62 62 61 60 60 60 58 55 52 47 43 39 34 34 29 27 26 27 25 22 23
35 30 28 28 28 27 26 26 27 27 27 27 27 28 29 30 31 32 33 33 36 36 37 37 41 54 59 61 61 62 61 61 61 60 56 52 48 44 42 38 34 32 29 27 26 25 25 24 22
29 29 28 28 28 27 26 22 23 25 26 27 27 27 28 28 28 29 30 32 32 34 37 38 39 42 51 57 60 60 59 57 58 55 51 47 44 42 39 35 34 30 28 26 26 27 26 24 22
28 29 28 28 26 23 26 20 24 20 21 21 24 26 27 27 28 28 28 28 29 31 35 38 39 41 44 47 58 60 59 59 57 53 49 45 42 38 36 34 31 30 29 28 27 26 25 25 21
29 29 28 28 26 25 24 21 21 24 19 20 20 20 24 27 27 27 28 28 29 29 29 35 39 40 43 46 56 59 59 57 52 48 46 45 40 37 36 34 32 30 30 27 25 23 21 23 22
30 28 27 28 26 20 22 21 18 17 17 17 18 19 20 23 25 26 28 32 32 33 31 33 38 40 43 47 57 57 57 51 48 46 42 41 39 38 36 34 32 31 27 24 24 22 19 18 18
30 25 21 20 21 14 21 23 20 17 17 18 19 19 20 22 23 32 36 37 39 40 40 37 36 38 43 50 58 57 54 50 48 45 40 39 37 36 33 33 31 29 27 26 25 22 20 20 20
29 25 19 11 18 20 21 19 19 21 21 20 18 19 19 20 25 35 37 39 39 39 40 40 38 39 43 56 57 55 51 49 46 43 39 39 36 34 33 32 30 29 26 25 24 23 22 21 21
30 26 27 24 22 19 18 16 15 15 17 18 18 19 20 20 28 36 38 39 39 40 41 41 38 41 49 57 55 53 48 47 45 40 38 38 36 33 32 31 30 28 25 24 23 21 19 19 21
27 29 24 25 13 11 16 15 13 16 19 20 20 25 31 31 35 36 38 38 38 41 43 42 39 41 52 56 53 48 46 44 40 37 36 35 33 31 29 29 28 26 22 22 21 19 18 17 19
27 26 26 25 24 18 18 15 18 19 21 21 22 24 26 32 34 35 37 39 40 41 44 46 44 47 54 53 49 45 41 39 38 37 36 34 31 29 28 28 28 24 19 18 18 18 17 16 17
28 27 26 22 16 24 22 19 21 22 23 24 25 29 35 31 31 35 37 40 40 40 45 49 46 51 53 45 42 39 38 37 36 35 33 30 28 27 27 24 21 18 17 16 15 14 15 15 17

GFSSGP_sfc_30mbdewp_036.txt.gz
Dewpoint
60 56 53 42 33 35 31 31 35 31 27 30 30 29 31 40 38 38 59 66 69 70 70 70 69 69 68 68 68 68 68 68 68 66 64 63 61 59 57 59 62 62 63 64 65 65 64 62 61
60 52 43 39 34 28 27 32 29 30 30 30 29 28 31 45 53 60 63 68 69 70 70 69 69 69 67 66 64 64 66 66 66 66 65 62 61 58 57 58 61 62 62 62 62 62 62 61 60
57 53 40 36 34 28 26 31 29 28 29 28 27 30 40 46 53 60 65 69 69 69 69 69 70 68 66 65 65 63 64 67 67 65 63 61 60 58 57 58 59 61 60 60 60 60 60 61 62
50 46 40 34 33 32 31 30 29 29 28 28 31 32 47 52 55 58 68 69 69 69 69 70 70 68 67 66 64 63 66 66 64 63 62 60 61 60 59 59 59 59 60 60 61 61 61 61 61
49 41 35 33 31 32 32 32 31 30 28 28 31 32 45 54 56 66 68 68 68 69 70 70 69 68 67 65 65 66 67 63 61 60 60 61 62 62 60 60 61 61 62 62 63 63 63 63 63
43 41 35 27 29 31 30 30 28 27 28 28 30 40 47 55 57 65 68 68 68 69 69 69 69 69 68 66 67 68 68 65 62 62 61 61 62 63 62 60 61 62 63 63 64 64 64 64 64
41 38 35 32 31 31 31 31 28 27 27 27 28 36 50 54 56 61 67 67 68 69 69 69 69 69 68 67 66 67 67 65 63 63 63 63 63 63 64 62 61 62 63 64 64 64 65 64 62
38 38 35 32 30 29 31 29 27 28 27 30 31 43 49 53 56 60 66 67 68 68 68 69 69 68 67 66 65 67 66 64 65 65 65 64 64 65 65 64 63 63 64 65 65 65 63 60 56
40 36 34 33 31 29 32 31 32 30 29 31 33 47 51 55 57 61 66 66 67 67 68 69 68 67 67 66 65 66 67 66 66 65 62 64 65 66 65 64 64 65 65 65 64 64 60 55 51
39 36 36 36 36 34 33 34 35 30 29 30 39 48 55 56 56 56 64 65 66 66 67 68 68 67 66 65 65 64 65 64 65 64 61 64 65 65 64 64 64 65 65 64 62 61 56 51 50
38 36 37 38 39 38 36 35 38 34 29 32 37 49 53 55 55 55 59 63 65 66 66 67 67 67 66 65 65 64 64 63 63 63 61 62 64 64 63 63 64 64 63 60 55 50 46 40 34
37 37 38 38 38 37 35 36 37 37 34 38 38 37 39 49 50 55 55 58 61 65 65 67 67 67 66 65 64 64 63 62 62 62 62 60 61 62 62 62 62 61 58 54 49 46 39 28 28
37 37 37 37 37 36 35 35 36 37 39 39 37 36 36 37 42 51 55 57 58 61 65 66 67 66 66 65 64 63 63 62 61 60 61 60 58 61 60 60 61 60 56 49 47 39 28 25 24
36 37 36 37 36 37 35 35 35 37 38 37 36 36 35 35 36 40 43 51 54 58 60 66 66 66 66 65 63 62 62 62 59 58 58 59 58 59 59 58 59 57 54 47 38 29 27 26 25
37 35 36 36 36 36 36 33 34 35 35 35 35 35 35 35 35 35 36 39 41 51 58 62 66 66 64 64 63 62 62 62 60 57 56 58 57 57 57 56 56 50 42 35 28 28 28 26 25
36 36 32 34 34 35 35 30 33 35 35 35 35 35 36 36 35 34 35 36 37 40 48 58 62 65 64 64 63 62 62 62 61 59 57 56 56 56 54 53 52 44 37 30 30 29 27 26 24
35 31 32 33 35 34 34 32 33 34 34 34 34 34 34 35 35 35 34 34 35 36 39 52 60 63 64 64 63 62 62 61 61 60 58 56 55 54 52 50 46 40 35 31 29 28 26 24 23
30 31 32 31 32 31 33 34 34 34 34 34 33 32 32 33 35 36 35 34 35 35 36 44 59 62 63 63 63 63 63 61 61 60 58 56 55 52 50 47 42 36 33 30 27 26 26 24 22
33 33 32 32 30 27 27 27 27 28 28 28 28 29 30 31 33 35 35 35 34 34 35 38 50 60 63 63 63 63 62 61 61 60 58 56 53 50 48 44 37 34 31 29 26 26 23 22 24
37 32 31 29 29 28 27 26 27 27 27 28 27 28 28 29 30 31 33 34 35 35 34 34 41 56 61 63 63 63 62 62 61 61 58 56 53 50 46 42 36 33 30 27 27 27 25 23 21
31 29 28 28 28 27 25 20 20 23 25 26 26 27 28 28 28 29 30 31 32 33 35 37 37 45 58 62 62 61 60 59 59 59 58 55 52 50 48 41 37 32 30 27 26 27 27 24 21
28 29 29 28 26 23 26 19 22 21 21 22 22 25 27 27 28 29 29 29 30 31 33 35 38 39 52 60 61 60 59 59 60 59 56 52 51 50 45 40 37 32 30 27 27 28 28 25 21
29 29 28 27 26 25 24 23 19 22 18 18 21 21 20 22 27 28 28 29 29 29 30 31 33 38 41 52 59 60 59 59 57 54 52 50 49 46 44 39 36 32 31 28 27 26 26 25 23
30 27 27 28 26 19 21 22 16 15 17 18 17 18 19 20 22 26 28 29 31 33 33 33 32 34 40 44 53 59 59 57 54 52 50 48 45 43 42 38 36 33 31 29 27 25 24 23 21
27 24 17 17 20 13 22 22 19 20 20 18 20 20 20 22 23 25 32 38 38 39 40 39 38 38 38 41 48 56 59 56 54 52 50 47 44 41 40 39 37 34 30 29 27 24 21 20 19
28 25 16 8 14 18 22 19 14 22 22 20 19 20 21 21 21 28 36 38 38 38 38 40 40 39 39 40 47 55 57 55 53 51 49 48 45 42 41 39 37 33 31 29 27 24 22 22 20
29 26 27 24 22 19 19 18 15 17 18 20 21 29 30 32 31 34 39 39 39 38 40 42 42 42 40 40 51 56 55 52 50 48 46 44 43 40 39 37 34 31 29 27 26 24 22 22 21
28 29 24 23 8 7 13 16 12 15 20 21 23 24 27 30 32 34 36 38 37 38 41 44 46 45 42 46 54 54 52 50 47 44 44 42 40 37 37 36 32 29 28 28 27 23 21 20 21
28 26 26 24 21 15 15 15 18 18 21 22 23 25 27 32 34 36 34 36 39 39 41 44 46 47 47 53 53 49 48 46 43 43 42 41 39 36 33 30 29 28 26 24 25 24 23 18 19
28 27 25 21 15 24 22 20 22 22 24 25 26 29 32 36 38 39 38 36 40 39 41 46 47 47 50 53 48 46 44 43 42 41 40 38 35 31 30 28 27 29 30 33 33 28 17 17 17

GFSSGP_sfc_30mbdewp_039.txt.gz
Dewpoint
60 56 50 41 33 35 30 29 34 31 30 29 31 29 34 35 36 34 60 67 69 70 70 71 70 69 69 70 70 70 69 68 67 66 65 62 61 58 59 63 63 65 66 67 67 66 64 63 61
59 52 42 39 31 26 24 32 29 30 31 31 30 29 39 42 53 60 63 68 69 70 70 69 70 69 69 69 69 69 69 68 67 65 64 63 61 58 59 61 60 63 64 64 64 63 62 60 59
55 50 39 36 34 26 22 30 30 29 30 29 28 33 39 43 54 61 63 69 69 69 69 69 69 69 68 67 67 67 67 67 66 65 64 62 59 58 58 61 62 61 62 62 62 62 62 61 61
49 46 39 34 31 32 30 30 30 31 31 29 30 39 48 53 55 60 68 69 69 69 69 70 69 68 67 66 65 64 66 66 66 65 63 61 59 58 58 59 61 61 60 60 60 60 61 62 61
47 41 36 34 31 33 33 32 31 30 29 28 29 35 43 54 58 67 68 69 68 69 69 70 69 67 66 66 64 65 66 67 64 62 62 61 60 59 59 60 60 60 61 61 62 62 63 63 63
43 40 34 30 29 31 31 31 29 28 28 28 29 40 46 55 64 67 68 68 69 69 69 69 69 68 67 65 65 67 67 65 63 62 61 61 62 60 60 61 61 62 62 63 63 64 64 64 64
42 39 35 30 28 28 29 32 30 30 28 27 30 40 49 55 63 68 68 68 68 69 69 69 68 68 68 66 67 68 67 64 63 63 63 63 64 64 61 61 62 62 63 64 64 64 65 64 61
41 38 34 33 29 25 31 30 28 27 29 29 37 38 45 54 62 67 67 67 68 68 69 69 68 68 68 67 68 68 67 65 63 64 64 64 64 65 64 62 62 63 64 65 64 65 63 59 53
40 37 34 31 31 30 32 32 33 32 29 30 33 45 48 55 64 66 66 67 67 67 68 69 68 68 67 66 66 67 67 65 65 65 65 64 64 65 65 63 63 64 65 65 65 64 60 54 52
38 35 35 36 35 33 33 35 36 34 31 29 38 49 55 56 63 64 65 64 64 66 66 67 68 67 66 65 64 66 66 65 65 65 63 63 64 65 65 63 64 65 66 65 64 62 56 51 38
39 35 36 38 38 39 37 36 37 35 33 31 33 44 51 55 57 63 64 65 64 65 66 66 67 67 66 64 64 64 65 64 64 64 61 64 64 64 64 63 64 65 65 62 58 53 47 39 31
37 38 38 38 38 38 36 36 36 36 35 38 39 38 37 50 54 57 63 64 65 65 66 66 67 67 66 64 64 63 63 63 63 63 61 62 63 63 62 62 63 63 61 57 50 45 36 30 27
38 37 38 38 37 37 36 35 35 36 37 39 38 37 36 36 39 48 56 60 64 65 66 66 67 66 66 65 64 63 62 62 62 62 62 60 62 62 62 61 61 61 58 53 48 40 27 25 25
38 37 37 37 36 36 35 35 35 36 38 37 37 37 36 36 35 36 47 55 59 64 65 66 67 66 66 65 64 63 62 62 61 61 62 61 59 61 61 60 60 60 56 49 45 34 27 25 24
38 35 36 36 36 36 36 34 35 36 36 35 35 35 36 36 35 35 36 41 52 58 62 65 66 66 66 65 64 63 62 62 60 60 60 60 59 59 60 60 59 58 55 46 33 28 27 26 25
36 36 33 34 36 36 35 29 32 35 35 35 35 35 35 36 36 36 35 35 38 42 55 62 66 66 66 65 65 63 62 62 61 59 57 59 59 58 58 58 57 54 46 37 30 28 27 26 24
34 31 33 33 34 34 34 32 33 34 33 33 33 33 33 34 35 36 36 35 35 37 39 54 63 65 66 65 65 63 63 62 62 60 57 56 57 57 56 56 55 49 38 31 30 28 27 24 23
31 31 31 31 31 32 32 32 34 35 35 34 35 35 35 34 34 35 36 36 36 35 36 40 57 62 65 65 64 64 63 62 62 61 59 57 56 56 55 53 51 44 36 31 30 28 26 24 23
32 32 31 32 31 29 28 27 28 28 28 28 28 29 31 31 32 32 34 35 35 35 35 36 49 59 63 64 63 63 62 62 61 61 60 57 56 54 53 51 46 41 36 32 28 26 24 23 24
37 34 33 31 30 28 27 27 27 27 27 28 28 28 28 29 30 30 31 32 34 34 35 34 40 57 61 63 63 63 62 62 61 62 60 58 56 55 52 48 44 39 35 30 27 26 24 23 24
37 33 31 29 29 27 26 23 22 23 24 25 26 28 28 28 28 28 29 30 32 32 34 35 35 44 59 62 63 61 61 60 60 60 59 57 56 54 53 49 44 38 35 30 28 27 26 24 21
31 29 29 27 27 25 27 20 23 21 22 23 23 23 26 27 28 28 29 29 30 31 32 34 36 38 48 61 62 62 61 60 60 60 60 56 55 53 53 48 43 39 35 32 30 29 28 25 22
30 29 28 27 25 24 24 22 17 20 16 18 20 21 22 21 21 24 26 29 29 30 30 31 33 37 40 52 61 61 61 60 60 60 59 55 54 53 53 49 44 41 39 38 33 29 28 27 24
30 27 26 28 24 17 20 21 12 13 17 18 19 21 21 21 22 23 26 28 29 31 30 30 30 30 34 40 53 61 60 59 57 57 56 53 52 51 50 47 45 43 41 39 35 30 29 27 25
27 24 15 11 15 10 23 22 15 19 21 22 22 22 28 30 30 27 31 37 39 39 39 39 38 37 38 38 42 53 60 58 57 56 56 53 50 49 48 46 44 43 40 37 34 32 30 26 24
27 25 13 2 9 17 22 19 14 21 22 22 29 29 29 30 32 33 37 39 39 39 39 40 40 38 38 39 40 44 54 58 57 56 55 53 52 51 48 45 43 41 37 35 33 32 30 26 22
29 25 26 22 20 19 18 18 14 20 21 22 24 25 26 28 30 33 34 35 37 38 36 40 42 42 42 41 41 45 51 56 56 55 54 52 51 48 45 44 41 38 37 34 31 29 27 25 23
28 28 23 22 9 2 11 14 9 15 17 22 23 25 27 29 32 35 36 37 37 37 38 39 43 45 45 45 44 47 53 55 55 53 51 49 46 45 44 42 40 36 32 29 29 27 26 24 25
28 27 25 24 19 12 11 9 19 18 21 24 25 28 33 38 40 40 39 39 38 38 38 40 43 46 47 47 48 51 52 51 50 48 46 44 42 41 41 40 36 31 28 27 26 27 28 29 28
28 26 26 16 16 23 21 17 23 24 24 26 28 35 38 41 40 40 41 40 38 37 40 44 46 45 48 50 50 49 47 46 45 44 43 42 41 40 38 34 29 27 28 29 29 32 32 31 30

GFSSGP_sfc_30mbdewp_042.txt.gz
Dewpoint
60 54 48 40 33 34 29 27 33 31 30 29 31 30 30 33 37 35 61 67 68 68 70 71 71 71 70 68 70 71 69 68 67 66 64 62 60 59 61 64 66 67 66 66 67 65 64 63 60
58 51 42 39 31 25 24 31 28 30 31 30 30 33 39 39 54 60 63 67 69 70 70 71 71 69 67 69 70 70 69 68 67 66 64 63 60 58 62 64 64 66 66 65 64 63 62 59 57
54 47 39 35 33 25 21 27 30 30 32 29 28 32 36 42 54 60 63 68 69 70 70 70 70 69 69 70 69 69 69 68 66 65 64 62 59 59 61 59 62 63 63 63 63 63 61 60 61
49 44 39 34 30 32 27 30 31 31 30 30 30 33 47 52 54 61 67 69 69 69 69 70 69 70 70 69 69 68 69 68 67 65 64 60 58 59 60 62 61 62 61 61 61 61 61 62 61
45 41 35 34 32 33 33 32 31 31 30 28 28 28 42 54 60 66 68 69 68 68 68 69 69 69 68 67 66 67 66 66 66 65 63 60 59 59 60 61 61 61 61 61 61 61 62 63 63
42 39 33 31 32 32 32 32 30 29 29 29 28 35 44 59 64 67 68 68 67 68 69 69 69 68 67 66 66 66 67 68 66 64 62 61 60 60 60 61 61 61 62 62 63 64 64 64 64
40 38 34 31 31 29 30 32 29 28 29 27 32 32 46 54 65 67 67 67 68 69 69 69 68 68 68 66 66 66 68 67 65 64 63 63 62 61 61 61 62 63 63 64 64 64 64 63 58
42 39 34 33 28 27 30 30 29 28 28 30 34 32 36 53 67 67 67 67 68 68 68 68 68 68 67 66 67 68 66 65 64 65 64 64 65 63 62 63 63 63 64 65 64 65 62 56 55
41 37 32 31 31 30 32 31 34 34 32 30 32 39 48 58 66 66 66 66 67 67 68 68 67 67 67 66 68 68 67 65 64 65 64 64 64 65 64 62 63 64 65 65 65 63 58 55 53
38 36 35 34 32 31 34 34 35 34 34 32 34 49 56 64 65 64 63 64 65 65 66 68 67 67 66 66 65 67 67 65 64 65 64 63 63 65 65 63 63 65 65 66 65 62 56 47 38
39 35 36 37 36 38 37 37 36 35 32 32 33 37 49 60 63 62 63 63 64 64 65 67 66 67 66 65 64 64 66 65 64 64 63 63 63 63 64 63 63 65 65 63 61 54 44 38 30
37 39 36 36 38 38 37 36 35 36 35 36 39 39 37 47 56 62 63 63 64 65 64 64 65 66 66 65 64 63 65 64 64 63 62 62 63 63 63 62 62 63 62 59 52 45 35 31 26
38 37 38 39 38 38 37 36 35 35 37 38 38 38 37 36 37 42 55 63 64 64 64 64 66 65 66 64 64 63 64 64 63 63 62 61 62 63 62 62 62 62 60 56 49 40 28 27 25
39 38 38 38 37 36 35 35 35 35 37 37 38 37 37 37 36 36 37 52 63 65 64 65 65 65 65 65 64 62 62 63 63 62 62 61 62 62 62 61 61 60 58 53 48 36 26 25 24
37 36 36 36 36 36 37 34 35 36 36 35 35 36 36 36 36 36 36 37 54 63 66 65 66 66 65 65 64 63 62 62 62 62 62 62 60 62 61 61 60 59 57 49 42 30 27 26 24
37 35 33 34 36 36 35 28 32 34 35 35 35 35 35 35 35 36 36 36 36 51 61 65 66 66 65 65 65 64 63 62 61 61 61 61 60 60 61 60 60 58 55 45 35 29 27 26 24
35 31 32 33 36 35 35 32 33 35 34 34 34 34 34 34 35 35 36 37 36 37 43 59 65 66 66 66 65 64 63 62 62 60 59 59 60 59 59 59 59 56 51 42 32 29 27 25 24
31 31 32 31 31 34 33 33 33 31 32 34 35 35 35 35 35 36 36 36 36 36 36 39 56 65 66 66 65 64 63 63 62 61 59 57 58 58 58 58 57 53 47 39 31 28 27 26 24
33 32 31 32 31 30 31 29 29 29 29 29 29 29 29 30 32 34 34 34 35 35 35 36 38 55 64 65 64 63 62 63 62 62 61 58 56 57 57 56 55 51 46 37 31 28 26 24 25
35 33 32 32 30 28 28 27 28 29 29 29 29 29 29 30 30 30 31 32 33 33 34 35 36 42 58 64 64 63 63 63 63 62 62 60 57 56 56 55 53 49 45 35 30 28 26 24 26
37 35 33 31 29 27 27 25 24 23 24 24 24 26 28 28 28 28 28 29 30 32 33 34 35 39 50 60 64 62 62 61 61 61 61 61 58 56 56 54 52 47 45 39 31 29 29 25 23
34 30 30 28 27 26 27 21 22 23 20 20 21 21 23 23 22 23 25 27 29 30 31 33 35 36 44 59 62 62 61 60 61 61 61 60 58 57 56 54 51 47 45 42 35 34 35 28 24
34 29 28 27 26 24 23 21 15 19 16 18 19 25 27 28 28 29 31 33 31 31 31 31 32 35 38 44 60 61 61 61 60 61 60 60 57 57 56 54 51 47 44 42 39 38 34 32 28
30 27 26 27 24 18 20 19 6 13 18 20 23 27 29 30 31 33 36 38 39 39 39 38 33 31 35 39 50 61 61 60 59 59 59 57 55 55 55 54 51 48 44 43 42 40 37 33 29
27 27 22 11 14 12 23 20 13 20 22 22 25 26 28 30 32 33 35 36 37 37 38 39 39 39 38 36 41 56 61 61 59 58 58 56 54 53 54 53 50 47 45 44 43 40 38 35 31
27 24 16 5 5 15 22 18 15 20 22 24 26 26 28 30 33 35 36 37 37 38 38 38 38 41 42 40 39 41 49 59 59 58 58 56 54 54 53 52 50 48 46 44 42 40 38 34 32
27 25 25 21 19 17 17 18 13 19 21 23 25 27 29 32 36 38 38 38 38 39 39 39 38 39 43 45 44 43 43 47 56 57 57 56 55 54 52 50 49 48 45 41 40 38 33 31 29
28 28 22 20 9 2 6 12 6 15 20 24 26 28 30 34 38 40 40 40 40 40 39 39 39 41 44 46 47 46 46 47 51 55 55 54 53 51 49 48 46 43 41 39 37 32 30 27 27
27 26 24 22 19 9 3 3 18 18 22 24 26 29 33 39 41 41 40 42 42 41 39 39 43 44 43 44 48 49 49 50 52 53 51 49 47 46 46 44 41 40 37 35 32 28 28 28 28
28 27 24 15 15 21 20 10 23 22 23 25 28 33 41 41 42 41 41 42 42 43 44 42 40 40 40 42 45 47 47 47 48 47 45 44 43 43 41 39 36 34 31 30 29 29 30 31 31

GFSSGP_sfc_30mbdewp_045.txt.gz
Dewpoint
60 50 46 41 33 33 28 27 33 31 30 29 31 30 32 34 40 37 63 66 66 67 69 69 71 72 72 72 71 71 70 69 67 66 64 62 61 61 62 64 67 64 64 66 67 65 64 62 58
56 49 43 39 31 26 25 31 29 31 31 32 30 31 39 38 54 60 63 67 66 68 68 69 72 72 70 71 71 70 69 68 67 66 63 62 60 60 64 65 67 67 67 67 65 63 60 58 60
52 45 39 36 31 26 22 26 29 30 32 29 28 33 35 42 54 60 64 68 68 69 68 70 71 71 67 67 71 70 69 68 67 65 63 62 59 61 64 63 65 65 65 64 64 62 60 61 62
48 42 39 34 31 32 25 29 32 31 31 30 29 28 43 53 54 61 66 68 68 69 68 70 70 68 68 69 70 70 69 68 67 65 64 61 59 61 60 60 63 63 63 62 62 62 61 62 62
44 40 35 34 33 33 33 32 32 30 30 28 29 27 36 54 64 67 68 69 68 68 68 68 68 68 69 70 69 69 69 68 67 65 64 60 59 60 62 61 62 62 62 61 60 62 62 63 64
41 38 33 32 33 33 33 33 32 30 29 29 28 32 40 60 64 66 67 67 67 68 68 68 68 69 69 68 68 68 68 67 67 65 63 60 60 60 61 61 61 61 61 62 63 64 64 64 63
40 37 33 32 32 32 31 32 30 29 28 28 30 29 40 54 65 66 66 66 66 68 68 68 67 68 68 67 67 67 68 68 67 65 63 62 62 61 61 62 62 62 63 64 64 64 64 61 58
42 37 34 33 30 29 29 31 30 30 27 30 34 30 32 53 65 65 66 66 67 68 67 68 67 67 66 66 66 67 67 67 66 65 64 64 62 62 62 63 63 63 64 64 65 64 60 57 58
41 36 32 32 31 29 31 29 33 34 33 31 33 39 50 57 65 65 65 65 65 67 68 68 67 67 66 65 65 67 67 66 65 65 64 64 63 62 61 62 63 64 65 65 65 62 57 56 60
39 35 34 34 33 30 32 33 34 34 34 32 36 40 59 63 63 62 62 62 64 65 66 67 67 66 66 65 65 67 67 64 63 63 63 64 64 64 63 61 63 64 65 65 65 60 54 45 42
38 33 36 36 34 35 36 36 36 34 30 33 33 39 51 60 63 62 62 63 63 64 65 65 67 67 66 65 65 66 67 65 62 63 64 63 63 64 64 63 62 64 65 64 62 55 49 38 36
37 38 36 36 39 39 38 37 36 36 34 36 39 38 37 57 59 61 61 62 63 64 64 65 67 66 66 65 64 64 66 65 64 63 63 63 63 63 64 63 63 64 64 61 59 50 41 35 31
38 38 38 38 38 38 37 36 35 35 37 38 38 38 38 37 42 54 61 63 63 63 64 64 65 64 65 66 65 63 63 65 64 63 63 62 62 62 63 63 62 63 63 60 54 44 36 31 28
39 38 37 38 37 37 36 35 36 36 37 36 37 37 37 38 38 37 38 53 63 64 64 64 64 65 65 65 65 63 62 63 64 64 63 62 61 62 63 63 62 62 62 58 52 42 32 30 28
39 37 37 37 37 36 36 33 35 36 36 35 35 36 37 37 37 36 37 37 49 62 64 64 65 65 65 65 65 64 63 62 63 63 63 62 61 62 63 62 62 61 60 56 49 36 30 29 27
36 35 32 34 36 36 34 27 30 34 36 35 35 35 36 36 36 37 37 37 37 46 61 65 65 65 65 65 65 65 64 63 62 63 63 62 61 62 62 62 61 61 59 54 47 36 31 30 28
35 30 32 32 36 35 33 31 33 35 34 34 34 34 35 35 35 35 36 37 37 37 41 58 65 65 65 65 65 65 64 63 63 62 61 62 62 61 61 62 61 60 59 52 43 35 32 30 28
31 30 32 29 31 35 34 34 35 33 31 31 32 32 33 35 35 36 37 37 37 37 37 39 56 64 66 66 65 65 64 64 63 62 61 60 61 61 60 60 61 59 57 52 41 36 31 30 29
33 31 31 32 31 30 31 31 31 31 30 30 30 30 30 30 31 33 34 35 35 36 37 37 38 53 64 64 64 64 63 63 63 63 62 60 60 60 60 59 59 59 57 53 45 35 31 29 28
33 31 31 32 30 29 28 28 29 29 30 30 29 29 29 30 30 30 29 30 31 33 35 36 36 38 51 62 63 63 62 63 63 63 62 61 59 59 59 59 58 57 55 51 43 35 31 30 29
34 32 32 31 29 27 27 25 24 24 23 22 23 23 24 25 24 26 31 31 29 30 32 34 35 37 40 54 62 63 63 62 62 62 62 62 60 58 58 58 58 56 54 49 44 37 34 31 28
34 32 31 28 28 25 26 22 23 22 19 21 27 28 28 29 30 33 35 37 37 37 34 33 33 35 38 45 58 61 59 59 60 61 61 62 61 59 58 57 56 55 53 51 45 39 36 35 31
34 30 28 27 26 25 24 21 17 17 17 20 26 27 30 31 33 35 37 38 39 40 40 39 35 32 35 39 52 60 60 59 60 61 61 61 61 59 58 57 56 54 53 53 49 41 37 37 37
30 27 26 25 24 23 20 20 9 15 19 21 25 27 29 31 35 37 38 38 39 40 40 40 40 40 37 35 40 55 60 60 60 61 60 61 60 59 58 57 56 55 53 52 48 45 43 40 38
29 31 23 14 17 18 23 21 16 19 22 23 25 27 29 32 36 38 39 39 39 40 40 40 40 40 41 41 38 39 51 60 60 60 60 60 58 57 57 57 56 55 52 51 49 47 45 42 39
27 27 21 11 6 12 22 17 15 20 22 26 26 27 29 34 36 39 40 40 40 40 40 40 40 40 40 43 44 43 42 46 58 60 59 59 58 57 57 57 57 55 53 50 49 47 46 44 41
28 26 23 20 19 16 14 17 15 19 21 24 27 31 32 35 38 41 41 41 41 41 41 41 40 40 41 45 46 47 46 45 45 52 58 59 58 57 56 55 55 53 51 49 48 47 45 42 39
27 27 23 20 9 5 5 8 4 15 21 24 28 29 31 39 41 42 41 41 42 42 43 42 41 43 44 44 46 48 49 49 48 48 52 55 56 55 54 53 52 51 49 47 46 44 41 38 34
26 25 23 21 17 3 -1 -1 16 18 23 24 26 29 36 41 40 42 41 42 42 42 41 41 40 40 41 42 44 46 47 48 49 51 51 52 51 51 51 49 48 46 45 44 42 38 35 32 29
28 26 22 16 16 20 19 6 21 19 22 24 26 29 40 40 40 39 40 41 41 38 37 38 39 39 39 39 42 44 45 46 47 47 47 47 48 47 47 45 44 42 40 38 35 32 31 30 30

GFSSGP_sfc_30mbdewp_048.txt.gz
Dewpoint
59 50 46 42 32 29 24 23 28 31 30 29 31 31 30 32 36 35 61 64 61 64 66 69 71 72 73 73 72 71 70 69 67 65 64 63 64 63 63 67 66 64 64 67 66 64 63 60 61
55 46 43 38 29 24 21 26 26 29 30 31 31 31 36 36 49 57 61 65 63 66 67 68 72 72 73 72 71 70 69 68 67 65 64 61 60 62 64 68 67 67 67 67 65 62 59 60 62
50 44 38 34 30 24 21 25 24 29 30 29 29 32 34 39 52 56 62 64 64 65 65 68 72 72 72 72 71 70 69 68 67 64 63 61 60 64 65 67 67 67 65 64 63 61 60 61 63
44 41 38 32 29 28 25 28 29 29 30 30 29 29 40 52 53 59 64 64 64 64 65 70 72 70 70 70 71 70 69 68 66 64 63 61 60 63 62 65 65 64 64 64 63 61 62 63 63
44 40 35 33 29 30 31 29 31 30 29 27 28 28 32 54 62 63 65 65 64 64 64 68 70 70 67 69 70 70 69 68 66 64 63 60 60 62 60 63 63 63 62 61 62 62 62 63 64
40 39 34 32 30 31 32 32 31 29 28 25 27 28 35 58 61 64 65 65 65 65 64 65 67 67 68 68 69 70 69 68 66 65 62 60 60 62 62 62 62 62 62 61 62 63 64 64 63
39 37 33 31 30 31 32 32 31 28 27 24 28 28 38 52 63 66 66 65 65 65 64 63 65 67 68 68 69 69 69 68 67 65 62 62 62 61 62 62 62 62 63 63 64 64 64 62 59
39 38 33 33 31 30 32 32 30 28 24 30 31 28 32 51 64 66 66 66 66 65 64 63 63 64 65 65 67 68 68 68 67 65 64 63 62 62 62 63 63 63 64 64 65 64 59 58 61
43 33 31 32 32 30 31 29 30 32 27 29 31 36 50 54 64 65 65 65 66 65 64 64 62 63 63 61 63 66 67 68 66 65 64 62 57 59 61 61 63 64 65 65 65 60 58 61 60
33 30 27 31 33 31 30 28 30 31 31 30 33 41 56 60 63 62 62 62 64 64 65 64 64 62 61 60 60 58 63 66 64 60 61 59 58 58 56 59 64 64 64 65 64 59 54 49 50
33 29 29 35 33 32 31 31 34 30 30 28 29 38 51 60 62 62 62 62 63 64 65 65 64 63 61 60 60 59 62 62 61 58 58 58 60 61 60 58 59 61 63 60 62 57 49 45 43
34 32 33 36 38 37 33 33 32 31 29 34 38 38 39 55 59 61 61 62 62 63 64 65 65 64 62 61 61 59 61 62 61 59 57 59 59 60 60 59 57 58 60 59 61 56 50 46 42
34 35 34 35 38 38 37 35 32 34 35 37 37 38 37 38 49 58 61 62 62 63 64 64 65 65 63 63 61 60 60 62 61 61 59 58 59 59 60 60 59 57 58 58 58 55 48 43 39
36 35 35 35 37 37 36 35 36 34 35 34 35 34 34 36 37 40 51 58 61 62 63 64 65 65 64 65 64 63 61 60 62 61 61 59 58 58 59 59 60 59 58 58 57 54 47 42 37
38 35 33 36 34 33 35 32 34 33 32 31 30 31 34 36 37 38 38 39 44 52 58 62 64 64 64 64 65 64 64 62 61 61 61 61 59 58 58 58 59 60 59 57 57 52 45 40 35
35 33 30 29 34 36 34 21 29 33 33 32 31 30 31 34 34 35 36 37 38 38 43 52 60 63 64 65 66 66 65 64 63 62 61 61 60 59 58 58 59 60 60 57 56 51 45 40 36
31 22 24 28 35 31 32 22 27 30 32 31 31 31 32 33 34 34 35 35 36 37 37 38 51 58 62 64 65 66 66 65 64 63 63 62 61 60 59 58 59 60 60 58 55 52 47 42 38
25 23 27 23 31 35 32 27 31 33 34 32 31 30 30 31 33 33 35 37 37 37 38 37 39 49 57 62 65 66 65 65 65 64 63 62 61 61 60 58 58 59 59 58 55 50 46 43 40
28 26 22 27 30 30 29 30 31 32 32 31 30 29 30 31 32 32 32 32 33 34 36 37 38 40 47 54 63 65 64 64 64 64 64 63 62 61 61 59 58 58 58 58 56 51 46 40 38
29 25 24 32 31 30 29 29 30 30 31 30 28 28 28 29 27 26 31 33 30 29 31 34 36 38 40 47 56 62 63 64 64 64 64 63 62 62 61 60 58 58 58 58 57 52 46 44 36
31 27 30 28 30 28 27 25 26 24 24 26 27 25 26 28 30 34 36 38 38 37 35 33 34 36 38 40 47 55 60 62 61 63 62 62 63 62 61 61 60 59 58 57 58 54 48 45 38
30 35 33 31 30 23 27 16 23 19 24 26 28 30 32 34 36 37 38 39 39 41 43 41 38 35 36 38 39 45 55 57 58 58 60 62 62 62 62 61 61 60 60 57 57 54 51 50 42
32 32 31 29 29 28 25 23 18 18 20 24 27 31 34 37 38 39 40 40 41 43 44 43 41 40 39 36 38 41 49 55 56 56 58 59 61 62 61 60 61 60 59 58 56 53 51 50 47
29 28 28 28 27 27 25 22 12 15 18 23 27 31 34 36 39 40 42 42 41 42 42 43 41 41 41 42 38 39 43 51 54 57 58 60 61 60 61 60 60 60 59 57 56 54 51 50 49
34 32 28 27 26 23 22 20 14 19 21 24 29 32 34 37 39 41 41 41 41 41 42 41 41 41 41 41 43 41 40 44 51 54 57 59 60 60 59 59 59 59 59 58 57 55 52 50 49
35 35 27 18 12 13 21 16 14 21 21 25 28 31 33 38 40 41 42 41 40 41 42 42 41 40 41 42 43 44 45 43 42 48 55 57 57 58 59 58 59 59 58 57 56 55 53 51 49
32 31 24 21 19 18 14 17 17 20 23 25 30 33 35 39 40 41 41 41 40 41 43 44 42 42 43 44 44 45 46 47 46 46 46 50 54 57 58 58 58 58 58 56 55 53 52 51 50
29 27 25 25 17 14 9 8 9 20 22 24 29 32 35 39 40 40 41 41 41 42 42 42 42 41 42 42 44 45 47 48 49 50 49 48 49 52 55 56 56 57 55 54 52 51 51 49 48
27 26 24 22 19 10 -1 -0 13 17 22 24 25 31 36 40 40 39 38 40 41 40 40 40 40 40 40 40 41 44 46 47 48 49 50 51 52 52 53 53 54 54 52 50 49 48 47 45 40
28 26 22 20 20 21 19 10 20 19 23 24 26 32 37 40 39 36 35 36 40 38 38 38 38 38 38 38 39 42 45 46 47 47 48 48 50 50 51 50 50 49 48 47 45 41 39 35 32

GFSSGP_sfc_30mbdewp_051.txt.gz
Dewpoint
58 53 44 41 33 29 25 22 23 26 26 27 30 29 26 30 33 40 59 61 60 63 67 69 70 72 73 73 72 71 70 69 67 66 65 65 65 64 65 66 65 64 66 67 65 64 62 62 62
53 47 42 38 29 26 24 25 24 25 29 30 31 31 29 30 46 57 59 62 60 63 66 66 72 73 73 72 71 70 69 68 66 65 63 62 61 64 68 67 66 65 67 66 64 61 60 62 63
55 47 39 33 30 24 24 24 22 29 29 29 29 31 33 38 51 55 61 61 61 63 64 69 73 73 73 72 71 70 69 68 66 64 63 61 62 65 67 68 67 67 65 63 61 60 61 62 63
49 42 39 34 28 27 26 25 23 27 29 30 29 29 38 51 52 58 62 61 62 62 64 70 72 72 72 71 71 70 69 68 65 64 63 60 63 65 66 66 66 66 65 63 62 62 62 63 64
47 41 35 33 30 28 27 27 27 26 28 28 28 28 36 56 59 60 61 60 61 61 66 68 72 71 71 70 69 70 69 67 65 63 63 60 62 62 65 64 64 63 63 62 62 62 63 64 64
43 41 35 32 31 29 28 29 28 28 27 26 26 28 42 57 60 62 62 61 61 61 63 66 69 68 68 68 69 69 69 68 65 64 62 60 62 62 62 63 63 63 62 62 62 63 64 64 63
41 39 36 32 29 30 28 30 28 27 26 25 25 27 42 55 63 63 62 62 62 62 61 63 64 66 67 68 68 69 69 68 66 65 62 61 62 63 63 63 62 62 62 63 64 64 64 62 60
42 39 36 33 29 29 30 31 29 28 27 27 27 27 33 51 63 65 64 63 62 63 61 61 62 65 66 66 68 69 69 68 67 64 64 63 62 62 62 63 62 63 63 64 65 64 60 59 60
41 37 34 32 30 30 31 30 31 30 26 27 25 31 48 52 63 64 64 65 65 62 61 60 60 62 62 62 66 67 68 68 66 64 63 62 57 59 61 61 63 64 65 65 65 61 59 62 62
38 36 32 32 31 32 31 30 28 29 27 25 28 38 53 54 61 62 62 62 64 62 61 61 60 60 60 59 62 60 61 66 65 63 61 57 55 55 55 61 63 64 64 65 63 60 58 58 53
34 28 31 29 33 33 32 30 27 28 24 25 27 32 46 55 59 60 61 62 63 64 64 62 61 60 59 58 58 57 57 64 64 60 58 56 56 57 56 58 59 61 63 61 63 59 51 47 46
32 30 27 30 34 35 30 29 27 29 26 29 30 37 37 49 55 57 59 60 60 63 64 65 63 62 60 58 58 56 59 60 58 58 56 56 57 58 57 55 55 57 58 58 61 59 53 48 46
33 30 31 33 37 36 30 28 27 29 31 35 36 36 35 35 43 54 57 60 60 61 64 64 65 64 62 60 58 57 57 60 59 58 56 55 57 57 58 57 56 55 56 57 59 57 53 49 45
34 33 33 32 36 37 34 31 33 32 33 33 33 33 32 33 35 40 52 57 58 59 61 63 64 65 64 62 61 60 59 59 60 60 59 56 56 57 58 57 57 56 55 56 56 56 53 47 44
36 31 32 31 33 34 35 31 32 34 32 31 30 31 31 30 31 35 39 44 51 55 58 61 63 64 65 63 64 62 62 61 60 61 60 59 57 57 57 57 57 58 57 56 55 55 52 47 43
33 33 30 30 33 32 32 25 27 32 31 29 28 27 26 27 29 30 34 39 41 41 43 52 59 62 63 63 64 65 63 62 62 61 61 60 59 58 57 57 57 57 58 58 56 55 52 47 43
33 24 26 24 28 31 32 22 24 29 29 28 27 27 27 27 29 29 28 33 36 38 39 40 43 52 59 61 63 65 66 65 64 62 62 61 60 59 58 57 57 57 58 58 57 55 51 48 45
24 23 20 19 30 29 28 27 25 29 29 28 27 27 27 28 29 30 30 31 34 35 36 36 38 38 46 54 59 65 66 66 66 64 63 62 62 61 60 59 58 57 58 58 58 55 53 50 46
22 22 17 21 30 30 26 26 26 27 29 28 28 27 25 26 27 30 33 33 33 34 35 36 37 38 39 45 52 64 65 65 64 65 64 63 63 62 61 60 59 58 57 58 58 56 53 50 47
26 22 21 27 29 28 22 26 27 28 27 27 28 28 28 29 29 28 30 34 33 30 30 32 35 37 39 40 44 52 62 62 64 64 65 65 63 63 62 62 61 59 58 58 58 56 54 50 47
25 23 20 24 30 29 28 25 25 26 27 26 26 25 24 26 27 32 35 37 38 39 40 36 34 35 37 39 41 44 54 60 62 64 64 63 64 64 63 62 62 61 59 58 58 58 55 50 46
24 28 27 30 27 17 26 8 25 23 25 26 27 28 30 32 34 36 37 39 40 42 44 43 41 38 36 37 38 40 44 52 57 59 59 61 61 62 63 63 62 61 61 59 59 59 57 52 47
29 33 32 31 28 28 25 21 20 20 23 24 27 31 34 35 37 38 40 41 41 43 44 44 43 41 41 39 37 38 39 43 48 54 56 56 59 61 61 61 61 61 61 61 59 58 58 53 51
33 31 31 30 29 26 26 21 17 17 19 23 27 30 33 36 38 39 41 42 41 43 44 43 42 41 41 41 42 39 39 40 43 49 54 55 57 59 61 61 61 61 61 60 60 59 58 55 54
32 31 28 27 28 22 23 23 17 18 19 23 27 30 34 37 38 40 41 41 41 41 42 42 42 41 41 41 42 42 42 40 41 44 49 53 55 58 60 60 60 60 60 60 60 59 58 56 54
33 31 26 19 20 21 20 17 15 19 22 27 30 33 35 38 40 40 41 41 40 41 42 43 42 41 41 42 43 43 43 43 43 41 42 48 52 54 56 60 60 60 59 59 59 59 58 56 54
34 32 26 20 17 15 14 15 20 20 20 25 31 34 35 38 40 40 40 41 41 40 42 43 42 41 42 42 43 44 45 46 47 47 46 45 46 50 53 56 58 59 59 59 59 58 57 56 54
35 33 30 29 21 14 14 11 10 18 21 26 29 31 34 39 40 40 39 40 41 40 41 41 41 41 41 41 41 42 44 46 46 47 48 49 49 49 49 52 55 57 57 58 57 56 55 54 53
27 27 26 26 21 16 5 3 15 19 22 24 24 30 36 40 40 38 37 37 40 40 40 40 39 39 39 39 39 41 44 45 46 46 47 48 49 50 51 52 52 52 56 54 54 53 52 52 49
28 26 25 23 23 21 20 13 16 20 22 25 24 32 37 40 39 37 35 37 38 38 39 38 38 37 37 37 38 39 41 42 42 43 44 45 46 48 49 49 50 51 50 49 49 47 46 44 40

GFSSGP_sfc_30mbdewp_054.txt.gz
Dewpoint
59 53 53 44 38 33 29 26 25 26 25 29 29 28 29 30 47 50 59 60 66 66 69 72 72 72 73 73 72 71 70 69 68 67 66 66 65 63 66 65 65 65 67 66 64 62 63 63 63
56 53 46 41 34 30 27 27 25 24 30 30 30 30 29 46 56 58 60 60 64 66 68 69 72 73 73 73 71 70 69 67 66 65 64 63 62 67 67 66 65 67 67 65 62 62 62 63 63
55 53 45 37 35 29 27 26 25 29 29 29 30 30 31 48 54 58 62 60 64 66 67 71 73 73 73 72 71 70 69 67 65 64 62 61 65 68 67 67 68 67 65 62 61 62 62 63 63
49 47 43 36 31 31 28 25 25 28 29 29 29 31 48 56 56 60 61 60 63 64 70 72 73 73 73 71 70 69 69 67 65 64 62 62 66 67 67 67 66 66 65 63 62 62 63 64 64
49 44 38 34 34 32 29 27 26 27 28 28 28 32 51 57 60 60 60 62 62 68 70 72 73 73 72 70 69 69 69 67 65 64 62 61 65 66 66 65 65 64 64 62 63 63 64 65 64
50 44 39 35 33 33 31 28 26 25 27 26 26 36 53 59 60 60 59 61 61 68 68 70 71 72 71 69 68 68 68 67 64 64 61 61 63 65 65 64 64 63 62 62 62 63 64 65 63
48 44 41 37 34 32 31 29 27 27 27 27 26 29 56 61 62 61 60 61 61 64 66 67 67 68 69 68 69 68 69 67 65 64 62 63 64 63 63 64 63 63 62 63 64 64 64 62 61
46 46 41 38 35 34 32 29 28 27 26 27 27 36 51 61 63 64 64 62 62 61 64 64 65 66 67 68 68 68 69 67 66 64 63 63 63 64 64 63 63 63 64 64 65 64 61 60 61
45 42 41 40 37 35 32 30 30 30 28 26 26 47 51 62 64 64 64 64 64 61 61 62 63 65 66 66 67 68 68 68 66 64 63 62 61 62 62 62 63 64 65 66 65 61 60 62 62
39 39 40 40 37 34 33 31 31 29 29 27 26 46 52 60 63 62 62 62 64 62 61 60 62 64 64 63 66 66 67 68 65 63 62 60 58 59 59 62 64 65 65 66 64 61 61 59 58
39 36 38 36 34 34 33 31 31 28 28 27 26 34 52 56 58 61 61 62 63 63 63 61 60 60 60 59 63 61 62 65 65 63 61 60 56 58 60 62 62 63 63 65 63 60 55 53 54
34 36 34 34 35 34 31 32 30 28 29 32 37 37 44 52 55 57 59 61 62 63 64 64 65 61 60 58 58 58 59 64 65 64 60 58 57 57 57 60 59 61 61 62 62 60 55 51 47
36 33 32 32 37 36 32 31 29 28 31 35 37 36 35 35 44 55 57 59 60 62 63 64 65 64 61 59 58 58 57 63 63 60 58 57 57 59 57 57 57 59 60 59 62 61 58 51 48
35 34 32 33 37 36 31 30 29 30 32 34 34 34 34 33 34 38 54 57 59 60 63 64 65 65 65 61 60 58 58 59 60 59 59 56 57 58 59 58 57 56 57 58 60 60 56 51 49
35 32 33 32 35 35 35 32 30 32 33 32 32 33 33 32 31 31 35 43 53 59 60 63 64 64 65 65 62 62 61 60 61 61 60 59 57 58 58 58 59 58 56 56 56 56 56 50 46
35 34 30 32 33 34 35 29 32 33 34 33 31 30 30 31 31 31 31 37 41 42 43 59 63 64 65 65 64 64 64 63 62 62 62 60 59 58 58 58 58 59 59 57 56 56 55 50 46
33 30 30 30 31 32 32 28 29 31 32 32 31 29 27 27 27 29 30 30 35 39 40 41 43 56 63 64 63 65 64 65 66 63 62 62 60 59 58 58 58 58 58 59 57 56 55 50 46
30 29 29 27 28 31 32 31 28 28 28 28 28 27 27 28 29 30 30 33 34 36 37 39 40 42 42 52 62 65 65 65 65 65 64 62 62 61 59 58 58 58 57 59 58 56 55 51 48
28 28 26 25 30 28 28 29 29 28 29 30 29 28 27 27 28 30 31 31 32 32 33 35 37 39 40 41 47 65 65 65 65 65 65 65 63 62 61 60 59 58 57 58 58 57 55 52 49
26 25 24 24 30 29 27 26 26 27 28 29 29 28 28 29 29 29 34 35 35 33 35 34 34 36 39 40 41 48 64 65 65 64 64 64 65 63 63 62 61 60 59 58 58 58 56 53 50
26 25 21 24 29 29 27 24 25 27 27 28 28 27 26 25 26 32 36 38 40 42 43 42 40 38 36 38 40 42 44 61 63 63 63 63 64 64 64 63 62 61 60 59 58 59 56 54 50
24 25 25 28 28 21 27 10 20 26 25 26 27 26 27 31 34 36 38 40 41 44 46 46 44 42 39 37 37 39 40 42 54 61 63 64 63 63 63 63 63 62 62 61 60 59 58 55 50
26 30 31 30 29 29 26 23 22 24 23 25 27 31 34 35 37 38 41 41 42 44 45 45 44 43 42 42 40 38 39 41 42 44 50 59 61 63 63 62 62 62 62 62 61 60 59 57 54
34 32 31 31 29 26 26 22 20 21 22 24 28 32 34 36 38 40 42 42 42 43 44 44 43 42 42 43 43 42 40 40 40 41 44 51 55 57 61 62 61 60 61 62 61 61 60 59 56
32 31 27 25 25 23 25 24 22 20 22 25 28 31 34 37 39 40 41 42 41 41 42 43 43 43 42 42 43 44 44 44 44 42 43 45 50 55 57 59 60 61 60 61 61 61 61 60 57
32 31 27 19 22 22 21 22 19 20 24 26 30 32 35 37 40 40 41 41 41 41 42 44 43 42 43 43 44 44 45 46 47 47 47 46 46 47 52 55 58 60 60 60 60 60 60 60 59
34 32 26 24 15 18 19 18 20 21 26 27 29 33 35 39 40 40 41 41 41 41 42 42 41 41 41 41 42 43 45 46 46 47 48 49 50 50 51 52 54 58 60 59 59 59 59 59 58
35 35 30 28 18 14 14 14 14 19 20 25 31 33 36 39 40 40 39 39 41 41 41 41 40 39 40 39 40 42 44 45 46 47 47 48 49 50 51 51 52 54 58 58 58 58 58 57 56
33 33 32 29 24 21 13 9 17 19 20 26 28 31 35 39 40 38 37 37 38 40 40 39 38 38 38 38 38 40 41 42 42 42 42 44 45 47 48 49 49 51 53 54 54 55 54 54 52
29 29 28 29 27 21 21 15 17 20 25 25 24 33 37 40 39 37 36 36 38 38 38 37 37 37 37 38 38 39 39 39 39 39 39 39 39 39 41 43 44 44 44 43 45 46 45 45 42

GFSSGP_sfc_30mbdewp_057.txt.gz
Dewpoint
60 59 54 49 37 37 32 31 26 25 26 29 30 29 37 44 51 46 61 66 68 70 73 73 73 73 73 73 72 71 69 69 68 67 66 66 63 65 65 65 65 67 66 64 63 63 63 63 62
60 57 49 42 36 31 30 30 24 29 29 29 29 29 43 53 57 58 61 66 68 70 71 72 73 73 73 72 71 70 69 67 66 65 64 62 66 67 65 65 66 67 65 63 63 62 62 63 62
56 53 47 39 36 32 29 28 28 28 29 29 30 30 44 51 58 59 62 65 67 68 69 72 72 73 73 72 71 70 67 66 64 63 62 64 68 67 66 67 68 66 63 62 62 62 63 63 62
50 47 43 38 34 33 33 32 28 28 29 29 29 45 54 58 59 61 63 67 67 67 70 72 73 73 72 72 71 70 67 66 64 62 62 66 68 68 68 67 67 66 64 62 62 63 64 64 63
51 46 40 37 35 36 34 29 28 28 28 29 28 47 55 59 61 61 62 66 67 69 71 72 73 73 72 70 69 68 68 66 65 62 62 66 67 67 67 66 65 64 63 63 63 64 64 64 63
46 47 39 37 36 36 35 28 26 27 27 26 40 51 56 60 59 60 62 68 69 69 71 72 73 72 70 69 67 68 68 67 65 63 61 65 67 66 66 65 64 64 63 63 63 64 65 64 62
44 44 40 39 39 37 35 30 25 27 27 27 28 52 59 61 62 61 62 68 68 68 69 71 71 71 69 68 67 68 68 66 66 64 62 64 65 65 65 65 64 63 63 63 64 64 64 62 62
49 44 40 41 39 39 38 29 27 27 26 27 31 49 55 61 64 65 64 65 67 67 68 67 68 68 68 68 67 68 67 67 66 64 64 64 64 64 64 64 64 63 63 64 65 65 62 60 61
49 42 40 42 42 41 40 39 30 29 28 29 42 52 61 63 64 63 63 63 63 65 65 65 65 66 67 67 67 68 67 66 65 64 63 62 63 64 64 63 64 65 65 65 65 63 61 62 61
47 42 38 40 43 42 40 39 38 28 28 33 50 61 62 63 62 62 62 62 63 62 63 64 64 65 66 66 67 67 67 67 64 63 62 61 61 61 62 62 63 65 66 66 65 62 62 60 58
41 41 42 41 41 45 39 39 38 29 28 29 45 55 60 62 62 61 61 62 63 63 63 63 64 64 65 65 66 66 67 67 64 62 61 60 59 60 60 62 63 64 65 66 64 62 59 57 56
38 39 41 40 42 45 37 34 35 29 31 37 32 52 56 57 58 61 61 61 61 63 64 64 64 62 62 65 64 63 64 66 65 63 61 60 58 58 61 61 61 62 62 64 62 60 57 52 52
40 36 38 37 36 38 35 31 29 28 34 36 36 37 45 52 56 57 61 61 62 62 63 64 64 64 60 61 61 60 61 64 65 65 62 60 58 57 59 60 59 60 61 62 62 61 58 54 50
38 38 35 34 36 35 31 30 30 29 33 34 34 34 34 33 35 52 57 59 62 63 62 62 64 64 65 60 58 58 59 62 64 64 61 59 57 58 57 58 58 58 60 60 61 61 60 56 50
36 36 36 37 36 35 33 30 29 32 32 32 33 33 33 33 32 31 43 57 59 62 63 63 63 63 64 64 61 59 58 61 61 60 60 58 57 59 59 58 57 56 57 59 59 61 60 56 50
35 35 34 34 35 35 32 29 32 32 33 32 33 32 31 32 32 31 31 34 42 54 61 64 64 64 64 64 65 62 63 64 61 61 60 59 58 58 58 59 59 59 57 56 56 57 57 52 49
35 31 33 30 34 35 33 30 31 32 32 33 33 33 31 30 30 31 31 30 31 37 41 59 64 64 64 64 64 64 63 64 65 64 62 61 59 59 58 58 58 58 59 57 56 56 55 53 49
31 30 32 29 31 33 33 31 31 30 30 32 32 31 28 28 28 29 32 33 33 33 35 36 40 54 64 64 64 64 64 63 64 65 65 64 62 60 59 58 58 58 58 58 58 56 56 53 50
32 30 30 31 30 30 31 31 31 31 28 29 29 29 29 28 28 30 31 32 32 33 33 33 34 36 39 42 55 64 64 64 63 64 65 65 65 63 61 59 58 58 57 57 58 58 56 53 50
30 29 28 27 30 30 30 30 32 31 29 28 28 29 29 28 28 34 36 38 40 42 42 40 39 37 36 39 41 51 64 65 64 65 64 64 64 65 64 62 60 59 58 57 58 58 56 55 51
29 26 26 26 29 29 27 25 26 27 28 29 28 28 27 26 28 36 38 41 43 44 45 45 44 42 40 38 38 39 43 54 63 63 63 63 63 63 64 64 62 61 60 58 58 58 58 56 53
27 27 26 28 27 24 26 18 19 25 26 26 27 26 25 33 36 38 40 41 43 44 45 45 44 43 42 41 39 37 38 39 44 50 61 63 63 63 63 63 63 63 62 61 60 59 59 57 54
28 30 30 29 27 27 25 20 20 24 25 25 27 28 33 36 38 40 41 41 44 44 45 44 44 43 43 43 43 41 39 39 41 41 42 47 59 63 63 63 62 62 61 62 62 61 59 59 57
34 32 31 31 30 24 27 23 19 23 24 25 27 33 35 36 39 41 42 42 43 43 43 43 43 43 43 42 43 43 43 42 41 41 41 43 47 53 59 62 62 62 61 61 60 60 60 60 59
33 28 25 23 24 20 24 25 22 23 23 25 29 32 34 36 39 41 42 41 41 42 43 44 43 42 43 43 44 44 45 46 46 46 46 46 46 48 50 55 59 59 60 60 60 59 60 59 59
32 27 21 14 19 22 22 23 23 21 23 27 30 32 35 37 40 41 41 41 41 42 42 42 42 42 41 41 42 44 46 46 47 47 48 49 49 50 51 52 53 56 59 59 60 59 59 59 59
33 31 27 23 19 20 21 20 19 26 26 28 30 34 35 38 40 41 41 41 41 41 42 40 40 40 39 39 41 43 44 44 45 46 47 48 48 49 49 50 51 52 57 58 59 58 58 59 58
35 35 28 28 19 15 18 16 17 24 26 29 31 33 34 40 40 40 39 40 41 41 40 39 39 38 38 38 40 41 41 41 41 41 40 41 43 46 47 47 48 50 52 53 55 56 56 56 56
33 33 32 29 25 21 14 13 15 21 25 27 32 33 36 39 40 37 37 37 40 40 39 38 37 37 38 38 39 39 39 39 39 38 38 38 38 39 40 43 43 44 44 45 48 49 50 52 50
33 32 31 28 26 20 20 13 18 20 23 28 30 33 37 40 38 36 35 37 39 38 37 36 37 37 38 38 38 38 38 38 37 37 36 37 37 37 37 37 37 37 38 39 40 42 42 43 42

GFSSGP_sfc_30mbdewp_063.txt.gz
Dewpoint
59 56 53 43 36 37 30 30 32 26 27 29 31 40 38 52 44 39 62 67 70 72 73 73 73 73 73 72 72 72 71 71 70 68 67 65 65 64 65 67 66 65 64 63 63 63 63 61 62
57 53 45 41 34 30 28 32 30 29 28 36 44 45 51 51 58 63 64 69 71 72 73 73 73 73 72 72 71 70 69 68 67 66 64 64 65 65 65 68 66 65 64 63 62 63 62 61 63
55 51 43 38 36 30 26 31 32 29 30 29 39 50 53 55 61 62 65 70 71 72 73 73 73 73 72 71 70 68 67 67 66 65 64 67 65 65 65 68 66 65 63 62 62 62 62 61 62
49 45 42 39 35 35 33 34 35 31 29 30 47 51 57 60 60 63 69 71 71 71 72 73 73 73 72 71 69 67 66 65 64 64 67 68 66 65 68 68 65 65 63 62 62 63 62 62 62
49 43 38 37 36 38 37 37 36 34 28 30 46 54 56 60 63 67 69 70 69 70 71 72 73 73 72 71 69 67 65 64 63 65 69 69 67 68 69 66 65 64 63 62 64 64 63 63 62
45 43 37 35 35 38 39 39 39 31 28 51 53 55 57 62 65 66 67 68 69 69 70 70 71 72 72 71 69 68 66 64 63 66 68 67 67 68 67 66 65 64 63 63 64 64 64 63 62
42 38 37 38 37 38 39 42 37 34 27 40 54 54 58 61 64 66 66 67 69 70 70 70 71 71 71 71 70 68 67 66 63 66 68 68 68 68 67 65 65 64 63 63 64 64 64 63 62
46 40 39 39 37 37 43 43 42 36 28 39 55 52 56 62 64 67 68 68 69 70 70 70 70 69 68 69 69 68 67 66 64 64 67 67 67 66 66 65 65 64 63 63 64 65 64 63 62
51 40 35 37 38 38 45 43 44 44 35 48 54 57 60 63 66 66 66 67 68 69 69 70 69 68 67 67 67 68 67 66 64 63 65 67 66 66 66 65 65 65 64 64 65 65 63 62 61
47 40 38 38 40 41 45 45 45 42 40 50 60 62 63 63 65 65 65 65 66 66 67 69 68 68 67 67 67 67 67 66 64 63 63 63 63 64 64 64 64 65 66 66 66 65 63 62 59
47 40 41 39 40 48 46 45 45 42 37 34 53 60 61 62 64 64 64 65 64 65 66 67 67 67 66 66 66 66 66 65 63 62 62 62 62 62 63 62 63 64 65 65 66 64 62 60 56
44 44 42 43 47 47 45 47 44 42 41 43 37 61 60 61 62 63 63 64 64 64 64 64 65 65 66 66 66 66 65 64 63 62 61 60 59 60 60 60 61 62 63 64 64 63 61 59 56
41 42 43 48 47 47 47 45 45 43 44 43 39 59 58 59 60 61 62 63 63 63 63 63 64 64 65 65 65 65 65 65 64 62 62 60 58 58 59 59 60 61 61 62 63 63 61 59 55
42 40 43 47 46 48 43 43 44 43 44 38 53 57 57 57 57 59 60 61 62 63 63 63 63 63 64 64 64 64 65 65 65 64 62 61 59 58 58 59 60 60 60 61 62 62 61 60 58
42 40 42 44 43 42 45 43 41 43 42 38 34 44 46 54 56 57 59 60 61 62 63 63 64 64 63 63 64 63 63 63 64 65 64 62 61 59 57 58 59 60 60 60 61 61 61 60 59
39 39 37 40 40 40 44 38 43 44 43 37 33 33 33 33 33 47 57 60 60 62 62 63 63 64 63 62 62 62 61 61 62 64 64 64 62 60 58 57 58 59 58 59 59 59 59 60 59
36 33 34 35 38 39 41 34 39 44 43 38 34 33 33 32 32 31 32 43 52 59 62 62 63 63 64 64 63 61 60 59 60 61 62 63 63 61 59 58 58 58 57 57 58 58 58 58 58
31 31 33 32 35 35 36 31 32 34 35 35 35 32 33 33 31 30 30 32 34 39 45 54 60 61 64 64 64 64 64 63 62 63 61 61 61 61 60 59 59 59 58 57 56 56 56 57 57
32 32 33 32 34 34 33 32 31 31 31 29 30 31 32 32 30 32 32 34 37 38 36 36 39 38 47 61 62 63 62 63 63 63 64 64 64 61 60 59 59 59 58 58 58 57 56 55 54
32 31 32 32 33 33 32 32 33 33 32 31 29 30 31 30 32 34 37 39 40 42 42 41 41 40 37 40 44 56 61 63 63 63 63 64 64 64 64 62 61 60 59 58 58 58 57 56 54
31 31 31 30 30 30 29 29 30 32 33 32 31 30 30 30 32 36 38 41 43 44 44 44 43 42 41 39 38 39 41 47 56 59 61 62 63 63 63 63 63 62 61 60 59 58 57 57 55
30 30 29 28 29 27 29 25 25 28 29 31 31 30 30 29 33 37 40 42 43 44 44 44 43 43 43 43 41 38 36 36 40 44 46 43 45 51 58 61 62 62 62 61 60 58 58 57 56
30 28 30 28 27 26 25 25 25 23 24 28 29 29 29 28 32 37 40 42 44 44 43 43 43 43 44 43 43 42 41 41 41 42 43 44 45 51 52 54 59 61 61 61 61 60 59 58 57
33 30 30 30 28 24 26 25 24 22 22 23 26 28 27 32 37 40 42 44 43 43 44 43 43 43 43 44 45 45 45 45 45 46 47 48 48 50 50 51 52 54 59 60 60 60 59 58 58
32 28 26 24 25 23 26 24 24 23 23 24 23 27 29 36 39 41 42 42 42 43 43 42 42 41 41 44 45 46 46 46 46 47 48 48 48 49 48 49 50 51 55 57 58 58 58 58 58
32 26 23 18 20 22 25 23 24 27 27 26 27 28 34 38 40 41 41 41 42 42 42 42 41 39 40 43 42 43 44 44 44 44 45 44 46 47 47 47 48 49 50 55 57 57 57 57 56
33 30 26 21 21 20 22 22 22 24 23 24 27 32 36 38 40 41 41 41 41 42 41 40 39 38 39 41 41 40 40 40 40 39 39 39 40 41 44 44 44 44 45 47 51 52 51 53 53
35 34 28 25 18 16 18 20 16 20 22 26 29 32 35 38 40 41 41 41 41 41 40 39 38 38 39 39 39 39 38 38 38 38 38 37 37 38 38 39 39 40 41 42 44 44 46 47 45
35 33 31 27 23 18 17 16 20 17 20 25 30 33 35 38 40 40 41 41 41 40 38 38 37 38 38 38 38 37 37 37 37 37 37 37 37 36 37 37 37 38 38 39 41 41 41 42 42
37 34 31 25 24 22 19 19 19 20 21 28 32 34 36 39 40 39 38 40 40 39 37 37 37 38 38 37 37 37 37 37 37 37 37 37 36 36 36 36 36 36 37 37 37 38 38 38 38

GFSSGP_sfc_30mbdewp_066.txt.gz
Dewpoint
61 56 51 42 34 36 26 27 33 29 26 29 31 35 37 50 43 38 63 67 70 71 73 73 73 72 73 72 72 71 71 71 69 68 67 66 65 66 67 66 65 65 63 63 64 63 62 63 62
60 53 44 40 33 28 27 32 30 30 29 48 42 49 51 52 59 62 65 68 70 72 73 72 73 73 72 72 71 71 70 69 68 66 64 64 65 65 68 67 65 65 63 62 63 63 62 64 64
58 49 40 36 34 29 23 32 34 34 31 32 45 53 54 55 62 63 65 70 71 72 72 73 73 73 72 71 70 69 68 68 67 64 66 66 65 65 68 67 65 64 62 62 63 62 62 63 63
53 44 42 36 33 34 32 35 37 37 29 30 46 50 57 60 62 63 70 71 71 72 72 73 73 73 72 70 69 67 66 66 65 64 68 66 66 65 68 67 65 64 62 62 62 62 62 63 63
51 42 37 36 36 37 37 38 39 36 31 30 48 52 56 60 64 69 70 70 68 71 72 73 73 72 71 70 69 67 65 65 64 67 68 67 66 67 68 66 65 64 62 63 63 63 63 63 63
46 42 36 34 34 37 39 41 40 36 30 49 53 55 57 62 66 68 70 69 70 70 71 72 73 72 71 69 68 67 65 64 65 68 69 69 68 69 67 65 65 64 63 63 64 64 63 63 62
46 41 35 36 35 37 38 43 40 38 31 29 54 53 58 62 65 67 68 69 69 70 70 70 71 72 71 70 69 68 66 64 65 68 67 67 68 68 67 65 65 64 63 63 64 64 64 63 62
48 43 38 38 36 36 43 42 43 42 36 37 52 51 54 61 65 67 67 68 69 69 69 69 70 70 71 70 68 67 66 65 64 67 68 67 67 67 66 66 65 65 64 63 64 65 64 63 62
52 42 36 37 37 38 45 42 45 44 40 44 59 58 60 63 66 66 66 67 68 69 69 69 69 69 68 69 68 68 67 65 63 65 67 67 66 66 66 65 65 65 65 64 65 65 64 62 60
47 41 38 38 41 41 46 45 44 41 39 43 41 59 63 65 65 64 63 63 64 66 68 69 68 68 67 67 67 67 66 65 63 63 64 65 65 64 65 64 64 65 65 65 65 65 64 62 58
48 41 41 39 44 46 46 46 45 41 37 40 42 42 59 63 64 63 63 63 64 66 67 68 68 67 66 66 66 66 66 65 63 62 62 63 62 63 63 62 62 63 65 65 65 65 63 60 57
43 44 43 44 47 45 43 46 43 44 41 44 41 43 56 61 63 63 64 64 65 65 66 66 67 67 66 66 66 65 65 64 63 62 61 61 60 61 61 61 60 62 63 63 63 64 62 60 58
44 43 44 46 46 47 45 44 44 42 44 44 43 48 56 60 62 63 64 64 64 64 64 65 65 65 66 65 65 65 65 64 63 62 62 61 59 58 58 59 59 60 61 62 62 63 62 60 58
43 42 43 48 46 48 44 44 42 39 44 43 42 42 57 59 60 61 62 63 63 63 64 64 64 64 64 65 65 65 65 65 64 63 62 61 60 58 57 58 58 59 60 60 61 61 61 61 59
42 41 46 47 47 46 44 41 41 41 43 41 41 38 43 54 57 59 61 62 62 63 63 63 63 64 63 64 64 64 64 65 65 65 64 62 61 60 58 58 58 59 59 60 60 60 61 60 60
39 41 38 43 46 46 42 37 42 44 44 42 42 39 33 34 38 54 59 60 61 62 62 63 64 64 63 63 64 64 63 63 64 64 64 63 62 61 59 58 57 59 59 59 59 59 59 59 59
38 32 35 39 44 44 40 37 38 45 45 43 42 41 36 33 33 32 34 53 60 61 62 62 63 64 64 63 62 62 62 61 62 62 63 63 63 62 60 59 58 58 58 58 58 58 58 57 57
32 33 34 37 38 42 38 35 40 43 43 42 41 41 38 34 34 31 31 32 36 39 51 58 62 63 63 64 63 63 62 61 60 60 60 61 62 63 61 60 59 58 58 57 57 57 57 57 57
33 33 33 33 37 39 39 36 36 40 42 41 41 40 39 34 34 31 32 33 36 37 39 41 48 45 55 63 62 62 62 63 63 63 63 63 62 61 60 60 60 59 58 58 58 57 56 56 55
33 31 32 32 34 36 34 35 34 34 39 40 38 37 36 32 32 32 33 37 39 40 40 40 41 39 38 45 50 59 61 62 62 63 63 63 63 64 63 62 60 59 59 58 58 58 57 56 55
31 30 31 30 32 31 32 32 32 34 36 33 32 33 31 30 31 33 37 39 42 42 43 43 42 42 42 39 38 39 40 44 51 57 59 58 57 61 63 63 63 62 61 60 59 58 57 57 55
30 32 30 30 31 29 30 27 30 32 33 33 33 33 32 30 31 34 38 41 42 44 44 43 43 42 43 43 41 38 36 35 39 42 43 43 44 48 53 54 58 61 61 61 60 59 58 57 57
30 31 29 29 28 27 26 27 27 25 29 31 32 32 32 31 30 34 38 42 43 44 43 43 43 44 44 44 44 42 42 41 42 44 46 47 49 50 50 51 52 56 58 59 60 59 58 57 57
32 30 30 29 28 24 26 26 25 24 24 24 25 29 31 30 29 36 41 44 43 43 43 43 42 42 44 45 46 45 45 45 45 46 47 48 49 49 48 49 50 51 54 56 58 59 59 58 57
31 27 24 23 24 22 25 25 25 25 23 23 23 23 27 29 32 38 42 42 42 43 42 42 41 41 44 44 45 46 46 46 46 47 47 46 47 47 46 47 48 49 50 54 56 57 58 58 57
30 26 22 17 20 21 25 23 24 27 27 27 26 26 28 31 36 40 42 42 42 42 42 41 40 40 42 42 42 42 43 42 42 41 42 42 43 44 44 45 45 45 46 49 54 56 56 57 56
32 28 25 20 20 19 22 23 21 23 24 25 24 29 31 35 39 41 42 41 42 41 41 40 39 39 41 40 40 39 39 39 39 39 39 38 38 39 40 41 41 41 43 45 47 48 50 50 50
34 32 27 24 17 15 17 19 17 18 20 20 25 30 34 38 40 41 41 41 42 41 40 39 38 38 39 39 39 38 38 38 37 37 38 37 37 37 37 38 38 39 40 42 43 43 44 45 45
35 32 31 27 23 17 16 16 21 18 17 19 24 31 35 38 40 41 41 41 41 40 39 38 38 38 38 38 38 37 37 37 37 37 37 37 36 36 37 37 37 37 38 38 39 40 41 42 41
35 34 31 27 23 23 19 20 21 20 21 21 28 32 36 38 40 41 41 41 41 39 38 37 38 38 37 37 37 37 37 37 37 37 37 37 37 37 37 37 36 36 36 37 37 37 37 37 37

GFSSGP_sfc_30mbdewp_069.txt.gz
Dewpoint
62 56 51 42 32 34 24 25 34 30 26 31 32 32 40 49 42 34 63 67 67 70 71 71 73 73 72 72 72 71 71 70 68 68 67 66 66 67 66 66 65 63 63 64 64 63 64 64 64
61 53 45 40 31 25 24 32 30 32 32 45 40 51 50 50 60 62 64 68 68 70 70 70 73 73 73 72 71 71 71 69 67 66 65 65 65 67 67 66 65 62 62 63 63 63 64 65 64
56 48 40 36 33 26 20 33 36 37 37 34 47 54 54 55 62 63 65 69 69 70 70 71 73 73 73 72 71 69 68 68 66 64 65 65 65 68 68 66 65 62 63 63 63 63 64 64 64
52 45 42 34 32 33 30 36 38 38 30 30 48 52 58 60 62 64 68 70 70 70 70 71 73 73 72 71 70 69 68 67 65 67 67 65 65 68 68 66 65 63 63 63 62 62 63 64 64
49 44 37 36 34 36 37 38 40 36 33 31 49 51 56 61 64 68 69 69 69 70 71 71 72 72 71 70 69 67 66 65 66 68 68 66 66 68 68 66 65 63 63 63 63 63 64 63 63
47 44 36 34 35 37 39 41 39 37 34 45 51 55 57 63 65 67 69 68 68 70 71 71 72 72 70 69 68 67 65 64 68 69 68 67 67 69 67 65 65 64 63 64 64 63 63 63 63
45 41 38 35 34 35 37 43 40 39 35 31 55 53 58 62 66 68 67 68 69 70 70 70 70 70 70 69 68 67 65 65 68 68 67 69 69 68 66 65 65 64 63 64 64 64 64 63 62
48 43 40 37 35 33 42 42 44 41 37 41 53 50 55 61 66 67 68 69 69 70 69 70 70 69 68 67 68 67 65 64 67 68 66 66 67 67 66 66 65 65 64 64 65 65 64 63 62
50 42 38 38 37 38 45 42 45 44 41 50 52 58 61 64 66 66 67 67 68 68 69 69 69 69 68 67 67 67 65 63 65 67 67 66 66 66 66 65 65 65 64 64 65 65 64 62 60
46 41 39 40 40 42 45 44 44 40 39 40 39 44 59 65 65 63 63 63 64 65 67 68 68 68 69 68 67 66 65 63 61 64 66 66 65 65 65 65 64 65 65 65 65 65 64 61 58
46 41 41 39 45 46 44 45 44 41 38 42 41 42 48 62 63 62 63 63 63 65 66 68 68 67 67 67 67 67 66 64 63 62 63 64 64 64 64 64 63 64 64 64 64 65 64 62 59
43 45 42 45 46 44 43 46 43 43 41 45 43 45 45 60 62 62 62 63 64 64 66 68 68 67 67 66 66 66 66 65 63 62 62 62 62 62 62 62 62 62 63 64 64 63 63 62 60
44 44 43 46 47 45 45 44 42 43 45 44 43 42 55 57 60 62 63 64 64 65 66 66 67 67 66 66 66 66 65 65 64 63 62 61 60 59 60 60 60 60 62 62 62 62 62 62 61
44 43 45 46 47 47 43 43 41 42 43 41 42 42 39 56 60 60 62 63 64 64 65 65 66 66 66 66 66 65 65 65 64 63 63 62 61 60 58 57 58 58 60 61 60 60 60 60 61
42 41 44 45 46 45 45 41 41 42 43 42 42 42 40 36 51 59 61 62 63 64 64 64 64 65 65 65 65 65 65 65 65 64 64 63 62 61 60 58 57 58 59 59 60 60 60 60 60
40 41 38 44 46 47 46 37 39 44 43 42 42 42 41 39 34 40 57 61 63 63 63 64 64 64 64 64 64 65 64 65 65 65 65 64 63 62 61 60 59 58 59 59 59 59 59 59 59
38 34 37 40 45 45 43 39 40 44 42 43 43 42 41 39 38 34 33 48 60 62 62 63 64 64 64 63 63 64 64 64 64 64 64 64 64 63 62 61 60 60 59 59 58 58 58 58 58
33 33 36 36 43 43 41 38 41 44 42 41 43 42 41 40 39 37 32 32 37 51 58 62 63 63 64 64 63 63 63 63 62 62 62 63 62 63 63 62 61 60 60 59 59 58 58 57 57
34 34 34 37 41 41 39 36 39 41 43 42 42 41 40 39 39 35 33 33 35 37 43 53 60 59 62 63 63 63 63 63 63 63 62 61 61 61 62 62 62 61 60 60 60 59 57 57 57
33 34 32 32 39 38 39 37 37 39 41 40 37 40 40 39 35 33 33 34 37 38 40 41 45 43 49 58 60 62 62 62 63 63 63 63 63 64 63 62 61 61 60 60 59 59 58 58 57
31 31 31 31 35 34 35 34 35 35 39 40 41 40 39 37 34 32 33 36 40 40 42 42 42 40 41 40 41 42 42 45 50 56 58 46 48 54 60 62 63 63 61 61 61 60 59 58 57
30 32 32 31 32 29 32 26 31 33 34 36 36 36 37 35 32 32 34 37 41 43 44 43 43 43 44 43 40 37 37 36 40 42 44 45 50 51 52 53 55 58 60 61 61 60 59 58 58
30 32 30 31 29 27 27 28 28 31 32 34 35 34 35 35 32 32 34 39 43 44 44 43 44 44 45 45 44 43 42 42 43 45 48 48 50 50 50 50 51 52 55 57 57 59 59 58 58
31 30 29 29 27 25 27 28 26 26 28 30 34 35 35 35 34 32 37 42 43 44 43 43 43 43 45 46 46 45 45 45 46 47 47 48 49 49 47 48 49 51 52 54 55 56 58 59 58
30 27 25 24 24 22 25 25 26 27 26 25 26 29 31 32 32 33 37 42 43 43 43 42 42 43 44 45 45 46 46 47 47 47 46 46 46 46 45 46 46 47 48 51 54 56 57 58 57
29 26 22 17 20 22 25 23 23 27 27 27 26 26 27 27 30 34 40 43 43 43 42 41 41 42 43 43 43 43 43 42 42 41 42 41 41 42 42 43 43 43 44 47 51 54 54 55 55
32 27 24 20 20 19 21 23 23 22 22 22 24 25 27 30 34 38 42 42 42 42 42 41 40 41 41 41 40 40 40 40 39 39 39 39 38 39 39 40 41 41 42 44 46 48 50 49 49
33 30 25 24 17 14 16 17 15 17 18 18 19 23 29 35 39 40 42 42 42 41 41 40 39 40 40 39 39 38 38 38 38 38 38 37 37 38 38 38 39 39 40 42 43 44 45 45 45
33 30 30 26 22 18 15 15 20 20 18 19 21 26 31 36 40 41 41 41 42 41 40 39 38 39 38 38 38 37 37 38 37 37 37 37 37 37 37 37 37 38 38 39 40 41 42 42 42
34 31 29 25 23 22 20 20 23 19 20 23 27 30 34 37 40 41 41 41 41 39 38 38 38 38 38 38 37 37 37 37 37 37 37 37 37 37 37 36 36 36 37 37 37 38 38 38 38

GFSSGP_sfc_30mbdewp_075.txt.gz
Dewpoint
62 55 50 46 34 27 24 26 28 27 27 30 30 32 39 43 35 48 56 58 61 64 67 70 73 73 72 71 71 70 69 68 68 67 67 67 66 66 64 63 63 64 65 65 65 65 65 64 64
59 50 47 37 29 21 23 26 28 28 30 35 37 36 41 46 54 58 58 58 60 64 67 68 73 72 72 71 70 70 68 68 67 66 67 68 67 66 64 62 63 64 64 64 65 65 65 65 64
58 49 38 30 25 21 21 25 26 34 35 35 34 45 45 54 57 55 58 59 61 65 65 70 73 73 72 71 71 70 68 67 66 66 66 68 68 67 64 62 64 64 64 65 65 65 65 65 65
51 45 40 29 24 22 21 27 34 32 32 37 36 39 55 59 56 57 60 59 62 63 65 72 73 73 72 72 71 69 68 66 65 66 66 67 69 67 64 63 64 64 64 64 65 64 65 66 66
53 41 31 29 26 23 28 35 37 31 32 35 40 46 54 61 61 61 59 59 61 61 68 70 73 72 72 71 70 69 68 66 67 66 66 67 69 67 65 64 64 63 63 64 64 64 64 65 66
47 39 32 27 26 27 32 37 34 33 31 36 41 48 57 63 63 60 59 59 60 62 66 69 72 72 71 69 68 67 66 66 68 67 67 67 69 67 65 64 64 64 63 63 64 64 64 63 65
47 38 32 29 26 32 33 39 34 34 31 43 46 45 59 63 66 62 60 60 60 65 66 67 68 69 69 68 67 66 67 69 69 69 68 70 68 67 66 65 64 64 64 64 64 64 63 63 62
47 42 33 30 28 32 37 39 41 38 35 49 52 45 55 63 67 67 61 60 60 64 65 67 67 66 65 64 66 66 67 68 69 69 69 68 66 66 66 66 65 64 64 65 65 64 63 63 62
48 44 37 33 35 33 39 36 41 42 40 44 47 54 58 64 67 66 65 63 60 64 66 67 66 64 63 63 64 64 65 67 66 66 66 65 62 63 64 65 65 65 64 64 65 65 63 61 60
46 43 35 35 34 36 36 37 39 38 39 41 43 50 62 64 65 64 64 64 63 64 65 66 65 64 64 62 63 61 55 62 61 60 61 60 60 62 63 64 64 65 65 64 64 65 64 61 55
45 41 40 36 38 36 40 40 42 37 38 40 41 47 60 64 64 65 64 63 63 64 64 65 65 64 64 62 63 61 60 56 55 57 57 56 56 59 59 61 62 63 63 62 63 63 61 56 56
41 43 43 45 40 40 39 38 38 41 42 42 42 47 57 62 63 63 63 63 63 64 65 64 65 65 65 63 62 60 60 60 59 59 59 58 56 56 54 53 54 56 55 56 58 56 55 55 55
42 39 42 48 42 39 39 38 41 41 43 42 42 44 55 61 62 62 63 63 62 63 64 65 63 63 65 64 62 60 59 60 60 60 60 59 58 56 55 53 51 52 51 54 55 56 54 53 52
34 36 42 44 43 39 38 39 40 40 41 41 40 41 48 57 59 61 61 62 63 62 63 64 64 65 63 63 63 62 60 60 60 61 61 60 59 59 57 57 53 51 53 55 57 57 57 57 57
35 33 38 44 44 44 40 38 38 35 41 39 39 39 42 44 52 59 60 62 63 63 63 63 63 63 64 64 64 61 60 60 61 61 61 61 61 61 59 58 58 54 56 56 56 57 58 58 58
35 33 34 36 40 43 41 34 38 36 39 40 40 38 40 42 42 43 56 59 62 63 62 63 62 62 61 62 64 62 61 61 61 61 62 62 61 61 61 61 60 60 59 59 59 59 58 58 58
35 28 31 31 38 41 41 33 35 39 38 38 39 38 38 41 41 40 40 51 60 62 62 63 63 63 62 62 62 61 61 62 61 62 62 62 63 62 62 60 60 60 61 61 60 60 60 59 59
26 25 27 26 36 38 38 37 40 40 41 39 38 38 38 40 41 40 39 38 47 60 62 64 64 63 63 62 62 62 63 63 62 62 62 62 63 63 63 62 61 61 60 60 61 60 61 60 60
19 20 25 25 34 38 37 37 38 39 40 40 39 38 37 38 40 41 39 38 35 49 59 62 63 64 63 63 63 63 62 63 63 63 63 63 63 63 63 62 62 62 62 62 61 61 60 60 61
24 21 26 30 36 37 34 33 35 36 37 37 36 36 36 37 39 41 40 38 35 35 49 55 60 62 63 63 64 64 63 63 63 64 64 64 64 64 63 63 63 63 63 62 62 62 61 61 61
25 20 29 30 35 36 31 29 32 35 37 35 34 36 36 36 37 39 40 38 37 37 38 45 51 57 60 62 63 61 59 60 61 63 63 59 57 59 60 61 62 64 64 63 63 63 62 60 61
26 24 26 27 32 26 31 17 22 31 34 34 34 35 34 36 37 37 40 38 37 38 43 43 45 47 49 50 55 57 57 57 53 52 52 49 50 51 51 52 53 55 57 60 60 60 61 61 58
24 28 28 31 30 22 28 25 19 27 31 33 32 33 35 34 35 39 40 39 38 42 46 44 44 44 45 45 44 44 43 42 43 43 45 46 49 49 50 50 50 51 52 53 55 55 55 56 56
32 30 29 28 24 21 23 21 16 19 23 25 28 30 33 34 35 36 40 39 40 46 47 46 44 44 45 45 45 45 45 44 44 46 46 47 48 50 49 48 49 50 50 51 53 54 55 55 54
30 27 23 21 23 20 23 19 19 23 25 26 26 27 29 31 33 35 37 38 40 46 47 46 44 44 45 46 45 46 46 46 46 47 46 46 46 47 47 47 47 47 47 47 49 52 53 53 55
28 24 19 14 15 15 24 20 19 24 24 27 28 28 28 28 31 33 36 38 40 45 46 45 44 44 44 45 45 45 46 45 45 45 45 44 44 44 44 44 44 44 44 45 47 50 52 54 54
29 28 25 22 21 17 20 20 22 20 23 23 22 24 27 29 29 29 32 37 39 43 44 43 43 43 43 43 43 43 43 44 43 43 43 42 42 40 40 41 42 43 43 44 45 48 49 51 51
31 30 22 27 19 12 15 14 13 18 20 21 23 24 25 25 27 31 32 34 39 43 43 42 42 42 42 42 41 41 41 41 41 41 40 40 39 39 40 40 41 41 41 42 44 46 48 48 48
30 27 28 25 24 18 9 11 17 21 22 24 27 29 29 30 31 33 35 38 40 42 43 42 42 42 41 41 40 40 39 39 39 39 39 39 39 39 39 39 39 39 40 41 42 43 44 45 45
35 28 25 23 21 22 23 18 19 21 23 26 29 30 30 34 35 36 37 40 41 42 42 41 41 41 40 40 39 39 39 39 39 39 39 39 39 39 38 38 38 38 39 39 40 41 42 42 42

GFSSGP_sfc_30mbdewp_078.txt.gz
Dewpoint
62 61 59 49 43 34 28 25 33 35 36 42 38 33 41 52 48 48 57 61 68 68 70 72 72 72 72 71 70 70 69 69 68 68 67 66 65 63 63 64 64 66 66 66 65 65 64 64 65
57 57 49 46 33 26 24 28 33 35 33 36 37 40 47 53 56 55 57 62 66 68 69 70 73 72 72 71 70 70 68 68 67 68 68 67 65 63 63 63 64 66 65 64 65 65 65 65 64
55 56 44 38 32 27 24 27 30 33 35 35 36 44 56 57 55 56 59 62 65 67 68 71 73 72 72 71 70 69 68 67 67 67 69 68 66 63 63 64 64 65 65 64 65 65 66 66 65
51 51 45 33 28 28 26 28 32 34 32 35 35 48 59 62 55 58 59 62 65 65 70 73 73 72 72 72 71 68 67 65 66 67 68 69 66 63 63 64 64 65 65 65 65 65 66 66 65
52 50 37 34 30 27 26 34 36 32 31 34 41 51 57 62 62 59 58 62 64 69 71 72 73 72 72 72 70 69 67 66 66 66 67 69 67 64 63 64 64 64 64 65 64 65 65 66 66
49 47 33 30 31 28 34 36 35 33 32 39 39 50 59 63 63 58 58 61 66 69 69 71 72 72 71 70 70 69 67 68 67 67 68 69 67 65 64 64 64 64 64 64 64 64 64 64 65
49 42 37 31 30 29 36 38 34 32 31 42 43 46 59 62 65 64 58 61 66 67 69 70 71 70 69 68 67 67 68 69 68 68 68 69 67 66 65 64 65 65 64 64 64 64 63 63 62
49 46 38 37 30 31 37 38 41 39 41 49 50 45 57 61 67 67 64 62 65 67 68 68 68 68 66 66 67 68 69 69 70 69 70 68 67 66 66 66 65 65 65 65 64 64 63 63 62
50 43 40 38 35 34 38 38 41 41 44 44 50 57 63 65 66 65 63 61 64 66 67 67 66 66 64 64 65 67 67 68 68 68 68 66 64 65 64 65 65 65 65 65 65 64 63 61 60
46 43 41 40 40 37 38 37 38 39 41 43 49 60 62 65 64 63 62 62 64 65 67 67 65 63 63 62 61 62 66 65 65 66 66 64 63 64 64 64 65 65 64 64 64 65 64 62 59
45 41 42 42 44 40 36 41 41 38 40 41 41 57 63 64 64 61 62 61 63 65 66 66 65 64 63 63 63 57 60 63 62 62 61 61 62 63 64 63 63 64 64 63 64 63 64 61 59
43 45 44 45 49 45 40 40 40 42 41 42 42 57 61 63 64 64 63 63 63 64 65 66 65 65 64 63 63 61 59 57 57 58 58 57 55 57 58 62 63 63 63 61 62 62 62 58 56
43 44 44 45 47 48 45 38 39 42 42 41 42 55 60 62 63 63 64 63 63 64 65 66 66 65 65 64 63 61 60 60 60 60 60 59 58 57 55 53 54 55 54 54 57 57 56 54 53
41 39 43 44 43 44 46 39 40 39 42 40 40 46 57 60 62 62 62 63 64 64 64 65 65 66 65 64 63 62 61 60 61 61 61 60 59 58 57 57 54 52 53 54 57 58 57 57 57
32 38 43 44 44 42 46 45 39 41 41 40 40 42 45 48 56 60 61 62 64 64 64 64 65 65 65 65 64 62 62 60 61 62 62 61 61 61 58 58 57 53 55 55 57 57 58 58 58
33 35 36 42 43 44 44 35 38 39 40 39 39 39 43 43 45 54 61 62 63 63 64 64 65 64 64 64 64 64 62 61 62 62 62 62 61 62 62 60 60 61 57 58 59 59 59 59 59
37 33 31 36 42 41 42 39 38 39 40 40 40 40 39 42 42 41 49 56 62 62 62 63 63 63 63 64 64 63 62 61 61 62 62 62 62 62 62 62 61 61 61 61 60 60 60 60 59
30 29 31 29 40 35 38 39 39 39 38 36 38 39 39 39 42 41 39 41 51 61 62 63 63 63 62 63 63 63 62 62 63 62 62 63 63 63 63 62 62 61 61 61 61 61 61 60 60
28 27 25 27 34 37 36 37 38 40 40 40 38 39 39 39 41 40 39 38 38 50 61 63 64 64 63 62 61 62 61 62 64 64 64 64 63 63 63 63 62 62 61 61 62 62 61 61 61
34 26 24 28 39 38 36 35 36 39 40 41 40 39 39 39 39 40 40 38 36 39 55 61 63 64 64 64 64 64 63 64 64 65 64 63 63 64 64 64 64 64 64 64 63 63 62 61 61
35 28 27 33 36 38 34 32 32 36 37 37 39 39 39 38 38 40 40 38 36 36 43 54 57 62 63 64 63 61 60 61 62 64 63 56 56 58 59 60 61 62 63 63 63 63 62 61 61
30 30 28 31 33 28 34 22 29 29 34 36 36 36 35 36 37 38 41 39 37 38 41 42 49 52 53 56 60 60 59 59 56 58 53 50 50 51 51 51 52 53 55 58 60 60 60 60 59
30 30 31 33 31 27 31 27 22 27 30 34 36 35 35 36 37 37 40 40 38 43 43 44 46 47 47 48 51 54 50 45 44 45 46 48 50 50 50 50 50 51 52 53 54 55 55 56 55
32 32 33 32 30 24 25 24 20 24 28 31 33 34 34 36 36 37 41 40 40 47 47 45 45 45 46 46 45 45 44 44 44 46 46 48 50 50 49 49 49 49 50 50 51 53 54 54 53
32 33 25 22 22 21 22 21 22 22 25 25 28 28 30 34 35 36 40 39 42 46 47 46 45 45 46 46 46 46 46 45 46 47 47 47 48 49 46 46 46 46 46 46 47 49 52 53 53
30 26 22 15 18 20 22 20 20 24 26 27 28 28 29 29 29 35 37 40 42 46 47 46 45 45 46 46 46 47 47 47 46 45 45 44 43 43 43 43 44 44 44 45 46 47 50 52 52
29 26 25 25 19 18 22 21 21 23 24 24 25 26 28 29 29 29 32 41 44 46 47 46 45 45 45 45 45 45 45 44 44 43 43 42 42 40 40 41 42 42 43 43 44 46 48 50 51
34 30 23 24 15 12 19 18 17 17 20 22 25 27 27 26 25 30 32 37 41 45 46 45 44 44 44 43 43 42 42 42 42 41 41 40 40 40 40 40 40 41 41 42 43 45 47 47 48
30 32 28 26 24 21 14 14 20 21 23 27 29 30 32 32 32 32 34 34 39 44 44 43 43 43 43 42 41 40 40 40 40 40 39 39 39 39 39 39 39 39 39 40 41 42 43 44 44
35 30 28 24 23 23 22 20 21 24 25 28 30 29 30 34 36 36 37 38 40 43 43 42 42 42 41 40 40 40 40 40 39 39 39 39 39 39 38 38 38 38 39 39 40 41 41 42 42

GFSSGP_sfc_30mbdewp_081.txt.gz
Dewpoint
62 58 60 52 38 39 33 26 30 37 36 41 38 36 50 54 52 46 63 69 69 71 72 72 72 72 71 70 70 70 69 69 68 67 63 64 63 64 65 66 67 66 64 64 65 64 65 65 66
60 56 53 47 38 29 24 29 32 35 33 39 41 45 54 53 55 58 66 68 68 70 71 72 72 72 71 70 69 69 68 68 69 68 66 63 62 63 63 65 65 65 64 64 65 65 65 65 65
56 56 46 42 35 30 25 25 34 37 36 38 44 53 58 55 56 58 67 68 68 68 71 72 72 72 71 70 69 68 67 67 69 69 67 64 62 63 63 65 65 63 64 65 65 65 66 65 65
52 53 49 39 32 31 29 33 34 38 34 34 44 48 60 64 63 61 67 68 67 68 71 73 72 72 71 70 69 67 67 67 68 69 68 65 62 64 64 65 65 64 65 65 66 66 66 66 65
53 52 41 38 35 30 30 34 34 33 33 35 50 53 57 63 65 62 66 67 68 70 72 72 72 72 72 71 69 68 65 66 67 69 68 65 63 63 64 65 65 65 65 65 65 66 66 66 65
48 49 37 34 34 32 33 35 32 33 32 35 51 56 59 65 65 65 65 68 70 71 71 72 72 72 71 70 70 68 67 67 67 69 69 66 64 63 64 64 64 65 65 64 64 64 65 65 65
47 43 38 32 32 32 35 37 34 32 35 42 49 51 58 63 65 66 66 69 70 71 71 71 71 71 70 70 69 69 69 68 69 70 69 68 66 65 64 65 64 64 64 64 64 64 63 63 62
48 45 39 37 31 31 37 40 41 39 45 48 51 49 49 60 66 66 68 68 69 70 70 70 69 68 67 67 68 69 69 69 69 69 69 68 67 66 66 65 65 65 64 64 64 63 63 62 61
50 41 38 38 37 35 38 38 40 40 44 51 55 59 58 63 60 65 65 66 67 68 68 68 67 65 65 66 68 68 68 69 69 69 67 66 66 66 65 65 65 65 65 65 64 64 62 60 59
45 41 39 41 42 36 38 37 37 41 45 55 58 62 65 64 60 60 64 64 66 66 67 67 66 64 63 62 66 67 67 68 68 68 66 65 64 64 65 65 64 64 64 64 64 64 63 61 59
44 41 44 46 48 45 39 39 40 40 41 43 57 60 63 64 60 58 62 64 64 66 66 66 65 64 63 59 62 65 65 66 66 67 66 64 63 64 64 64 64 64 64 63 64 64 63 61 60
42 44 45 47 49 48 42 41 42 41 41 42 58 62 63 63 62 60 62 63 64 64 66 66 64 63 63 61 60 59 64 63 63 63 62 61 62 63 63 63 62 62 63 62 62 62 62 61 60
41 44 46 46 48 47 47 43 42 41 41 44 59 60 61 62 63 64 62 64 63 64 66 65 65 64 64 63 63 58 57 59 59 61 60 57 57 57 57 60 62 62 62 61 61 61 60 57 55
43 42 44 46 46 48 45 46 42 41 41 42 56 58 60 62 62 62 63 63 63 64 65 66 66 65 65 63 63 63 61 59 60 60 60 59 58 57 56 55 54 53 53 53 56 57 57 57 57
41 39 40 43 45 44 46 43 42 40 41 40 49 56 58 60 61 61 62 62 64 64 65 65 66 66 65 64 63 63 61 61 61 61 61 60 61 59 57 57 57 52 53 53 56 57 58 58 58
37 38 36 39 45 46 44 39 43 42 40 39 41 44 46 49 56 59 61 62 64 63 64 65 66 66 66 65 64 63 63 61 62 62 61 61 61 61 59 58 60 57 54 57 58 58 58 58 58
36 33 36 39 44 45 43 38 40 45 40 39 40 40 42 43 44 54 59 62 63 63 64 64 65 64 65 65 65 64 63 61 61 62 62 61 61 62 62 61 61 61 61 59 59 60 60 59 59
31 31 34 35 40 41 40 38 39 43 42 39 40 40 39 42 41 43 46 50 61 63 63 63 64 64 65 65 65 64 63 62 62 62 62 62 62 62 62 62 61 61 61 61 61 61 61 60 60
34 32 31 34 41 37 36 34 35 38 41 38 38 38 39 39 41 40 40 41 47 60 63 63 63 63 63 63 63 63 62 61 63 64 64 64 63 63 63 63 62 63 62 62 62 62 61 60 61
35 29 28 31 39 36 34 31 37 38 40 39 39 39 39 39 40 39 38 38 38 51 60 63 63 63 63 64 63 63 63 63 63 64 62 63 63 64 64 63 64 64 63 63 63 63 61 61 61
35 29 27 30 38 40 38 35 37 37 39 40 41 41 40 39 39 40 39 37 36 37 54 60 63 63 64 64 63 62 62 63 63 63 59 56 58 58 58 59 61 61 62 62 62 62 62 60 60
33 33 31 33 33 29 35 27 31 34 37 39 39 40 41 40 40 39 39 39 36 36 43 54 57 61 63 63 62 61 60 60 60 62 53 52 52 51 51 52 52 52 53 54 56 56 58 58 57
34 35 31 32 32 30 33 26 25 28 33 37 37 37 37 37 37 39 40 39 37 37 40 47 50 53 56 56 60 60 57 54 49 50 50 49 50 50 50 50 50 51 52 52 53 54 54 55 55
37 34 35 34 32 26 29 28 23 24 29 32 35 37 37 36 36 36 39 41 39 42 43 44 46 47 48 50 51 55 48 45 45 45 46 48 49 49 49 49 48 48 49 48 49 50 52 53 53
36 31 27 25 24 20 25 27 22 24 26 29 32 35 34 35 35 36 40 40 43 44 45 45 45 45 46 45 45 46 44 44 44 45 47 48 49 49 46 46 46 46 45 46 46 47 49 51 53
34 32 21 17 20 19 22 21 20 24 25 27 29 28 29 29 30 34 40 39 42 44 45 45 45 45 46 46 46 47 46 47 47 47 47 46 46 44 43 43 44 44 44 44 45 46 48 51 52
32 30 26 24 20 20 21 22 21 25 25 26 26 26 27 29 29 30 36 40 43 45 46 45 45 45 46 46 47 46 46 45 44 44 43 43 42 40 41 41 42 42 42 43 44 45 47 48 51
32 31 23 23 14 14 21 19 16 21 20 26 27 28 29 29 28 30 34 41 43 46 46 46 45 45 46 45 45 44 44 44 43 42 41 40 40 40 40 40 40 40 41 41 42 44 46 46 47
31 30 28 26 24 20 14 14 20 21 26 28 29 30 31 32 32 33 34 34 42 45 46 45 44 44 44 43 42 42 42 41 41 40 40 40 39 39 39 39 39 39 39 40 41 42 42 44 45
35 31 30 23 21 23 21 18 23 26 28 29 29 30 31 34 35 35 36 38 43 44 45 44 44 43 42 42 41 40 40 40 39 39 39 39 39 39 38 38 38 38 39 39 39 40 41 42 42

GFSSGP_sfc_30mbdewp_084.txt.gz
Dewpoint
60 59 57 53 39 37 30 26 33 37 44 41 41 43 53 54 48 43 66 68 70 71 71 72 72 71 70 70 69 69 68 68 67 64 64 66 67 67 67 67 65 63 64 64 65 65 66 66 66
60 56 55 47 39 30 28 30 26 34 42 43 44 51 55 52 58 65 66 69 70 70 71 71 71 71 70 69 69 69 69 68 67 64 63 64 64 65 65 64 63 63 64 64 65 65 65 66 67
56 56 48 43 38 29 27 28 26 32 40 47 45 56 57 58 61 62 68 69 70 70 71 72 71 71 70 69 69 68 69 69 68 64 62 63 63 64 63 64 63 64 65 65 65 65 66 66 66
54 54 51 38 32 32 28 30 27 36 41 40 47 49 59 64 64 65 68 68 69 71 72 72 71 71 70 69 69 68 69 69 68 66 62 63 63 64 64 63 65 65 65 65 66 65 65 66 67
54 51 41 40 37 31 31 31 34 36 39 39 47 52 56 61 66 67 67 67 69 71 72 71 71 71 70 69 69 68 68 69 69 66 63 63 64 64 66 65 65 65 65 65 66 66 66 66 65
49 48 38 35 36 35 31 30 33 35 35 47 49 51 56 64 65 67 67 68 70 70 71 71 71 71 70 69 68 67 68 68 70 68 64 63 64 64 65 65 65 65 65 65 65 65 65 64 64
47 42 38 35 34 31 32 36 32 33 32 44 54 52 58 60 64 67 67 70 70 71 71 71 71 71 70 70 69 68 68 68 70 69 67 65 64 64 64 64 65 65 64 64 64 64 64 63 61
49 43 39 36 33 31 36 40 40 35 44 49 53 52 56 60 65 66 68 69 70 70 70 70 70 69 69 69 69 69 68 69 69 69 68 66 65 65 66 65 65 64 64 64 64 63 63 62 60
51 41 38 38 32 33 38 38 39 43 46 52 56 55 58 61 63 63 66 67 68 68 69 69 67 66 65 67 68 69 68 68 69 68 67 66 66 65 65 65 66 66 65 64 64 63 62 60 58
46 40 39 40 42 36 38 37 39 45 51 56 59 62 62 58 60 60 63 64 66 67 68 67 66 64 64 66 67 67 68 68 68 68 66 66 65 65 64 64 64 65 65 65 64 64 62 60 58
45 40 42 43 49 47 41 39 40 43 42 50 56 60 62 61 60 60 61 62 66 66 67 66 65 63 62 65 66 67 67 67 67 67 66 64 64 63 65 64 64 64 64 63 64 63 63 60 59
43 44 43 47 49 47 46 46 41 41 41 52 59 60 62 60 59 59 60 64 64 65 66 66 65 63 60 62 64 65 66 65 65 67 65 64 63 63 63 63 63 63 63 61 62 62 61 61 60
42 44 45 48 48 48 46 44 41 41 42 52 60 61 62 62 62 60 62 62 61 58 60 66 64 63 60 59 60 62 64 64 64 64 64 62 62 63 63 62 62 61 62 62 61 62 61 61 60
41 45 43 47 47 47 45 45 42 41 44 56 57 59 61 61 62 61 59 61 57 56 60 66 64 63 62 61 60 57 60 61 61 61 62 59 61 61 60 58 61 61 60 60 58 60 60 57 56
41 41 45 43 44 46 46 42 41 43 42 52 54 57 60 61 62 62 62 61 62 62 64 66 66 65 64 63 62 62 59 58 59 60 60 59 58 57 57 55 55 53 53 53 55 57 58 58 58
37 40 37 43 45 47 42 38 42 45 43 44 49 54 57 58 60 61 62 62 64 64 65 66 66 66 65 64 64 63 62 61 60 61 60 60 60 59 58 58 58 57 53 54 55 57 58 58 58
37 32 35 38 42 45 40 36 41 45 44 40 42 44 46 48 51 57 61 62 63 64 62 65 65 65 65 66 65 64 63 62 62 61 61 61 61 61 60 59 59 61 60 57 58 59 59 59 59
30 32 34 35 42 41 41 40 43 43 44 41 40 40 41 43 43 53 59 61 62 64 64 64 65 65 65 66 66 65 64 62 62 62 62 62 61 61 62 62 61 61 61 61 61 60 61 61 60
33 34 33 36 40 39 38 39 40 42 41 41 41 40 39 41 42 43 50 53 60 62 63 64 64 65 65 65 63 63 62 62 63 64 63 62 62 62 62 62 62 62 61 61 62 62 61 61 61
33 29 34 35 40 38 37 36 39 42 40 41 40 39 39 39 40 41 40 42 53 60 62 63 63 64 64 64 63 63 63 64 64 65 64 64 64 63 63 63 63 63 63 63 63 62 60 60 59
34 34 32 35 39 38 37 34 35 37 38 40 40 40 39 39 39 40 39 38 39 51 59 62 63 63 63 64 63 63 63 63 63 61 61 61 61 61 61 61 62 61 61 60 61 61 61 59 59
30 34 33 34 35 32 39 29 32 35 35 37 38 40 41 41 40 40 40 38 37 37 53 61 63 63 63 64 62 61 61 60 61 62 56 56 55 54 53 53 53 54 54 54 55 55 57 58 56
33 36 33 35 34 33 35 29 25 30 32 35 37 39 39 40 41 41 40 40 38 36 38 55 60 61 62 63 62 61 60 60 57 56 53 52 51 50 49 49 50 51 51 52 52 53 53 55 55
39 35 35 36 35 28 30 27 23 24 28 30 35 38 38 38 39 38 39 41 40 38 39 48 54 57 59 60 62 61 59 55 55 53 53 50 50 48 49 49 48 49 49 48 49 49 50 52 53
38 31 27 26 25 21 28 29 28 24 27 29 31 35 37 38 37 37 37 39 40 40 40 45 49 50 53 55 56 58 54 52 53 51 50 49 49 48 47 47 46 46 46 46 46 46 47 49 51
35 30 23 19 21 20 27 26 21 24 25 28 31 34 29 29 32 35 37 40 42 42 43 44 45 45 46 46 47 50 49 47 48 47 48 49 49 47 45 45 44 44 44 44 44 45 46 49 50
34 29 27 22 21 19 21 21 22 25 26 26 26 27 27 28 30 31 37 40 42 43 43 43 44 45 46 46 47 46 46 46 46 46 46 46 45 43 42 42 42 42 42 42 43 44 45 48 49
32 32 23 22 16 13 20 20 15 23 22 25 25 27 29 30 29 31 35 40 41 44 46 46 45 45 46 46 46 46 46 45 45 44 43 42 41 40 41 41 41 41 41 41 41 42 45 45 47
30 28 28 25 24 17 16 17 19 22 24 25 28 29 30 32 33 33 33 36 42 45 46 45 45 45 45 45 44 44 44 43 42 42 41 40 40 40 39 39 39 39 39 39 40 41 42 43 45
34 31 28 21 21 22 20 17 24 23 28 28 29 30 32 33 35 36 36 37 39 43 45 45 44 44 44 43 43 42 41 40 40 40 40 40 40 39 39 38 38 38 39 39 39 40 41 42 42

GFSSGP_sfc_30mbdewp_087.txt.gz
Dewpoint
60 59 57 55 41 38 27 28 35 41 46 46 44 51 53 54 46 41 66 67 69 70 71 71 71 70 70 69 69 68 68 67 66 68 68 69 69 69 67 65 65 65 64 64 65 65 66 66 66
58 56 55 49 39 30 29 28 26 37 46 46 44 52 54 54 62 64 66 69 70 70 71 71 71 70 70 68 68 67 67 65 65 66 67 67 68 67 65 64 63 64 64 65 66 66 67 67 67
57 56 51 44 39 28 30 33 25 37 47 47 45 55 57 58 62 64 68 69 70 70 71 71 71 70 69 68 68 67 67 65 63 65 66 66 66 65 63 63 63 64 65 66 66 66 67 67 66
54 53 51 39 35 33 29 32 29 38 43 50 49 46 60 63 63 66 69 69 70 71 71 71 70 70 70 69 69 68 68 66 63 63 64 65 64 62 63 64 65 65 65 66 66 66 66 67 65
54 51 41 39 37 34 32 30 31 37 40 47 48 47 57 63 66 68 69 69 69 70 71 70 70 70 69 68 68 69 68 67 64 63 64 64 64 63 64 65 65 65 65 66 66 66 67 66 64
47 47 40 37 34 37 33 32 32 35 40 42 49 50 57 63 66 67 68 69 69 69 70 70 70 69 69 68 68 69 70 68 65 63 64 64 65 64 64 65 65 65 65 66 65 66 66 65 63
45 44 39 38 33 35 35 34 31 34 38 44 51 50 58 62 65 66 68 69 70 70 70 70 70 70 69 68 68 68 69 69 67 65 64 65 65 65 65 65 65 65 65 65 65 65 64 63 61
47 46 38 37 34 34 33 37 39 33 38 53 54 51 54 59 65 67 68 69 70 69 70 70 70 70 69 69 68 68 68 69 69 67 65 65 65 65 65 65 65 65 65 65 64 64 63 61 60
48 41 38 37 35 34 35 38 40 45 48 53 55 56 58 62 61 65 65 67 67 68 68 69 68 68 68 68 68 68 68 68 69 67 65 65 65 65 65 65 65 65 65 64 64 63 62 59 58
43 38 38 40 37 34 38 38 40 46 52 55 59 60 60 63 61 62 63 65 65 66 67 68 67 66 66 67 68 67 68 68 68 66 65 65 65 64 64 65 65 65 65 65 64 63 62 60 58
40 37 39 43 48 47 41 40 43 46 47 54 54 59 60 61 60 62 63 64 65 66 67 67 65 64 64 66 67 67 67 67 68 66 65 65 64 64 63 63 64 64 64 63 64 63 63 60 59
37 39 40 45 49 47 44 47 41 41 42 48 58 60 59 58 59 59 59 62 63 62 61 63 64 63 62 65 66 66 66 66 67 66 65 64 63 63 64 63 63 62 62 61 61 61 61 61 60
39 36 44 48 48 46 47 45 43 41 44 60 61 59 57 58 59 60 60 57 61 59 60 61 60 64 60 63 64 65 65 65 66 66 65 64 63 62 63 62 62 62 61 61 60 61 61 61 60
40 39 41 45 47 46 45 45 44 42 48 58 59 60 60 59 60 61 61 61 60 54 54 60 59 63 61 60 62 63 64 64 64 65 65 63 63 62 62 62 61 61 61 61 61 59 60 60 57
38 37 41 45 45 46 45 42 41 45 45 55 56 57 60 60 61 60 61 59 58 57 59 59 58 64 64 60 60 60 62 62 62 62 63 62 61 61 62 60 58 60 60 57 56 56 57 58 58
36 38 33 43 45 45 42 38 43 46 42 48 51 55 58 60 60 60 60 59 57 57 56 56 60 66 66 65 63 60 58 59 60 60 61 61 59 59 58 56 55 55 53 53 54 56 57 57 58
35 31 33 38 43 42 41 39 42 45 43 41 44 47 50 53 59 61 60 59 58 56 58 58 61 65 65 66 66 65 64 60 59 60 60 60 60 59 58 58 58 60 56 54 56 57 58 59 59
30 31 34 34 41 40 38 38 43 44 42 42 41 41 42 43 45 53 61 62 63 62 62 63 65 65 65 65 65 66 66 64 62 61 61 61 60 61 60 59 59 60 61 61 60 59 60 60 60
31 33 34 37 42 39 37 38 39 42 42 40 41 40 40 42 42 44 57 60 62 63 63 64 64 64 64 64 64 63 63 64 63 62 62 62 61 61 61 61 61 61 61 61 61 61 60 60 61
33 32 32 36 39 37 38 37 39 41 43 41 40 41 40 40 40 41 42 49 57 61 62 61 61 62 63 65 64 64 64 64 64 64 64 64 63 62 62 62 62 62 62 63 63 62 61 60 60
33 32 33 34 38 38 38 35 37 41 43 42 41 41 40 40 39 40 40 40 42 54 61 62 63 63 64 65 64 63 63 63 63 63 63 63 63 64 63 63 63 63 62 61 60 60 60 58 58
31 35 35 36 33 31 38 28 33 36 37 38 38 39 40 40 40 40 40 39 38 39 51 61 62 63 63 64 63 62 61 60 61 61 60 59 59 60 60 60 59 57 56 56 56 55 57 58 57
35 36 36 35 34 34 34 30 26 33 35 35 37 37 40 41 41 41 40 40 40 38 37 52 61 63 63 63 63 62 61 60 61 60 58 56 55 54 55 54 53 53 52 52 52 52 53 54 54
39 36 36 36 35 28 32 29 23 26 30 31 33 36 38 39 40 41 41 41 41 40 38 40 53 59 61 62 62 62 60 58 57 56 56 54 53 52 51 50 50 49 49 48 48 49 49 51 52
38 31 27 25 25 23 31 29 27 29 27 28 29 32 36 38 38 39 38 38 39 40 40 40 47 53 58 58 61 61 60 57 57 56 55 53 51 49 48 47 46 46 46 46 46 46 46 47 48
36 28 24 20 22 21 30 25 25 23 27 28 31 34 33 33 34 36 37 38 39 40 41 41 45 50 50 54 54 56 54 54 55 55 54 52 50 48 47 45 45 44 44 44 44 44 45 47 48
33 27 27 21 21 20 25 22 22 25 25 26 27 27 26 29 30 32 37 38 40 42 43 43 44 47 47 47 47 48 52 49 51 50 50 50 48 45 44 43 43 42 42 42 42 43 43 46 47
33 31 23 22 17 15 19 20 15 23 24 25 26 27 29 30 30 31 34 40 41 44 45 45 45 45 46 46 46 46 46 46 46 46 46 45 42 42 41 41 41 41 41 41 41 41 43 44 45
30 28 27 25 24 16 16 16 20 21 23 25 27 30 31 32 33 33 34 36 42 44 45 45 45 45 45 46 45 45 44 44 43 43 42 41 41 41 40 41 40 39 39 39 39 40 41 41 42
34 30 27 19 21 21 18 17 25 22 26 28 29 30 32 34 35 36 36 38 39 41 44 45 45 45 45 45 44 44 43 42 41 41 40 40 40 40 39 39 38 38 39 39 39 39 40 40 41

GFSSGP_sfc_30mbdewp_090.txt.gz
Dewpoint
58 58 57 55 43 40 33 33 35 43 44 46 46 51 51 54 45 38 65 67 69 70 70 70 70 70 69 67 68 68 68 68 69 70 70 70 70 69 67 66 65 64 64 64 65 65 65 66 66
57 56 55 50 40 33 30 30 33 42 46 49 47 50 54 54 62 64 65 69 69 70 70 70 70 70 69 68 68 68 67 67 69 69 70 70 69 67 66 65 65 64 65 65 66 66 67 67 66
58 56 48 45 40 34 28 29 29 39 49 50 49 55 56 59 63 64 68 69 70 70 70 71 70 70 68 68 68 67 66 66 67 69 68 68 67 65 64 65 64 65 66 66 66 67 67 66 66
54 53 48 42 37 37 32 31 31 41 48 51 52 48 60 63 63 66 69 69 70 70 70 71 70 70 69 68 67 66 64 64 66 66 68 67 66 64 63 65 65 66 66 66 67 67 67 66 66
54 49 39 40 39 37 34 32 33 39 45 49 52 49 55 63 66 68 68 69 68 70 70 70 70 69 69 68 68 68 65 63 64 64 65 64 64 64 65 65 65 66 66 66 67 67 67 65 65
46 46 38 36 38 38 35 33 33 37 42 49 50 51 54 64 67 68 69 68 67 69 70 69 69 69 69 68 69 69 66 64 64 64 64 63 63 64 63 65 65 66 66 66 66 67 66 64 64
44 42 36 35 38 38 37 35 31 35 39 47 51 50 56 63 65 68 68 67 66 70 69 69 69 69 68 68 69 69 68 66 64 65 65 66 63 64 64 64 65 65 66 66 66 65 64 62 61
46 42 36 36 36 37 36 35 34 34 34 46 50 49 50 62 64 67 68 68 69 69 69 69 69 68 68 68 68 68 68 67 65 65 65 65 65 64 64 65 65 65 65 65 64 64 62 61 60
46 38 33 36 37 38 36 34 40 43 46 52 52 54 55 62 61 59 65 66 66 67 68 68 68 68 68 67 67 67 68 68 66 65 65 65 65 65 65 65 66 66 65 65 64 63 62 59 57
41 34 33 37 38 37 38 37 39 46 51 53 56 59 60 61 58 56 62 64 65 66 67 67 67 67 67 68 67 67 68 69 67 65 64 64 64 64 64 65 65 65 65 64 64 63 62 60 58
38 35 35 38 40 45 42 40 43 46 48 51 53 58 59 59 56 54 56 57 64 66 65 63 64 65 66 66 67 66 67 68 67 65 64 64 63 63 63 63 64 64 64 63 63 62 62 59 58
34 37 38 38 41 47 45 46 42 46 44 48 58 58 58 55 55 55 50 57 64 62 62 61 60 62 63 65 66 66 66 66 67 65 65 64 63 62 62 62 62 62 62 61 60 60 60 60 60
36 37 38 40 40 45 48 45 42 41 45 58 59 57 58 55 54 54 54 61 64 62 61 61 61 60 63 62 65 66 65 66 66 66 65 63 63 62 63 62 62 61 61 61 60 60 60 60 60
37 37 37 41 40 42 46 44 45 43 46 59 59 57 58 59 59 60 60 61 62 59 56 56 59 60 61 62 63 65 65 65 65 66 65 64 63 62 62 62 62 61 60 60 60 59 59 60 58
36 36 38 37 40 44 46 42 43 46 47 56 58 57 57 59 60 59 59 59 58 57 53 52 54 61 61 63 60 62 64 64 64 64 66 64 63 62 62 62 62 61 61 60 59 58 57 57 58
35 35 33 38 37 40 43 39 43 45 45 47 53 57 58 59 59 61 60 59 54 55 52 54 60 57 63 64 62 62 61 62 63 63 63 64 63 62 61 61 60 58 58 57 53 54 56 57 57
33 29 32 34 39 43 41 41 43 45 44 42 43 47 55 57 58 60 60 59 57 57 56 57 59 60 62 65 65 64 63 63 61 61 61 61 61 60 60 59 57 56 54 53 54 55 57 58 59
29 31 33 34 39 39 38 37 40 43 42 42 41 42 44 53 55 60 60 59 58 57 58 57 58 61 63 64 63 65 65 65 64 62 60 60 60 59 58 58 58 59 58 56 56 57 58 59 59
34 33 32 35 39 38 37 37 38 41 41 42 40 41 41 43 44 55 60 60 58 57 57 57 57 61 62 63 62 64 63 64 64 64 62 60 60 60 59 59 59 60 60 60 61 60 60 60 61
33 34 34 37 39 37 37 36 38 40 42 43 42 40 41 41 41 45 58 60 62 59 59 59 58 61 64 63 61 62 63 64 63 64 64 64 63 62 62 61 61 61 61 61 62 62 60 59 59
33 30 32 31 37 39 36 34 36 40 43 44 43 41 41 40 40 40 42 53 57 61 62 62 60 62 62 63 63 63 63 63 63 64 64 64 64 64 63 63 62 62 62 62 61 60 60 58 58
30 35 33 35 31 28 35 27 32 36 39 42 40 40 40 41 40 40 40 39 42 50 59 61 62 62 62 63 62 60 59 59 61 62 63 62 62 61 62 63 63 61 59 59 58 57 57 58 57
35 37 34 34 34 33 33 30 29 35 35 38 38 38 38 40 41 40 40 40 40 39 39 51 60 62 62 62 62 61 61 61 61 60 59 58 58 58 58 59 58 57 56 55 54 53 52 53 53
38 36 36 36 34 26 32 27 24 30 33 34 36 36 37 38 41 42 42 42 41 41 39 38 45 56 61 62 62 62 60 60 59 59 58 57 55 54 54 54 54 52 50 49 48 49 49 50 51
37 33 27 25 25 23 31 28 26 29 28 30 33 31 34 38 39 39 40 40 40 41 41 40 41 45 56 60 61 61 61 59 58 58 57 56 54 52 49 48 47 47 46 46 46 45 45 46 46
35 30 26 20 21 24 31 26 25 24 27 29 31 32 35 37 37 38 38 38 38 39 40 41 42 44 52 56 56 58 58 58 58 57 57 55 54 51 48 46 45 45 44 44 44 44 44 45 47
32 26 27 21 22 23 27 24 21 25 26 27 27 27 29 30 31 34 39 38 39 41 42 42 42 46 49 49 50 51 54 53 54 55 54 53 51 48 46 44 43 43 42 42 42 42 42 44 46
33 30 23 22 19 14 18 20 16 22 25 26 27 28 29 31 32 33 35 39 41 44 45 44 44 44 46 46 46 46 47 49 51 50 51 50 46 45 43 42 42 41 41 41 40 40 42 43 43
30 27 26 25 23 15 14 15 21 22 23 27 29 31 32 33 34 35 36 38 41 43 44 45 44 44 45 46 45 45 45 45 45 46 45 43 42 42 41 41 41 40 40 39 39 39 40 41 41
34 30 25 18 20 20 18 17 26 24 26 29 30 31 34 35 36 36 37 37 38 40 42 44 44 44 45 45 45 44 43 43 43 42 41 41 40 40 40 39 39 39 39 39 39 39 39 39 40

GFSSGP_sfc_30mbdewp_093.txt.gz
Dewpoint
58 57 57 54 42 42 38 38 38 43 46 49 46 53 50 54 44 39 65 67 68 69 69 69 69 70 68 68 69 69 69 70 70 69 70 70 69 69 67 65 64 63 64 64 65 65 65 66 66
58 56 55 50 39 35 34 36 35 42 46 49 49 48 54 53 61 63 65 68 69 69 69 68 70 70 68 68 68 68 69 69 69 70 70 70 69 68 66 64 64 65 65 65 65 65 66 66 66
55 56 48 44 39 32 32 31 33 40 49 51 50 52 53 55 62 63 68 69 69 69 69 69 70 69 69 67 68 67 67 68 68 69 69 70 68 66 65 64 66 65 65 67 67 67 66 66 65
54 53 49 38 36 37 34 31 31 40 49 50 50 49 55 63 64 66 68 69 69 69 69 70 70 69 69 69 68 66 66 68 68 68 68 68 66 65 64 65 66 67 67 67 67 67 66 67 66
54 49 40 37 37 39 38 36 33 38 47 49 51 48 52 62 66 67 68 68 68 68 69 69 69 69 68 68 67 65 65 66 67 68 67 66 64 64 64 65 66 66 66 67 67 66 66 66 66
46 47 37 33 35 38 40 37 36 35 46 50 48 48 50 62 66 66 68 67 67 68 69 68 69 69 68 68 68 66 64 64 65 66 65 64 65 65 63 65 65 65 66 67 66 66 65 65 64
42 40 34 32 33 34 39 40 37 33 44 49 51 48 54 60 64 67 68 67 67 68 68 68 68 69 69 69 68 67 65 65 65 64 62 64 65 62 63 64 64 65 66 67 67 66 64 62 62
44 39 33 34 33 34 38 40 37 33 35 49 52 48 52 61 64 66 67 66 68 68 68 68 67 67 67 67 68 68 66 65 65 63 66 63 63 62 63 65 65 65 66 66 65 64 62 61 60
45 35 30 32 35 35 38 39 41 40 39 49 51 52 58 61 62 62 65 66 66 67 67 67 66 66 66 66 67 68 67 65 65 65 65 64 63 63 63 65 65 66 65 65 64 63 61 59 58
38 32 30 32 35 36 38 39 39 40 40 48 52 60 61 60 60 58 57 63 64 65 66 67 66 66 65 65 66 68 68 65 64 64 64 64 64 64 64 65 65 65 65 64 64 63 61 59 58
35 32 32 32 34 41 41 40 40 41 41 45 49 58 60 58 58 58 57 57 61 65 64 66 65 66 66 66 66 67 68 67 65 63 63 64 64 64 64 64 64 64 64 63 63 62 61 59 58
32 33 34 36 37 39 39 46 42 44 41 47 54 58 58 57 57 56 57 57 58 62 62 63 64 64 65 66 66 66 67 68 66 64 63 63 62 63 62 62 62 62 62 60 60 60 60 60 60
31 30 34 37 37 40 43 42 44 45 42 46 56 57 55 56 57 58 58 55 58 61 62 61 61 62 63 64 66 65 66 67 67 65 64 63 63 62 62 62 62 62 62 61 60 60 61 61 60
36 33 35 37 36 39 41 41 43 45 47 48 53 57 57 55 54 56 56 55 60 62 62 62 61 60 61 62 64 65 65 65 67 67 65 64 63 62 62 63 62 62 61 61 61 60 60 60 60
33 32 37 36 37 38 42 36 36 45 47 49 50 56 56 54 55 54 53 55 61 61 60 60 60 60 60 62 61 63 65 65 65 66 67 65 63 63 63 63 63 62 61 60 60 60 58 58 58
35 36 31 36 37 39 36 29 41 45 46 47 50 52 56 56 55 54 54 58 62 61 58 57 58 61 61 63 62 62 62 64 64 64 65 66 64 63 63 63 62 62 61 61 59 55 55 57 58
34 28 30 35 38 39 35 33 41 44 44 44 45 50 53 58 59 59 58 59 59 58 55 54 58 61 63 63 63 62 62 62 62 63 63 64 65 64 63 62 62 60 57 57 56 54 56 57 59
27 28 31 31 37 36 35 32 35 43 43 43 43 45 53 55 57 60 59 58 57 57 55 55 57 60 62 64 64 65 65 64 63 62 61 62 62 62 61 61 60 58 56 55 55 55 57 59 59
32 30 31 36 39 36 35 34 37 41 42 43 43 43 48 53 56 59 59 59 57 58 56 56 57 59 60 61 61 61 61 64 64 64 63 61 61 61 60 60 59 58 58 58 57 59 59 60 61
32 30 33 36 38 35 35 33 38 40 41 43 43 42 43 46 52 55 59 59 58 57 57 57 56 58 62 62 61 60 62 64 65 65 65 64 62 61 61 60 59 59 60 60 61 61 60 60 60
33 31 33 32 37 36 34 32 37 40 42 44 44 43 41 41 45 50 56 59 60 58 58 58 57 58 60 63 62 62 63 62 61 63 64 64 64 63 63 63 63 62 62 62 62 61 60 59 59
30 36 33 33 28 26 35 26 34 38 38 40 42 43 41 40 40 42 47 53 57 60 60 59 59 58 60 63 61 60 59 59 60 62 62 62 63 63 64 63 63 62 60 59 58 58 58 59 58
33 37 35 35 34 31 32 29 32 36 35 37 41 42 41 39 41 40 40 41 45 49 58 61 62 61 60 61 61 62 61 61 61 61 60 60 60 60 62 62 61 60 59 57 57 55 54 54 53
38 35 35 35 32 24 31 29 25 30 32 35 41 40 43 40 40 42 42 42 42 42 41 43 57 60 61 62 62 60 60 59 60 61 60 59 57 57 57 58 58 58 56 55 53 52 51 51 51
36 33 26 23 23 23 31 27 26 26 26 29 38 36 41 41 39 40 41 41 41 41 42 41 40 42 54 60 61 61 61 61 60 60 59 57 55 54 54 55 54 53 51 50 49 48 47 47 47
34 31 25 19 21 25 31 27 25 25 28 30 31 32 36 37 37 37 38 39 39 40 41 41 41 43 50 56 58 60 60 60 59 59 58 57 56 54 53 52 50 47 46 46 45 45 45 46 47
32 26 27 22 23 24 25 24 20 26 27 28 29 30 31 32 33 36 40 40 40 42 44 44 43 46 49 53 55 55 55 56 56 57 57 56 55 53 50 47 45 45 44 44 43 43 43 45 46
32 30 22 22 17 17 20 19 19 22 25 27 28 30 32 33 34 36 37 41 43 44 45 45 44 45 47 47 47 47 50 52 53 54 54 53 50 48 45 44 43 43 42 42 42 42 43 43 44
29 26 25 25 22 15 16 16 21 24 25 29 31 33 33 34 35 36 37 38 40 43 44 45 45 45 45 46 46 45 46 48 50 51 50 47 46 44 43 42 41 41 40 40 40 40 41 41 41
34 29 24 18 19 19 17 18 26 25 26 30 31 34 35 36 36 35 35 36 38 40 42 43 44 44 45 45 45 44 44 44 45 45 45 44 43 42 41 41 40 39 39 39 39 39 40 40 40

GFSSGP_sfc_30mbdewp_096.txt.gz
Dewpoint
57 56 55 51 37 36 30 30 35 33 39 42 48 48 49 49 43 44 64 65 63 65 68 68 68 69 69 69 70 70 69 70 70 69 70 70 69 68 66 65 64 64 64 65 67 67 64 65 65
56 55 52 48 36 27 27 30 34 34 37 44 48 49 49 49 59 59 63 66 65 65 67 67 70 69 69 69 69 70 69 70 69 70 70 69 69 67 66 64 64 65 66 66 64 64 66 66 66
54 54 47 39 37 29 24 29 33 34 37 46 47 52 52 51 58 61 65 66 65 65 67 67 70 69 69 69 69 69 69 70 70 69 69 69 68 66 65 65 66 65 66 66 67 67 66 66 63
50 51 48 39 28 29 30 28 31 32 37 44 45 46 53 58 58 64 67 66 65 65 66 69 70 69 69 69 68 69 69 69 69 69 69 68 67 65 65 66 66 66 67 68 67 67 67 66 64
50 45 34 30 28 27 30 32 31 30 33 44 45 42 47 58 59 64 66 65 65 65 66 68 70 70 70 69 68 68 69 68 68 68 68 67 67 64 65 67 66 66 67 67 66 67 67 66 65
42 39 29 25 23 25 30 36 33 33 33 36 45 43 47 56 58 64 66 65 65 65 66 67 69 70 70 68 67 67 68 68 68 68 67 66 67 65 65 66 67 67 67 67 66 66 65 65 65
40 35 28 23 19 21 27 33 35 35 33 35 44 42 48 52 53 61 66 66 64 65 65 66 67 68 69 68 66 66 67 67 67 66 65 67 66 63 66 67 67 67 67 67 66 65 64 64 64
39 37 31 27 23 20 22 30 35 37 35 35 44 41 45 53 56 61 59 67 65 65 64 66 65 63 62 67 67 66 66 66 65 64 65 63 63 63 65 65 66 66 67 67 66 64 62 61 61
38 33 27 25 24 24 24 26 33 38 37 35 40 47 50 57 60 60 57 59 66 65 65 66 63 61 60 64 66 65 66 65 63 64 64 63 60 61 63 63 65 66 66 66 64 63 61 59 59
33 27 24 24 24 25 27 28 30 34 37 38 38 50 59 61 60 58 57 57 58 65 66 65 62 60 62 64 66 63 61 60 60 62 60 59 59 59 60 64 66 66 65 65 63 62 60 56 53
29 27 23 25 26 28 31 31 33 36 35 37 36 41 59 58 58 56 56 57 57 65 65 63 60 59 60 63 66 66 61 57 57 59 60 59 59 61 61 61 62 61 62 58 60 59 54 54 55
28 25 26 25 27 31 31 34 34 35 35 37 39 45 58 58 57 54 54 55 57 59 65 65 61 58 58 63 64 66 65 61 59 57 57 58 58 58 57 57 57 57 56 55 55 53 53 54 56
26 25 23 26 26 29 35 35 37 39 42 42 40 42 51 56 54 51 52 54 58 58 63 65 64 62 61 59 60 64 65 64 62 62 59 56 56 56 56 56 56 56 57 56 56 57 57 57 57
25 25 25 25 25 30 31 34 39 39 45 47 45 42 45 53 54 52 53 50 56 59 62 64 64 64 62 61 61 59 63 65 65 64 63 61 60 58 58 59 60 59 59 58 57 58 58 58 58
31 27 29 30 28 32 33 34 35 38 42 44 45 42 47 53 53 54 53 52 55 59 62 62 63 63 61 61 61 62 60 62 65 65 65 63 62 61 61 62 62 60 59 58 58 58 57 57 58
30 33 28 28 29 32 36 27 29 41 43 44 46 44 47 52 54 54 53 55 57 60 61 62 62 62 62 62 61 62 63 62 62 63 65 65 64 63 63 63 62 60 59 59 57 56 54 55 57
27 28 29 31 32 35 35 29 32 38 38 41 46 45 48 53 55 55 56 57 59 60 61 59 60 59 60 63 62 61 63 63 63 61 62 64 65 64 63 62 62 61 60 58 58 55 53 55 57
27 26 26 27 34 35 35 36 35 36 38 41 45 47 50 52 54 54 54 58 60 59 58 58 59 58 61 63 63 62 61 62 63 64 62 62 63 65 64 62 61 61 59 56 56 53 55 57 58
30 30 28 35 36 34 32 34 34 34 37 38 45 48 51 53 57 58 59 60 58 59 58 56 58 59 61 63 62 61 62 63 63 62 61 62 62 62 62 62 61 60 58 56 56 56 57 58 59
32 29 30 36 38 35 35 34 35 35 35 38 44 48 52 53 54 55 59 58 59 58 57 57 55 57 61 61 60 59 61 63 63 64 64 63 61 62 61 61 61 60 59 58 58 59 59 57 59
31 24 31 32 35 34 34 33 35 36 39 39 44 44 49 53 52 52 55 58 58 58 58 58 58 58 58 62 62 61 62 63 63 63 63 64 64 64 63 62 63 62 61 61 62 62 61 58 60
26 30 31 34 31 27 31 26 33 36 41 42 43 42 43 49 51 51 52 58 58 57 59 58 58 57 59 63 62 60 59 58 61 62 62 62 64 64 64 64 63 63 63 62 60 60 60 59 58
30 34 32 32 30 28 30 30 32 37 37 40 42 43 41 42 45 49 52 56 58 59 59 59 59 59 59 59 62 61 60 59 60 61 61 61 61 62 63 63 62 61 60 59 58 58 57 56 53
39 34 33 34 31 24 32 31 30 30 29 37 41 42 44 41 42 43 44 47 49 51 55 61 60 60 59 59 59 60 59 60 60 61 60 60 59 60 61 61 61 60 59 59 58 57 55 52 52
36 30 25 22 24 24 33 31 27 26 27 31 38 40 43 42 40 41 43 43 43 44 45 43 48 58 60 61 60 60 60 60 59 59 60 60 58 57 59 60 60 59 58 57 55 53 52 51 50
34 32 25 17 19 25 32 27 26 28 29 31 40 35 38 41 42 39 40 40 41 42 43 43 42 42 46 56 60 61 61 61 60 61 61 60 58 58 58 58 58 56 55 53 52 50 48 48 49
33 27 27 25 26 22 25 23 29 30 30 32 32 33 34 36 37 41 41 41 42 44 45 45 43 44 47 52 56 58 59 60 60 60 60 59 58 58 57 56 54 50 48 47 46 45 45 46 47
33 30 25 26 19 19 19 21 25 27 28 31 30 31 33 35 36 37 39 42 44 45 45 45 45 46 48 49 51 52 54 56 57 58 58 58 57 55 54 51 49 46 45 44 44 43 44 44 45
29 26 25 24 22 16 16 19 23 24 28 29 31 33 34 35 36 36 37 39 41 42 44 45 45 45 46 46 46 46 47 51 53 55 56 54 52 50 48 46 44 43 42 42 42 42 43 42 43
33 29 24 21 19 20 18 19 26 26 30 31 33 34 35 34 33 33 33 34 36 39 41 42 44 44 45 46 46 45 45 47 49 51 51 50 50 47 44 43 42 41 40 40 40 40 41 41 41

GFSSGP_sfc_30mbdewp_099.txt.gz
Dewpoint
57 55 51 50 40 35 30 28 27 26 27 35 41 43 42 44 42 45 61 62 63 67 68 69 70 69 69 69 71 71 70 71 71 70 70 69 69 68 66 67 68 66 65 67 63 64 64 64 64
55 50 49 43 35 28 24 25 26 26 31 34 44 46 46 45 54 57 61 63 64 67 68 67 69 69 69 69 70 70 70 70 70 70 70 70 69 67 66 65 66 66 67 67 65 66 66 65 62
52 50 43 36 34 30 24 23 24 26 31 33 39 46 47 47 55 58 63 64 65 67 67 67 70 70 69 70 70 70 70 70 70 70 70 69 68 66 65 65 66 67 64 64 66 66 66 63 61
45 43 42 34 26 26 27 25 23 26 31 31 40 42 50 53 54 60 63 63 65 67 66 69 70 70 70 70 70 70 70 70 69 70 70 69 68 66 66 65 66 64 67 67 66 66 65 63 62
43 40 33 25 26 27 25 25 26 26 29 29 33 39 43 51 53 58 64 64 63 66 67 68 70 70 70 69 69 70 70 70 69 69 69 68 67 65 66 64 64 66 66 67 67 67 66 65 63
38 34 27 22 21 21 23 23 24 26 27 28 29 37 40 47 56 60 65 65 64 65 67 67 69 70 70 69 69 69 70 69 68 69 69 68 66 65 64 63 65 66 67 66 67 67 66 65 64
35 31 24 20 18 17 18 21 22 26 27 27 29 32 39 45 55 63 66 66 66 65 66 66 67 67 69 68 69 69 69 69 69 69 68 67 66 65 67 66 66 67 67 66 66 65 65 65 65
34 31 27 25 22 19 18 17 20 25 26 29 30 30 38 45 54 62 60 60 61 62 66 66 65 66 65 66 67 68 68 68 68 68 66 65 63 65 65 65 66 65 67 67 66 64 63 63 63
33 28 25 23 23 22 21 19 18 23 26 28 31 32 40 55 56 57 57 59 60 60 61 66 65 63 60 59 64 66 67 67 66 65 64 61 61 64 64 64 65 66 67 67 65 63 62 61 60
31 26 24 22 21 21 21 20 20 20 23 28 32 35 39 57 57 55 55 56 57 57 59 59 65 59 57 58 61 59 62 63 62 62 60 58 58 60 61 64 66 66 66 66 64 62 60 57 53
28 26 22 21 20 21 22 22 22 23 22 27 28 34 45 55 56 57 58 58 57 58 59 59 65 60 58 61 60 56 57 56 57 59 59 56 56 59 61 63 63 64 64 61 61 60 55 52 51
23 25 24 23 22 20 23 24 26 28 27 30 28 32 43 53 55 56 57 58 58 59 59 60 66 60 63 61 60 56 53 54 56 58 56 56 57 58 58 59 58 58 58 55 55 54 52 52 53
25 23 23 24 23 23 23 24 29 26 30 35 33 38 45 47 55 56 56 59 59 58 59 59 64 59 62 63 64 58 54 53 54 57 56 56 56 55 55 55 56 55 54 53 53 52 52 51 53
30 28 25 24 24 23 22 21 24 29 33 35 40 42 43 46 51 56 55 57 58 58 58 58 65 58 57 62 63 64 59 56 57 55 54 54 54 54 54 54 55 55 56 55 55 54 55 55 55
33 28 26 25 24 22 22 20 22 27 31 35 38 41 44 43 54 55 53 54 56 55 58 57 62 62 59 58 60 63 64 62 59 61 59 57 57 56 57 57 59 58 57 56 56 55 55 55 55
29 27 23 23 23 27 23 22 23 26 30 33 37 41 43 41 51 57 52 53 54 58 58 60 62 62 62 60 59 58 60 63 64 62 62 61 60 60 60 61 61 60 59 58 56 55 54 53 54
24 23 25 28 29 26 25 26 27 27 36 36 38 41 43 42 46 56 57 54 55 58 59 61 62 61 62 61 60 59 59 60 62 64 64 64 62 62 63 62 62 61 59 58 57 54 52 52 55
22 26 26 33 30 26 26 29 32 37 35 36 40 42 41 42 47 56 57 56 56 59 59 60 61 61 61 61 62 60 61 61 60 60 61 63 64 63 63 62 61 61 60 58 56 55 52 54 55
26 26 27 34 36 27 28 30 29 30 33 36 39 44 41 44 49 54 57 57 58 60 59 58 57 59 60 61 62 61 60 61 63 63 61 60 62 63 63 63 62 61 60 58 55 55 54 56 58
29 27 27 33 35 30 29 28 29 31 32 34 37 40 45 48 53 54 57 57 58 58 57 57 56 59 59 60 62 61 62 63 63 63 62 62 61 62 63 62 62 62 61 59 57 56 57 59 58
29 28 27 32 37 35 33 32 34 36 37 36 39 39 48 49 52 52 55 58 58 57 57 57 58 59 60 59 58 60 61 62 62 63 63 63 63 63 63 62 62 62 62 60 60 61 61 59 59
30 27 30 33 33 29 32 26 33 36 37 38 38 42 50 52 51 52 54 57 58 58 59 59 60 59 60 60 57 57 57 58 60 61 63 63 64 64 64 63 63 63 63 62 62 61 61 59 57
31 29 33 30 28 33 30 26 32 36 38 39 43 46 51 51 51 52 50 55 55 57 58 59 60 60 60 60 59 59 58 58 59 60 61 62 62 63 63 63 63 63 61 60 60 59 57 56 52
36 32 30 31 31 28 31 30 30 32 33 42 42 43 47 51 51 52 54 55 56 58 58 59 58 58 59 59 59 60 58 58 59 60 61 61 61 62 62 63 62 61 60 59 59 59 58 57 56
37 27 27 26 25 25 33 31 30 33 35 41 43 42 42 44 45 46 48 51 53 55 55 56 58 59 59 60 59 59 59 59 58 59 60 60 60 59 60 61 60 60 60 60 60 59 57 54 53
35 33 28 18 22 27 34 27 30 34 37 40 39 41 45 44 43 41 41 43 45 45 46 46 43 45 50 57 60 61 61 60 59 59 59 61 60 59 60 61 61 60 60 59 58 57 55 53 52
31 29 27 24 23 21 29 32 35 37 35 38 36 38 37 40 42 43 43 42 43 45 45 45 43 43 44 49 54 58 60 61 61 61 61 61 61 59 59 60 60 59 58 57 55 52 50 48 49
36 31 28 28 20 18 26 28 29 35 35 37 38 36 35 37 38 40 42 44 44 45 45 45 45 46 48 50 53 55 57 58 59 60 59 59 59 59 58 58 56 53 52 51 48 46 46 46 46
30 26 24 23 22 15 18 27 25 29 34 31 33 34 35 35 35 36 38 40 41 42 44 45 45 45 46 46 47 47 48 51 53 55 57 57 57 56 55 53 52 50 48 46 45 45 44 44 44
32 26 24 21 18 21 20 23 25 29 30 32 33 33 33 32 32 32 32 33 34 36 39 41 43 44 45 45 45 45 46 47 49 51 54 55 54 52 51 48 47 46 45 43 42 42 42 42 43

GFSSGP_sfc_30mbdewp_102.txt.gz
Dewpoint
56 55 55 49 43 40 35 35 33 30 28 26 31 39 43 43 49 49 61 61 66 68 70 71 71 70 69 69 71 70 70 72 71 70 70 70 69 68 68 69 67 67 67 65 64 64 65 65 65
55 51 48 45 38 33 30 30 30 30 29 27 34 43 45 44 56 62 62 62 66 68 69 69 70 70 69 70 71 71 70 72 71 70 70 70 69 67 69 69 68 68 67 65 64 64 64 63 64
50 48 45 40 37 34 30 28 26 25 27 27 33 45 45 45 56 61 63 63 67 68 68 68 70 70 69 71 71 71 71 71 71 70 70 70 69 67 67 68 67 69 68 67 66 66 64 61 61
44 43 43 36 30 31 33 31 31 28 25 27 31 44 49 52 55 61 63 63 66 68 67 69 69 70 70 71 70 70 71 70 70 70 70 69 68 66 67 67 67 65 66 67 66 65 62 62 61
43 41 36 31 29 30 29 29 30 27 26 26 30 36 46 50 56 62 63 64 65 67 68 69 70 70 70 70 70 70 70 70 69 69 69 69 68 67 67 65 63 66 67 67 66 65 64 63 62
39 37 32 28 28 25 25 27 26 24 24 25 28 29 38 50 52 59 63 64 64 66 68 68 69 70 69 70 70 69 70 70 69 70 69 68 67 67 63 63 62 66 67 67 67 66 65 64 63
37 35 30 24 22 21 22 22 22 22 21 23 27 27 29 52 54 62 65 66 65 67 68 68 68 69 69 69 69 69 70 70 69 68 68 67 65 63 63 62 63 64 66 67 67 66 66 65 64
33 33 29 28 26 23 22 21 20 19 21 23 26 26 27 50 59 65 65 65 64 64 63 62 63 67 67 68 68 68 69 69 68 68 68 66 64 63 63 63 65 64 67 67 67 65 65 64 64
33 30 27 26 23 23 23 23 24 22 20 19 23 26 40 56 61 59 59 59 60 61 60 60 60 60 65 65 67 68 68 68 68 67 65 63 62 64 63 64 65 65 66 67 65 64 63 62 61
31 28 27 25 23 21 21 21 22 21 20 20 21 26 33 55 57 57 55 54 55 57 58 60 60 59 58 62 66 67 67 67 66 64 61 61 62 62 62 65 65 66 66 66 65 64 61 59 57
30 29 28 27 25 24 22 21 21 21 21 21 21 25 28 46 57 56 56 56 54 58 58 57 58 60 59 58 63 64 66 65 65 63 61 60 62 62 64 65 65 65 65 64 64 62 59 55 54
23 24 25 26 26 25 23 23 21 21 22 28 29 32 38 43 50 53 56 57 58 57 57 59 59 59 59 60 58 58 62 65 63 62 59 57 60 62 63 63 63 63 63 62 61 60 57 55 53
28 27 25 24 24 24 24 22 22 22 27 31 29 32 39 43 49 54 58 58 59 57 58 60 61 62 62 65 57 56 56 56 59 59 58 57 59 59 60 61 61 60 59 59 57 55 53 52 52
30 29 30 30 30 25 23 22 23 23 23 27 30 32 41 45 45 49 56 57 59 59 58 59 63 64 64 65 61 55 53 55 58 57 57 57 58 57 57 57 57 56 56 54 54 53 54 53 54
34 29 31 31 29 27 26 24 22 23 22 22 28 31 41 45 48 48 54 57 59 59 60 59 63 64 64 64 62 63 56 54 55 55 55 55 56 56 55 55 56 57 57 57 56 55 55 56 56
31 32 28 27 26 27 26 23 24 23 21 20 27 32 42 43 45 48 54 54 59 59 58 59 61 60 60 62 61 62 62 60 59 57 56 56 55 56 57 59 60 59 58 58 57 56 56 55 55
29 25 27 27 28 28 26 24 28 24 23 21 24 38 40 43 45 52 55 58 57 58 58 60 59 57 56 59 63 62 62 62 61 62 60 60 60 59 61 62 62 60 60 58 58 56 54 53 53
26 27 27 25 31 36 30 27 29 27 26 29 35 39 40 41 44 51 57 56 58 58 56 59 59 57 58 60 60 60 61 62 63 63 63 62 61 62 62 63 62 61 60 59 58 56 55 53 54
28 29 28 26 29 35 30 27 27 32 36 34 37 40 44 43 45 52 56 56 58 58 58 59 60 59 60 58 59 60 60 60 61 61 63 64 64 63 63 62 62 62 61 59 58 56 55 53 58
33 30 26 27 34 34 30 26 29 33 38 36 34 37 42 46 51 53 56 57 58 58 58 59 59 60 60 60 58 61 61 62 63 63 62 61 63 64 63 63 62 62 61 61 59 56 56 57 59
30 28 26 30 34 34 34 30 31 32 37 37 37 38 39 47 52 52 53 55 57 58 58 57 58 59 59 59 59 60 60 61 62 62 62 62 62 62 63 63 63 62 61 60 61 61 60 58 60
28 30 31 34 31 28 34 25 33 36 36 38 36 38 43 51 52 52 53 55 56 58 59 58 57 58 60 60 59 59 57 56 58 61 63 63 64 63 63 63 63 63 63 61 61 61 59 59 58
30 34 34 34 32 30 33 28 32 35 36 37 38 41 49 51 51 51 53 54 57 58 58 59 58 58 59 59 59 59 56 58 59 59 60 61 63 63 63 63 63 63 62 61 61 60 59 58 57
36 35 32 31 32 27 32 30 29 31 34 38 45 49 50 51 52 52 54 55 56 58 58 58 58 58 59 60 60 59 58 58 57 59 59 60 61 61 62 63 63 62 61 61 60 58 57 57 56
36 33 25 25 26 25 32 29 29 34 38 41 45 47 50 50 50 51 52 53 55 55 56 57 58 58 59 59 60 60 59 59 58 58 60 60 60 60 60 62 61 61 60 59 59 59 58 58 57
35 33 27 21 23 27 31 26 30 39 40 44 45 46 45 46 45 45 49 52 52 54 55 55 53 53 55 59 60 60 60 59 59 59 58 58 59 60 60 60 61 60 60 60 59 59 58 57 55
35 31 30 29 30 28 29 31 35 38 39 38 40 44 45 44 43 42 43 43 44 45 45 45 44 44 44 48 55 61 61 60 59 59 59 58 58 60 60 60 60 60 60 60 59 57 57 54 53
36 35 27 28 24 23 27 27 29 33 38 38 37 39 41 42 43 44 46 45 45 46 45 46 46 48 49 50 52 54 56 58 60 61 60 60 60 60 59 59 60 60 59 59 57 55 52 51 50
32 26 26 24 22 19 22 26 36 36 36 36 38 37 35 36 38 39 40 41 42 43 44 45 45 46 46 46 46 47 47 49 52 55 58 58 58 58 58 58 56 55 54 54 53 51 49 47 46
32 27 24 23 21 24 26 26 34 33 33 34 34 33 35 32 32 33 33 34 35 37 39 40 43 44 44 45 45 45 46 46 48 50 53 56 55 55 54 53 53 52 51 49 48 46 45 45 45

GFSSGP_sfc_30mbdewp_105.txt.gz
Dewpoint
56 55 56 52 44 43 39 40 39 35 33 31 30 28 41 48 46 44 62 67 69 69 71 71 71 70 69 69 69 70 72 72 71 71 70 70 69 68 69 67 68 67 66 64 64 65 65 64 64
54 53 49 46 40 36 33 36 36 34 34 33 31 38 45 50 61 61 60 66 68 69 70 71 71 71 69 69 70 69 71 72 71 70 71 70 69 69 69 68 68 67 65 64 64 65 65 66 66
51 48 45 42 38 34 33 32 31 32 31 29 28 45 45 54 61 62 64 67 68 69 70 70 71 70 69 70 71 70 70 72 71 70 71 70 69 70 69 69 69 67 66 65 65 63 62 63 61
46 43 44 39 35 36 36 36 34 32 31 30 30 43 49 53 59 63 65 67 68 69 69 71 71 70 70 71 71 71 70 71 71 70 70 70 69 69 69 69 69 69 68 67 65 62 61 61 60
43 42 38 36 33 34 33 34 34 31 28 27 26 38 46 59 63 63 64 67 67 67 69 70 70 70 70 70 71 71 71 70 71 70 70 69 68 68 69 69 67 68 68 66 63 62 62 62 61
39 39 34 33 33 32 30 29 27 26 25 24 22 27 43 56 62 63 64 66 67 68 69 69 70 70 70 70 71 71 70 70 70 70 70 69 68 68 68 65 65 67 67 66 65 64 64 63 62
37 36 32 31 28 26 27 27 24 23 22 22 23 21 28 52 60 65 65 66 66 67 66 65 67 69 69 70 70 70 69 70 69 69 69 68 68 67 64 62 65 67 67 67 66 65 65 64 63
33 34 31 32 31 29 28 26 24 24 23 22 22 21 22 49 64 64 64 64 64 63 61 62 61 60 63 69 68 69 68 69 69 68 68 67 65 63 62 61 64 66 68 68 67 66 66 65 64
34 30 29 28 26 27 26 23 24 24 23 23 22 21 42 61 62 61 61 61 62 61 61 60 60 59 59 60 67 68 67 69 68 68 67 65 63 62 62 61 64 65 67 67 66 65 65 64 62
32 29 27 28 27 25 25 24 24 22 21 21 22 23 53 60 58 56 56 57 59 59 60 61 60 60 59 58 58 66 68 68 68 67 65 63 63 63 61 63 64 64 66 66 65 64 62 60 58
31 28 28 29 29 29 28 26 25 23 21 21 23 28 32 42 57 55 55 55 55 58 59 60 60 60 60 59 58 59 67 67 66 64 62 62 62 63 64 65 65 66 65 65 65 63 60 58 56
26 26 27 27 28 26 24 25 24 23 22 23 26 31 32 44 48 55 55 55 55 55 57 59 60 60 59 60 58 58 64 66 65 62 61 62 62 63 63 63 65 64 64 64 63 61 58 56 54
30 29 29 30 30 28 25 23 23 24 24 24 24 25 31 39 44 46 55 57 57 56 57 58 59 59 59 59 58 61 64 66 65 63 61 61 62 63 63 62 62 63 63 62 61 60 57 55 53
32 32 32 31 31 31 31 30 25 24 24 24 24 24 26 36 40 47 50 55 58 58 58 59 60 59 59 59 60 60 62 65 64 64 63 59 61 62 62 62 62 62 61 61 59 57 55 53 51
34 32 33 31 31 31 31 29 27 26 24 24 24 24 25 38 41 43 48 52 57 59 59 58 60 62 62 62 63 63 58 61 61 61 61 59 60 60 60 60 60 60 58 57 56 54 54 55 54
31 31 27 28 29 31 30 23 26 26 25 24 23 23 23 36 39 43 49 55 59 59 59 59 61 63 62 63 63 63 58 56 59 57 57 58 58 57 58 57 57 57 57 57 56 56 55 56 56
29 22 26 28 30 30 29 27 30 28 26 24 23 23 24 39 41 42 49 54 58 59 59 59 61 61 59 60 62 62 60 57 57 56 56 56 56 56 57 58 59 59 58 57 57 56 56 55 54
24 25 26 26 29 30 30 32 34 30 28 28 36 35 35 39 39 41 52 56 58 58 59 59 60 59 61 60 60 63 61 61 61 58 58 57 58 58 61 61 61 60 59 58 58 56 55 53 53
29 29 27 29 31 33 32 33 35 31 32 33 33 37 36 39 44 45 52 55 58 58 58 58 60 57 58 58 60 61 61 60 60 61 60 61 61 60 62 62 62 61 60 59 58 57 55 53 56
29 30 29 30 31 36 34 32 31 30 31 34 35 38 34 39 46 50 53 54 56 58 58 57 58 58 58 59 60 60 61 60 61 61 62 63 61 62 62 63 62 62 60 60 59 56 56 55 58
32 30 28 28 30 34 33 31 32 31 34 33 37 38 38 39 44 50 52 53 57 57 58 59 59 59 58 59 61 60 59 61 61 61 61 62 63 63 63 63 62 62 61 61 60 58 57 57 59
30 31 31 34 32 26 34 24 33 35 35 37 37 38 38 40 50 52 52 53 56 57 59 59 60 59 59 59 58 58 57 56 58 60 60 62 62 63 63 63 63 62 62 61 61 61 60 59 57
31 34 34 34 33 30 30 27 32 35 33 36 37 38 41 48 51 52 52 54 56 57 58 59 59 59 60 60 60 58 57 59 59 60 60 61 62 63 63 63 63 62 62 61 61 60 59 59 58
36 35 34 33 32 26 31 30 29 30 33 37 40 41 47 50 51 53 54 54 55 58 58 58 58 59 59 60 60 59 57 58 58 59 59 60 60 61 62 62 62 62 62 61 60 60 59 58 57
36 33 24 24 25 25 32 29 30 33 38 38 44 47 49 51 51 51 53 53 55 55 56 57 57 57 58 59 59 59 59 58 58 57 59 59 59 59 60 61 61 61 61 61 60 59 58 57 56
33 33 26 19 23 26 32 25 27 36 45 45 46 46 46 47 49 51 52 52 53 54 55 55 55 54 55 57 58 60 60 59 59 59 59 59 59 60 60 60 61 61 60 60 60 59 58 58 57
34 31 35 29 31 27 28 30 34 37 40 43 43 44 44 45 46 47 48 49 50 50 50 50 50 50 50 50 55 58 60 60 59 59 59 58 58 59 59 59 60 60 60 60 59 59 58 57 57
35 36 29 29 22 21 26 27 27 32 37 40 41 42 43 44 45 46 46 45 47 47 47 47 47 47 48 50 52 53 58 59 60 60 59 59 59 58 59 60 60 60 60 60 59 58 58 56 55
33 29 29 26 24 23 21 26 34 36 37 37 36 37 41 43 40 42 39 41 42 43 44 44 45 45 45 46 46 46 47 49 52 54 58 60 59 59 59 59 59 59 59 59 58 58 55 55 54
32 30 25 23 20 24 25 27 38 38 38 37 37 32 32 33 33 34 35 35 35 36 37 38 40 42 44 45 45 45 46 46 48 50 53 56 56 56 57 57 57 56 56 55 56 54 53 53 51

GFSSGP_sfc_30mbdewp_108.txt.gz
Dewpoint
55 53 55 50 43 42 37 38 42 37 34 33 32 30 30 35 45 41 62 66 68 69 71 71 71 70 70 69 71 73 72 72 71 70 70 70 69 68 68 69 69 68 66 66 65 65 62 66 66
51 52 48 46 38 34 25 39 38 37 35 32 31 30 40 46 61 60 64 68 68 70 71 71 71 71 70 69 69 71 72 72 71 70 71 70 69 69 68 69 68 66 65 65 65 64 63 66 66
46 48 44 42 38 31 28 34 32 34 33 31 30 31 45 56 61 61 63 68 69 70 70 71 71 71 70 70 69 69 72 72 72 70 71 70 69 69 68 69 68 67 66 65 65 65 66 65 63
44 43 43 39 36 37 35 35 35 33 32 30 27 26 47 54 61 62 66 68 69 70 70 71 71 71 70 71 71 68 71 72 71 71 70 70 70 70 69 69 67 67 66 65 63 63 62 60 60
44 42 33 36 36 37 35 35 34 31 29 28 26 24 29 57 62 64 67 68 69 69 70 71 71 71 71 71 71 70 70 71 71 70 70 70 69 69 69 69 69 68 67 65 62 62 61 61 62
40 39 34 27 32 33 33 31 29 27 26 24 22 24 26 53 63 65 67 68 68 68 70 70 71 70 70 71 71 71 71 71 71 70 70 69 69 69 69 69 69 68 66 63 62 62 62 62 62
37 36 31 32 31 31 30 28 24 23 23 23 22 21 24 54 61 65 66 68 68 68 67 68 69 69 70 70 71 71 71 70 70 71 70 69 68 69 69 68 68 67 66 64 64 64 63 63 62
35 34 31 33 28 27 30 28 26 24 22 24 23 20 21 34 64 64 65 64 64 64 64 64 63 64 65 68 69 69 69 69 70 69 68 69 68 68 68 67 67 68 68 67 66 65 65 64 63
34 29 27 28 27 29 26 25 25 25 23 23 22 23 35 50 61 62 61 61 61 62 62 61 61 60 59 59 65 68 68 68 69 68 68 67 66 66 62 63 67 67 68 68 67 66 66 65 62
32 28 26 29 28 27 28 28 27 25 24 23 22 25 31 35 42 55 59 59 59 60 60 60 60 59 59 59 57 59 65 68 68 68 67 66 63 62 61 62 63 64 66 67 66 66 65 62 60
32 28 28 28 29 30 30 29 27 24 23 22 22 24 29 35 46 53 56 57 60 59 60 60 59 60 59 59 59 58 60 64 67 67 66 63 63 62 61 63 63 65 66 66 66 64 62 59 55
28 28 29 29 28 28 26 25 23 24 24 25 24 25 28 30 40 43 48 55 56 58 59 60 60 61 60 61 59 58 58 61 64 65 63 63 63 62 63 64 64 64 65 64 64 62 60 57 55
30 30 31 31 32 32 31 30 28 25 24 25 25 25 26 29 36 38 45 55 57 56 58 59 60 60 60 60 59 58 58 61 65 64 63 63 63 63 62 63 64 64 63 63 62 61 59 56 55
32 32 32 33 32 31 30 30 31 30 27 26 25 25 26 27 29 38 44 51 56 56 56 58 59 59 59 59 59 58 60 62 65 65 63 63 62 62 62 61 62 62 62 62 62 60 58 55 55
33 31 32 32 33 32 32 30 29 30 30 27 25 25 26 27 31 40 41 46 54 57 57 58 58 59 59 59 59 58 58 63 64 65 63 62 62 62 61 61 61 62 62 62 60 59 57 55 53
32 31 26 27 31 31 31 25 27 28 28 27 26 26 26 26 28 33 38 47 53 58 58 58 60 61 60 59 59 59 59 63 64 65 64 61 62 62 62 61 61 61 60 59 58 57 55 54 55
28 22 26 28 31 30 29 27 30 31 29 27 27 26 26 26 29 34 40 45 54 59 59 58 58 61 62 62 62 62 61 61 62 64 64 63 62 61 60 60 60 59 59 57 56 56 55 55 55
21 24 26 25 27 29 30 30 32 34 34 32 27 27 31 34 33 35 37 46 55 58 59 59 60 61 61 61 63 62 61 60 60 61 60 60 60 59 59 58 58 58 58 57 57 56 56 55 55
29 29 28 29 29 30 31 32 33 35 35 33 31 32 34 35 36 39 44 51 56 58 58 59 60 59 60 59 59 60 60 60 60 59 58 58 58 58 59 59 59 59 58 58 57 57 55 54 54
30 29 27 29 31 33 32 31 33 33 34 32 31 33 35 36 36 41 47 53 56 56 57 58 59 58 59 59 60 60 60 60 61 60 60 59 59 59 61 60 61 60 59 59 58 57 56 55 56
31 29 29 28 30 35 32 31 32 33 33 33 34 38 38 38 36 42 49 53 56 56 57 57 59 58 58 59 60 60 61 60 60 59 59 58 60 60 62 62 62 61 61 59 59 58 57 56 58
29 30 32 32 32 26 33 23 31 34 34 36 37 36 37 38 41 47 51 52 54 55 57 58 58 59 59 59 59 58 55 56 58 59 59 60 61 61 62 62 62 62 61 61 60 60 58 58 57
30 33 33 33 31 30 30 27 28 34 32 34 37 37 38 39 46 50 51 53 54 55 57 58 59 59 58 60 60 58 56 58 59 60 59 60 61 62 63 63 62 62 61 61 61 61 60 60 58
35 35 33 33 32 25 30 29 29 31 33 34 36 40 39 47 49 51 53 53 54 56 57 58 58 58 59 60 59 59 58 58 58 59 58 59 59 60 62 62 62 62 61 61 60 60 60 60 59
36 32 23 22 23 22 32 29 30 34 36 37 39 44 47 50 51 52 52 52 56 56 57 58 58 57 59 59 59 59 59 59 58 59 58 58 59 59 60 61 61 61 61 61 60 60 59 59 58
32 32 25 19 22 24 31 25 30 35 44 44 45 45 47 47 48 48 50 51 51 52 53 54 54 55 56 57 58 59 59 59 59 59 59 59 59 59 60 60 60 60 60 59 59 59 59 58 58
34 31 35 28 30 27 28 31 32 35 40 42 43 44 45 46 47 47 49 49 50 50 51 51 52 52 53 52 55 58 59 59 58 59 60 59 59 60 60 60 60 60 60 60 59 59 58 58 58
35 37 29 30 22 20 24 27 26 31 36 39 41 42 44 45 46 46 47 48 49 49 49 48 48 48 49 52 52 55 58 59 59 59 59 59 59 59 59 59 59 59 59 60 59 59 59 57 57
34 32 33 30 28 24 21 26 33 33 37 36 40 41 42 43 40 40 39 41 42 43 43 43 44 45 45 46 46 46 47 49 52 54 58 59 59 59 58 59 59 59 59 59 59 59 58 57 57
32 31 29 22 24 25 27 26 37 38 37 34 34 39 36 40 37 35 36 36 36 37 37 38 39 41 44 45 45 45 45 45 47 48 50 53 54 55 56 56 57 57 57 57 58 58 57 56 56

GFSSGP_sfc_30mbdewp_111.txt.gz
Dewpoint
54 53 55 48 40 41 34 35 43 37 36 33 32 31 30 30 31 35 62 67 68 69 71 71 71 71 72 72 72 72 72 72 71 69 68 69 66 67 69 70 69 66 68 67 66 63 64 65 65
46 51 48 45 34 27 16 38 34 40 37 33 31 30 31 38 60 60 63 66 68 70 70 70 71 70 70 71 72 72 72 71 71 70 70 70 67 69 70 69 68 66 66 65 63 65 66 67 65
47 48 42 42 36 22 17 34 36 34 33 31 29 29 37 50 61 61 63 68 68 70 70 70 71 71 70 69 71 72 72 71 71 70 70 70 69 69 69 68 68 66 66 63 63 65 66 65 61
44 44 43 37 35 35 32 34 36 34 33 30 27 25 31 56 60 62 68 68 69 70 70 71 71 71 70 70 69 71 72 71 71 70 70 70 69 69 69 69 67 67 67 65 65 66 65 61 63
44 41 31 34 34 37 36 36 33 32 29 27 25 23 25 48 63 65 68 69 68 69 70 71 71 71 71 71 70 69 71 71 71 70 70 69 69 69 69 68 67 67 66 64 64 63 61 62 63
39 39 25 20 29 34 35 34 30 29 25 24 22 22 22 43 56 64 68 68 69 69 70 71 71 71 72 71 72 70 71 72 71 70 70 70 69 69 69 68 68 66 65 62 62 61 61 63 63
36 34 27 30 30 30 31 31 25 24 25 24 23 22 23 31 58 64 66 67 68 68 69 70 71 71 71 71 71 71 70 71 71 70 70 69 69 69 69 68 67 66 64 63 62 62 62 62 62
37 35 31 31 25 24 29 27 26 24 23 24 23 20 25 29 59 62 63 65 65 66 67 67 67 68 69 69 70 70 71 70 70 70 70 69 68 68 69 69 68 67 65 65 65 63 63 63 62
34 28 24 27 30 28 27 26 27 27 25 24 23 23 32 31 47 56 60 60 63 64 64 64 63 63 64 65 65 67 69 69 69 69 69 68 68 68 68 68 68 67 67 67 66 65 65 64 62
29 26 23 30 28 26 28 29 29 27 25 24 23 24 26 28 31 48 55 58 59 61 62 61 61 61 60 59 58 61 67 67 68 68 68 68 67 66 65 66 67 68 68 68 67 67 66 64 60
32 27 29 28 29 30 29 27 29 26 24 25 23 23 25 27 29 34 45 56 58 59 61 60 60 60 59 59 58 58 60 66 67 67 67 66 64 63 61 65 65 66 67 67 67 66 64 60 57
27 29 30 30 29 30 28 28 28 26 25 25 25 25 26 27 26 29 35 42 55 59 60 60 60 60 59 60 58 58 59 61 65 66 66 64 63 62 61 63 63 64 65 65 64 63 61 58 56
30 30 32 32 33 33 32 31 30 30 31 30 29 27 27 28 28 32 33 40 55 58 60 60 60 60 60 60 59 58 58 61 61 65 65 64 63 62 61 63 64 63 64 64 63 62 60 58 55
32 32 32 33 32 33 31 31 31 30 31 30 29 28 27 27 28 29 30 35 50 56 57 59 60 60 60 60 60 59 58 60 63 64 65 64 63 62 62 63 63 63 63 63 62 61 60 57 55
33 30 31 30 32 32 33 30 28 29 30 30 30 30 29 29 28 29 33 36 43 53 57 57 58 59 59 59 59 58 57 61 64 64 64 64 64 63 62 62 62 62 62 62 62 61 59 57 55
31 30 24 26 32 31 31 25 26 29 29 29 29 30 30 29 29 29 32 36 40 49 55 57 58 58 58 58 58 58 58 58 64 65 64 64 64 63 62 61 61 62 61 61 61 60 58 56 55
27 21 24 26 31 29 30 27 29 31 29 29 29 29 29 29 30 30 32 33 35 47 55 57 58 59 58 59 59 59 59 59 60 64 64 63 64 64 62 62 61 61 61 60 60 59 57 56 54
22 24 25 26 27 29 28 28 29 31 33 33 32 31 30 29 29 31 33 36 40 48 57 58 58 59 61 61 61 61 61 61 61 63 63 63 63 63 63 62 61 60 60 59 58 57 56 55 54
28 28 26 28 29 29 29 29 30 32 34 35 35 34 32 30 33 37 35 38 44 49 56 58 58 59 60 60 59 59 60 60 60 63 63 63 63 63 62 61 60 59 59 58 58 56 55 55 55
28 27 26 28 30 30 30 31 32 33 34 34 34 33 33 34 36 37 38 43 47 51 55 58 58 59 60 59 59 59 60 61 60 60 62 62 63 61 59 60 59 58 58 57 57 57 56 55 55
29 29 27 27 30 32 32 29 31 33 36 35 34 34 35 36 38 38 37 41 49 53 56 57 58 58 59 60 60 60 61 60 60 60 60 60 61 61 61 61 61 59 59 58 58 57 56 55 56
27 28 29 28 31 23 31 22 26 34 33 35 36 37 37 36 38 40 42 45 53 54 56 57 58 58 58 59 59 58 57 57 58 59 60 60 61 61 62 61 61 60 60 59 59 59 57 57 56
29 34 34 33 31 29 28 27 26 33 32 34 36 36 39 39 39 41 45 49 52 55 56 57 58 58 58 59 58 58 57 57 59 60 59 60 61 61 60 61 60 61 61 61 60 60 59 58 57
36 34 34 34 31 24 28 28 25 31 34 35 37 37 41 40 44 48 51 53 52 54 56 57 58 58 59 59 59 59 57 57 58 59 58 58 59 60 61 61 61 61 61 60 60 60 60 60 59
35 33 22 19 23 21 32 29 29 34 35 39 39 41 47 48 48 50 50 49 51 51 53 56 57 58 59 59 59 59 57 58 58 58 58 58 58 58 60 60 60 60 60 60 60 60 59 59 59
33 31 26 19 21 24 32 25 30 35 42 44 45 45 46 47 47 48 49 50 52 53 56 57 57 57 57 58 59 59 59 59 59 59 59 58 58 58 60 60 60 60 60 60 60 59 59 59 58
33 30 35 28 29 26 28 31 33 35 39 42 43 44 44 46 46 47 48 49 49 50 51 52 53 53 54 56 58 58 59 58 58 59 59 59 59 59 60 60 60 60 60 59 59 59 58 58 58
34 37 29 29 22 21 26 27 25 30 32 39 40 41 42 43 43 44 45 45 47 48 48 49 50 50 51 51 53 54 56 58 59 59 59 59 59 59 59 59 60 59 59 59 59 59 59 58 58
34 32 33 33 28 23 21 25 32 31 33 37 38 41 40 40 40 41 41 41 42 43 43 44 45 46 46 46 47 47 48 51 53 55 56 57 58 58 58 59 58 58 58 58 58 58 58 58 58
34 33 30 27 25 24 27 26 35 36 37 37 37 38 35 36 36 37 37 37 38 39 39 39 40 42 44 44 44 44 44 44 44 45 47 49 51 53 53 54 54 55 56 57 57 57 57 57 56

GFSSGP_sfc_30mbdewp_114.txt.gz
Dewpoint
50 52 54 45 39 37 31 31 42 38 37 34 33 31 30 30 29 31 62 67 68 70 71 71 71 72 72 72 72 72 71 71 69 69 68 68 67 68 68 66 65 67 68 65 63 63 61 65 65
46 50 47 42 29 22 13 36 35 40 38 33 31 29 30 34 49 59 63 67 69 70 71 71 71 72 72 72 72 71 71 71 70 68 69 68 67 68 69 68 67 68 67 65 63 64 64 65 65
48 48 42 38 32 11 9 32 36 35 34 31 27 28 32 47 59 61 63 67 69 70 70 70 71 71 71 72 72 72 71 71 70 70 70 69 67 69 70 69 68 67 65 64 65 66 66 63 63
44 43 42 35 28 31 26 34 36 32 32 29 26 25 28 48 55 63 66 68 69 70 70 71 71 71 71 72 72 72 71 70 70 70 69 69 69 70 69 69 68 66 65 64 66 67 65 63 64
43 36 29 30 31 36 37 36 33 32 29 27 24 22 23 38 54 62 65 68 68 69 70 71 71 71 71 70 71 72 72 71 71 70 69 69 69 69 69 68 68 67 66 65 66 66 62 64 64
36 35 18 14 25 32 34 36 32 29 25 25 22 22 23 33 46 59 64 67 69 69 70 71 71 71 71 71 70 71 72 72 71 71 70 70 69 68 69 68 67 66 65 65 65 63 62 64 64
32 29 21 25 26 27 29 31 30 25 24 24 23 22 23 29 32 60 63 65 68 69 68 69 71 71 71 71 71 69 71 72 72 71 70 69 68 68 69 68 67 65 64 63 62 61 63 63 63
37 30 29 28 23 19 29 27 25 24 24 24 23 21 22 28 33 52 61 63 63 65 67 67 69 69 69 70 70 70 70 71 71 70 70 69 68 68 69 68 67 66 64 64 64 62 63 63 63
34 26 21 24 28 25 28 27 27 28 26 25 24 22 32 28 33 36 50 59 61 62 63 65 66 68 68 68 68 69 70 70 70 70 69 68 68 68 68 68 67 66 65 65 64 64 64 64 62
28 22 19 29 29 26 28 29 28 27 26 25 25 25 25 27 28 29 35 47 58 60 61 62 62 64 65 63 65 67 68 68 68 69 68 68 68 68 68 67 67 67 67 67 66 65 65 64 61
31 22 29 28 29 30 28 27 28 26 23 25 24 23 25 26 26 29 30 39 51 58 61 61 61 61 61 60 60 65 67 67 67 67 67 67 67 67 67 67 67 67 67 67 67 67 65 62 58
24 29 30 30 31 32 29 30 29 28 26 26 26 26 27 26 27 27 28 30 37 52 59 61 61 60 60 60 58 59 64 66 67 67 67 66 65 65 63 65 65 67 67 66 66 65 63 60 57
28 30 32 32 32 32 32 30 30 30 30 31 31 31 30 29 28 29 29 33 36 50 58 60 60 60 60 60 59 57 58 62 65 66 66 65 64 63 61 63 63 64 65 65 64 63 61 58 56
32 32 32 32 32 33 31 30 31 30 31 30 30 30 30 30 29 29 30 30 33 45 55 60 60 60 60 60 59 58 57 59 61 64 66 65 64 62 61 62 63 63 64 64 63 62 60 58 56
33 29 30 30 31 30 34 28 28 29 30 29 29 30 31 32 31 29 30 29 31 37 52 57 60 60 60 59 60 59 59 59 60 62 65 65 64 63 62 62 63 63 63 63 62 61 60 58 56
29 28 18 25 32 31 29 23 24 27 29 29 29 29 30 31 32 31 31 31 33 40 47 55 58 60 60 60 59 59 58 57 61 64 63 64 64 64 63 62 63 63 63 62 61 61 60 58 56
25 19 23 25 29 30 29 26 29 31 31 30 30 30 30 31 32 32 31 32 32 35 39 50 57 57 58 58 58 58 58 58 57 64 64 64 64 64 63 62 62 63 62 61 61 60 59 58 56
22 24 25 25 27 29 29 28 30 30 31 31 32 32 33 33 32 33 31 32 33 35 40 47 56 57 58 58 58 58 59 59 59 59 64 64 64 64 64 63 63 62 62 61 60 60 58 58 56
26 24 24 25 28 29 29 29 30 31 32 33 34 35 35 35 35 35 34 32 35 39 44 50 55 57 59 58 58 59 58 59 59 60 62 63 63 64 63 63 62 62 61 60 59 58 58 57 56
28 26 25 26 29 29 29 29 31 32 33 34 35 35 36 35 35 35 38 38 38 38 43 50 55 57 58 59 59 58 59 59 60 60 61 63 63 63 63 62 60 61 61 60 59 58 56 56 55
28 27 26 26 27 30 30 27 27 30 36 36 36 36 35 34 34 36 39 40 40 42 45 52 55 57 58 60 59 59 60 61 60 60 61 61 62 62 62 61 60 59 60 59 59 58 57 55 55
26 29 29 27 27 25 30 21 25 32 33 34 36 37 37 37 39 38 39 41 41 43 47 53 56 57 57 59 58 58 58 57 59 60 60 61 62 62 60 58 57 58 59 59 59 58 57 56 55
29 32 33 33 31 30 28 26 26 32 32 35 37 37 38 38 41 40 39 42 45 49 52 55 57 58 58 58 59 58 57 57 58 59 60 60 61 61 61 59 58 58 60 60 59 58 57 57 57
32 33 33 33 32 24 27 27 24 31 32 35 38 39 41 46 44 43 46 49 50 51 54 55 56 57 57 58 58 58 57 57 58 58 59 59 60 60 61 62 62 61 61 61 59 59 58 58 58
34 32 22 18 23 20 31 29 30 34 35 41 42 44 46 46 46 48 50 50 50 51 53 55 56 56 57 58 58 58 58 57 57 58 58 58 58 59 59 60 60 60 60 60 60 59 59 59 59
33 32 25 18 19 22 31 26 29 36 37 43 44 44 44 45 44 46 48 50 51 52 53 54 55 54 56 58 58 59 59 57 58 58 59 58 58 59 60 60 60 60 60 60 59 59 59 59 58
33 30 35 28 28 25 28 31 34 34 35 40 40 42 42 42 42 43 44 47 49 50 52 54 54 55 56 57 58 58 58 58 58 59 59 59 58 59 59 59 59 60 60 59 59 58 58 58 58
35 37 29 29 21 20 26 27 25 29 31 35 38 39 40 41 41 42 43 44 46 47 49 50 50 50 51 52 52 53 56 58 58 59 58 59 59 59 59 59 59 59 59 59 59 58 58 58 58
34 32 33 33 29 22 21 25 31 30 32 33 37 38 38 39 40 41 42 43 44 44 45 47 48 47 47 47 47 47 47 48 49 51 52 54 55 55 55 56 58 58 58 58 58 58 58 58 58
35 33 33 26 26 25 26 26 37 36 37 37 35 36 36 36 37 37 38 40 41 42 42 43 43 43 43 43 43 43 43 43 44 44 45 46 47 48 48 48 49 50 51 52 53 53 54 54 55

GFSSGP_sfc_30mbdewp_117.txt.gz
Dewpoint
48 53 52 44 34 34 26 25 42 38 38 35 33 31 31 31 30 34 62 66 68 69 71 70 72 72 72 71 72 71 71 71 70 70 69 68 67 67 67 66 65 65 65 63 64 65 62 65 64
47 49 47 39 29 15 10 35 36 39 37 34 32 29 31 33 54 60 63 66 69 70 71 70 73 72 72 71 71 71 71 70 69 69 69 68 68 68 67 66 67 68 66 64 64 62 63 64 65
47 47 41 36 28 11 7 29 37 35 32 30 27 28 34 44 49 60 63 66 69 70 71 70 72 72 72 71 71 71 71 70 69 68 68 69 68 69 68 68 69 68 67 65 64 63 65 64 64
45 42 40 34 23 30 25 34 36 32 31 28 25 25 39 37 47 57 63 68 69 70 70 70 71 71 71 72 72 71 71 71 71 70 70 69 69 69 69 69 68 67 66 66 66 66 63 64 64
41 34 30 26 26 34 36 36 34 32 30 27 24 23 25 32 36 54 63 68 69 70 70 70 71 71 71 72 72 72 72 71 71 70 69 70 69 68 70 69 68 66 66 67 67 65 64 65 64
35 29 17 12 20 30 34 36 34 30 27 25 22 23 25 32 33 50 63 64 68 68 69 69 70 70 71 70 71 72 72 71 71 71 70 70 70 68 69 69 67 66 66 66 66 64 64 64 64
29 20 12 17 17 23 28 30 31 29 24 25 24 22 24 29 32 44 61 64 65 68 68 69 69 69 71 71 70 71 71 71 71 70 70 70 69 68 68 68 68 67 66 65 66 63 64 64 64
37 26 25 26 21 16 28 27 25 24 25 25 23 22 22 30 32 38 47 61 63 64 66 68 68 69 70 70 70 69 70 70 70 70 70 70 69 68 69 68 67 67 66 66 65 63 64 64 64
34 20 16 19 25 22 28 27 28 29 27 25 25 23 27 29 32 32 34 41 57 62 63 64 66 68 69 69 69 68 68 69 70 70 70 69 68 68 68 67 67 66 65 65 64 64 65 65 64
29 15 15 27 30 26 29 29 28 27 26 26 26 27 26 27 29 31 31 32 37 49 60 62 63 65 67 67 68 68 68 68 70 69 69 69 68 68 68 67 67 67 66 66 65 65 65 64 60
30 18 27 28 29 31 28 27 28 27 23 25 22 24 25 27 28 28 31 32 33 41 54 61 62 62 63 64 65 67 68 67 69 69 69 69 68 68 68 67 66 66 65 64 64 64 63 62 60
21 29 31 30 32 32 29 31 29 28 24 25 26 26 28 28 29 29 31 32 33 34 40 58 62 62 62 61 62 65 66 67 68 67 68 68 68 68 67 66 66 66 65 64 64 64 64 62 59
27 30 32 32 32 32 32 30 29 29 29 30 30 31 31 31 32 33 32 33 34 35 38 53 61 62 61 61 60 59 62 66 67 67 67 67 67 66 66 66 66 66 66 64 64 65 63 61 58
32 32 31 31 31 32 30 29 31 28 31 30 31 31 31 32 32 32 33 32 33 33 38 51 60 61 61 61 60 58 58 60 63 66 67 66 66 65 65 64 64 64 65 65 64 63 62 60 57
33 26 28 29 31 30 34 29 29 29 31 30 29 30 31 32 33 32 33 33 32 33 36 46 57 61 61 60 61 60 58 58 59 61 63 66 65 64 63 63 63 64 65 64 64 63 62 59 58
28 25 13 24 30 31 29 20 24 28 30 29 29 30 31 31 32 34 34 34 34 36 37 44 55 60 61 61 60 60 60 59 60 62 61 61 65 64 63 62 63 64 64 64 63 62 61 59 58
25 14 23 23 29 30 30 26 28 31 30 30 30 31 32 32 33 34 35 35 34 35 37 41 50 57 60 60 60 60 59 59 58 59 62 62 62 64 64 63 63 64 63 63 62 61 60 59 58
19 22 24 23 26 27 28 28 30 31 31 31 31 32 33 34 34 36 36 35 35 35 38 39 46 52 57 59 60 59 59 59 59 58 60 62 62 63 64 64 63 63 63 63 62 61 60 60 59
26 24 24 25 26 27 28 28 29 30 31 32 33 34 35 36 37 38 38 37 36 36 37 40 43 51 56 58 57 57 57 58 59 60 59 60 62 62 63 64 64 63 62 62 62 61 60 59 58
27 26 25 26 28 29 28 27 29 31 32 34 35 36 36 37 37 37 38 38 38 36 37 40 46 50 55 58 58 58 58 59 59 60 60 60 61 62 62 63 63 62 62 61 61 60 58 58 58
28 26 25 25 27 29 29 26 26 28 35 35 35 36 37 37 37 37 37 39 41 41 41 41 44 52 56 57 58 59 60 60 60 60 60 61 61 62 62 62 62 62 62 61 60 60 59 57 57
26 28 28 28 30 25 29 22 25 31 32 34 37 38 38 38 39 39 40 40 40 42 43 44 47 52 56 57 57 56 56 56 58 59 59 61 62 62 62 62 61 61 61 60 60 60 59 58 56
26 31 32 32 31 30 28 27 25 32 32 34 37 38 41 42 43 43 42 42 43 45 44 46 50 54 56 56 56 56 55 56 58 59 60 60 61 61 62 61 60 59 59 58 57 57 56 58 56
30 31 31 32 29 24 25 26 24 31 32 35 38 43 45 44 44 45 48 45 47 50 50 52 53 54 56 56 56 56 56 56 57 59 59 59 60 61 61 60 59 58 58 59 60 59 59 58 58
34 31 21 18 22 19 28 29 30 34 36 38 42 42 43 43 42 43 47 49 50 50 51 53 54 54 55 57 57 57 57 58 58 58 58 58 59 59 60 61 60 59 59 59 60 59 59 59 58
31 30 24 18 18 20 31 25 29 34 37 38 40 40 41 43 42 42 44 50 50 51 52 53 54 55 56 56 57 58 58 58 58 58 58 59 59 59 60 60 60 60 60 60 60 59 59 59 59
33 30 34 28 28 25 27 31 35 33 34 37 38 38 39 41 41 42 44 46 47 50 51 53 54 55 56 56 58 58 58 59 57 58 59 59 59 59 59 60 59 59 59 59 59 59 58 59 58
35 37 29 29 21 18 24 26 26 30 31 33 36 37 38 39 40 41 42 44 45 46 48 49 49 50 50 50 52 51 51 54 56 56 57 58 58 59 59 59 59 59 59 59 59 58 58 58 58
34 31 32 32 29 22 21 23 33 32 34 34 36 37 37 38 38 40 42 43 44 44 45 45 45 46 46 46 46 46 47 47 47 49 50 51 51 51 52 53 53 55 56 56 57 58 58 57 58
36 34 33 27 27 27 26 26 37 37 37 36 36 36 36 36 37 38 40 41 42 42 43 43 44 43 44 44 44 44 44 45 44 44 45 45 46 46 46 47 46 47 48 49 50 50 51 51 51

GFSSGP_sfc_30mbdewp_120.txt.gz
Dewpoint
49 52 52 46 29 27 15 17 33 34 33 38 34 34 33 32 31 35 64 66 67 66 68 68 72 72 72 72 72 71 71 71 71 70 71 69 67 66 66 66 65 64 63 63 67 66 66 65 65
49 50 48 39 23 10 8 28 30 34 36 35 33 32 32 34 53 55 62 63 67 67 69 66 72 72 72 72 72 72 71 71 71 71 70 68 67 67 67 66 65 66 65 65 65 63 62 65 65
48 47 39 31 17 10 8 25 32 35 31 31 30 29 35 38 41 51 57 63 67 67 69 67 71 71 71 71 71 71 71 71 70 69 69 68 68 69 67 67 67 67 66 65 63 62 64 65 64
46 45 38 25 15 21 22 29 35 32 30 27 26 27 36 32 37 49 61 66 67 67 68 70 72 71 71 72 71 71 70 70 70 69 69 69 69 69 68 68 69 68 67 65 63 66 64 64 64
42 39 26 19 19 26 31 34 33 30 29 28 26 26 31 31 36 49 64 66 68 68 67 68 71 71 70 71 71 70 70 70 70 69 69 69 69 69 68 68 69 67 67 66 66 65 64 64 65
36 31 15 9 15 25 29 34 34 31 29 25 23 25 28 32 33 39 60 65 67 68 68 67 69 70 70 70 70 71 70 70 70 70 70 69 69 69 69 68 67 67 67 67 67 64 65 65 64
27 18 8 11 12 17 21 28 26 24 26 23 24 21 27 30 34 38 43 63 65 68 68 66 67 68 70 70 70 70 70 70 70 70 69 69 68 68 69 67 67 66 66 67 66 64 65 65 64
31 20 17 15 12 15 28 27 26 24 20 26 24 15 20 32 32 36 38 42 61 65 66 68 66 66 66 65 69 69 70 69 70 69 69 69 68 68 67 67 67 67 66 65 66 64 64 65 65
36 11 10 13 18 21 28 25 28 29 27 25 25 24 25 28 30 34 37 38 40 51 63 65 67 67 66 65 65 68 67 68 69 69 69 68 66 66 67 66 67 68 67 67 66 65 65 65 64
22 12 13 24 27 24 27 27 26 23 22 21 23 25 26 26 27 30 33 35 36 38 43 60 64 66 67 65 65 64 64 64 63 64 65 66 64 64 65 66 66 67 66 66 65 64 66 64 58
27 16 22 26 29 30 27 26 26 22 19 19 16 15 18 25 25 27 29 32 35 36 38 42 60 64 65 67 66 65 68 66 63 61 63 64 64 64 66 67 66 65 65 60 62 61 59 58 57
23 29 28 29 31 30 26 26 24 24 19 19 21 23 24 25 26 27 28 30 32 37 37 39 50 62 64 65 64 64 65 64 63 64 63 64 64 65 65 66 65 64 63 60 56 54 55 57 58
21 26 29 29 30 29 28 26 25 24 25 24 25 27 28 29 29 30 31 31 32 35 37 38 44 58 63 64 63 63 64 66 65 64 63 64 63 64 65 66 66 65 64 62 58 56 57 59 57
28 29 28 29 29 30 27 24 28 22 27 27 28 29 29 30 30 31 33 33 32 32 35 39 41 50 61 63 63 61 61 64 65 65 65 65 65 65 65 64 65 64 64 63 61 58 57 58 57
31 25 25 28 30 29 33 25 27 26 27 27 26 26 28 30 31 32 33 33 34 33 34 35 38 46 57 61 63 62 60 60 63 65 66 65 65 65 64 64 64 64 63 63 63 60 59 57 57
25 24 17 24 28 31 29 14 22 25 27 26 25 27 29 30 31 31 33 34 34 36 36 36 36 41 52 59 62 62 61 58 59 60 60 61 64 65 65 63 63 64 64 64 63 62 61 61 58
22 17 22 21 28 28 29 21 25 27 26 27 27 27 28 30 33 34 35 35 34 35 36 36 37 39 50 57 62 62 62 61 59 59 61 61 59 61 63 63 63 63 64 64 63 62 62 60 59
16 19 19 19 23 25 24 24 25 28 28 28 29 30 31 32 34 37 38 37 37 36 37 37 36 37 41 52 59 62 61 61 61 59 58 59 60 58 59 60 62 63 64 64 64 62 62 61 59
24 22 21 21 24 25 25 26 26 27 29 29 30 33 33 36 38 40 39 40 39 39 38 37 36 35 38 44 53 58 59 60 61 60 59 58 58 59 60 60 61 63 63 63 63 63 61 61 61
27 23 20 23 26 27 26 25 28 29 29 32 34 35 36 37 39 40 40 40 40 39 38 38 37 36 38 42 49 54 57 58 58 59 60 59 58 59 60 60 61 62 63 63 63 62 61 60 60
25 23 23 25 27 28 28 27 25 27 32 34 35 37 38 39 40 40 39 39 39 40 40 38 37 38 38 42 47 56 58 58 58 58 58 59 59 60 60 60 61 62 63 62 62 61 61 58 59
24 27 28 28 28 25 29 24 27 30 31 35 37 39 40 43 44 44 44 41 42 42 43 44 42 39 40 44 49 53 56 56 56 57 58 59 60 60 60 61 61 62 62 62 61 62 61 59 57
25 30 29 29 28 29 27 27 27 32 33 35 38 40 43 43 43 43 46 46 45 44 45 46 44 42 43 46 50 53 56 56 56 58 57 59 59 60 61 62 62 61 61 61 61 61 59 59 57
29 30 31 31 30 24 26 28 29 31 33 35 38 40 41 42 42 41 43 46 48 45 48 48 44 43 45 48 51 53 54 56 56 57 58 59 59 60 61 61 61 61 61 61 61 60 59 58 57
32 30 25 23 23 22 28 28 30 33 35 37 37 39 40 42 40 40 42 44 48 49 50 51 51 48 49 51 52 53 56 56 56 56 57 58 58 59 60 61 61 60 60 60 59 59 58 58 57
30 30 25 19 20 22 28 27 32 33 36 38 39 39 39 40 40 41 43 48 49 50 51 51 52 50 52 53 55 56 57 57 57 57 58 58 58 59 60 60 60 60 60 59 59 59 59 59 58
34 30 34 28 29 25 26 32 34 34 36 37 38 39 38 39 40 41 43 45 46 48 49 52 53 53 53 54 55 56 55 57 57 57 58 58 59 59 60 60 60 60 60 59 59 59 58 58 58
36 37 29 30 22 20 24 27 27 31 34 36 37 37 37 39 40 41 42 44 45 46 46 47 48 49 50 50 51 51 50 53 57 57 57 57 57 57 56 58 59 59 59 59 59 58 59 58 58
34 32 33 32 30 22 20 26 35 34 36 36 34 35 35 37 38 39 41 42 43 44 44 44 45 45 46 46 47 48 47 47 48 49 49 49 50 50 50 51 51 52 53 55 57 57 57 57 57
35 33 31 27 28 28 26 26 36 35 36 36 36 34 35 36 36 37 39 40 41 42 43 43 43 43 44 45 44 44 45 45 45 45 45 46 46 46 46 46 45 46 47 47 48 48 48 49 49

GFSSGP_sfc_30mbdewp_123.txt.gz
Dewpoint
51 51 51 46 29 25 17 14 23 26 29 34 36 34 31 32 34 42 61 62 65 66 68 69 72 72 72 72 72 72 71 71 71 70 70 70 67 66 66 65 64 65 64 67 68 67 66 66 66
49 49 47 38 30 15 13 18 26 30 33 34 34 34 32 35 48 51 59 60 65 66 68 67 72 73 73 73 72 72 71 71 71 70 71 69 67 67 66 66 65 65 64 67 66 65 66 66 66
49 47 38 30 18 16 13 23 24 33 32 30 31 32 33 35 39 49 52 63 66 66 68 67 71 72 71 72 72 72 72 71 71 70 70 69 67 67 67 67 66 67 67 67 64 64 65 65 66
46 44 38 28 14 16 20 23 32 30 30 28 28 27 34 32 38 46 62 65 66 66 66 70 71 71 71 70 71 71 71 71 70 70 69 68 68 69 68 68 68 67 67 65 65 66 66 65 64
45 38 25 18 17 21 26 28 30 28 29 29 28 27 31 33 38 46 62 65 67 67 66 69 71 70 70 70 70 70 70 70 69 69 69 68 69 69 68 68 68 68 67 65 66 65 64 64 64
37 33 19 14 15 21 25 30 29 26 26 26 26 26 29 34 37 41 53 64 66 68 67 68 70 71 70 70 70 70 70 69 69 69 69 69 69 68 68 68 68 68 67 67 66 64 65 64 65
33 21 13 12 12 18 19 27 27 25 25 25 23 19 28 32 36 38 41 53 65 67 68 67 66 68 70 70 69 69 69 70 70 69 69 69 68 68 68 67 67 67 67 68 67 64 65 65 64
29 20 14 10 9 15 25 23 25 22 17 25 23 11 17 32 33 36 38 42 54 64 66 67 67 66 65 66 69 69 69 69 69 69 69 68 68 68 68 68 66 67 68 68 67 65 65 65 65
32 14 12 12 15 20 24 22 26 27 25 22 21 19 23 27 29 32 36 37 41 47 58 65 67 67 66 63 64 67 69 69 68 68 69 68 65 66 66 66 66 67 67 67 67 66 65 65 64
20 14 14 21 24 21 24 24 24 21 18 19 20 21 22 23 23 27 31 34 36 38 42 47 63 66 66 66 62 63 61 62 63 64 65 66 62 62 65 65 66 67 67 67 67 66 66 65 59
22 18 20 22 26 28 24 23 23 21 17 17 16 16 15 18 21 24 26 29 32 35 37 39 44 61 65 65 66 63 63 64 63 60 61 62 60 63 64 66 66 66 66 63 64 63 61 58 56
21 25 25 27 28 27 23 22 21 20 19 18 19 20 21 23 23 24 26 27 31 35 36 38 39 48 62 65 65 64 66 65 64 62 60 60 61 61 65 66 66 65 64 59 57 55 54 53 55
18 23 26 26 27 25 25 23 22 22 22 22 22 22 24 25 27 28 28 29 29 33 37 38 39 42 56 63 63 61 61 63 62 62 62 61 62 62 63 66 67 66 65 61 57 53 51 52 54
23 25 24 26 26 26 25 24 22 22 23 23 24 25 26 27 27 28 29 31 32 32 33 37 39 40 46 59 62 61 60 61 64 63 62 62 62 65 64 64 65 64 66 63 61 57 53 53 56
26 23 24 24 26 26 30 21 22 23 23 24 24 24 25 26 27 28 30 31 32 32 34 35 37 39 42 50 60 62 60 59 62 63 63 63 63 64 65 65 65 66 66 64 63 61 57 55 54
24 21 18 23 27 29 28 14 18 23 22 22 21 21 22 24 26 28 29 31 31 33 34 35 36 36 38 45 55 60 62 59 59 63 62 63 63 63 64 64 63 64 65 65 64 62 59 58 55
20 18 22 21 26 25 27 20 19 23 22 21 22 23 24 26 28 30 32 34 34 34 32 35 38 38 37 42 51 59 62 62 58 60 61 61 62 62 63 62 61 62 64 63 63 63 61 60 59
13 18 16 16 23 25 22 22 22 23 24 25 25 26 28 30 32 35 37 38 38 37 35 34 36 37 37 37 49 58 63 63 62 59 59 60 60 59 60 61 60 61 62 63 63 62 62 61 60
19 17 16 17 20 23 22 22 23 24 25 26 28 30 32 34 37 38 39 40 40 40 39 37 37 37 37 37 43 53 61 61 62 61 59 58 59 60 59 58 59 60 62 62 62 63 62 62 61
23 18 16 19 25 26 25 25 26 28 28 31 33 34 36 37 38 40 42 41 41 40 40 39 38 37 37 37 40 47 57 60 61 61 61 60 58 59 59 59 59 59 62 62 62 62 62 62 62
21 19 20 23 26 26 27 25 25 28 31 33 37 38 39 40 41 42 43 43 43 40 39 38 38 39 37 36 39 45 51 57 58 59 60 61 60 60 60 60 60 60 61 62 62 63 62 60 61
20 26 26 27 27 25 29 23 26 28 30 33 36 38 40 41 42 43 43 43 45 45 42 41 39 39 39 40 39 42 49 53 57 57 58 58 59 59 59 60 60 61 61 60 62 62 62 61 58
25 28 27 28 27 29 26 27 27 32 31 32 35 38 39 40 41 42 41 42 43 46 47 45 43 43 44 40 41 43 45 52 55 56 57 57 59 59 60 60 60 60 61 61 62 62 61 61 60
28 29 29 29 28 24 25 27 28 32 32 33 37 39 39 39 40 40 41 42 42 44 49 47 46 44 43 42 42 44 47 50 54 55 56 57 58 59 59 60 61 61 61 61 61 61 61 61 60
31 28 25 24 24 21 27 27 28 33 33 37 37 38 39 40 40 41 41 43 46 46 50 47 49 45 42 43 44 45 48 50 53 54 56 56 57 58 59 59 61 61 61 61 61 61 60 60 59
28 28 26 19 21 23 26 26 32 33 37 38 38 39 39 39 41 41 42 44 47 50 50 50 49 49 48 44 48 49 51 53 54 55 56 57 56 58 59 60 60 60 60 60 60 60 60 60 58
34 30 34 27 27 25 25 33 34 33 35 35 35 35 36 38 40 40 42 43 46 46 48 49 51 52 52 47 50 52 53 53 54 56 56 57 58 59 59 59 58 59 60 59 60 59 59 58 58
34 37 29 29 22 22 26 28 29 30 34 34 34 34 34 36 38 40 41 42 44 45 46 46 48 48 48 50 52 51 51 52 56 57 57 56 56 58 57 56 58 59 60 60 59 59 58 57 57
34 32 33 32 28 25 20 26 34 33 35 34 34 34 34 35 36 38 40 42 43 43 44 44 45 46 46 46 47 48 47 47 49 50 50 50 50 50 51 50 50 50 51 53 54 54 56 57 57
33 32 32 29 29 29 27 26 34 35 35 36 35 33 34 34 34 36 37 39 40 41 42 42 43 44 44 44 44 44 45 45 45 45 46 47 47 47 47 47 46 46 46 47 48 48 48 48 47